Time,TemperatureF,DewpointF,PressureIn,WindDirection,WindDirectionDegrees,WindSpeedMPH,WindSpeedGustMPH,Humidity,HourlyPrecipIn,Conditions,Clouds,dailyrainin,SoftwareType,DateUTC
2013-02-10 00:00:00,22.9,19.6,30.27,SSE,163,0.0,3.0,87,0.00,,,0.04,VWS V14.01,2013-02-10 05:00:00,
2013-02-10 00:01:00,22.9,19.6,30.27,SSE,163,0.0,1.0,87,0.00,,,0.00,VWS V14.01,2013-02-10 05:01:00,
2013-02-10 00:02:00,22.9,19.6,30.27,SSE,163,0.0,1.0,87,0.00,,,0.00,VWS V14.01,2013-02-10 05:02:00,
2013-02-10 00:03:00,22.9,19.6,30.27,SSE,163,0.0,1.0,87,0.00,,,0.00,VWS V14.01,2013-02-10 05:03:00,
2013-02-10 00:04:00,23.0,19.7,30.27,SSE,163,2.0,2.0,87,0.00,,,0.00,VWS V14.01,2013-02-10 05:04:00,
2013-02-10 00:05:00,22.9,19.6,30.27,SSE,163,0.0,3.0,87,0.00,,,0.00,VWS V14.01,2013-02-10 05:05:00,
2013-02-10 00:06:00,22.9,19.6,30.27,SSE,163,0.0,3.0,87,0.00,,,0.00,VWS V14.01,2013-02-10 05:06:00,
2013-02-10 00:07:00,22.9,19.6,30.27,SSE,163,0.0,3.0,87,0.00,,,0.00,VWS V14.01,2013-02-10 05:07:00,
2013-02-10 00:08:00,22.9,19.6,30.27,SSE,163,1.0,3.0,87,0.00,,,0.00,VWS V14.01,2013-02-10 05:08:00,
2013-02-10 00:09:00,22.9,19.6,30.27,SSE,163,0.0,3.0,87,0.00,,,0.00,VWS V14.01,2013-02-10 05:09:00,
2013-02-10 00:10:00,22.9,19.6,30.27,SSE,163,0.0,3.0,87,0.00,,,0.00,VWS V14.01,2013-02-10 05:10:00,
2013-02-10 00:11:00,22.9,19.6,30.27,SSE,163,0.0,3.0,87,0.00,,,0.00,VWS V14.01,2013-02-10 05:11:00,
2013-02-10 00:12:00,22.9,19.6,30.27,South,188,0.0,3.0,87,0.00,,,0.00,VWS V14.01,2013-02-10 05:12:00,
2013-02-10 00:13:00,22.9,19.6,30.27,South,186,2.0,3.0,87,0.00,,,0.00,VWS V14.01,2013-02-10 05:13:00,
2013-02-10 00:14:00,22.9,19.6,30.27,South,186,0.0,3.0,87,0.00,,,0.00,VWS V14.01,2013-02-10 05:14:00,
2013-02-10 00:15:00,22.9,19.6,30.27,South,186,0.0,3.0,87,0.00,,,0.00,VWS V14.01,2013-02-10 05:15:00,
2013-02-10 00:16:00,22.9,19.6,30.26,South,186,0.0,3.0,87,0.00,,,0.00,VWS V14.01,2013-02-10 05:16:00,
2013-02-10 00:17:00,22.9,19.6,30.26,South,186,0.0,3.0,87,0.00,,,0.00,VWS V14.01,2013-02-10 05:17:00,
2013-02-10 00:18:00,22.9,19.6,30.26,South,186,0.0,3.0,87,0.00,,,0.00,VWS V14.01,2013-02-10 05:18:00,
2013-02-10 00:19:00,22.9,19.6,30.26,South,186,0.0,3.0,87,0.00,,,0.00,VWS V14.01,2013-02-10 05:19:00,
2013-02-10 00:20:00,22.9,19.6,30.26,South,186,0.0,3.0,87,0.00,,,0.00,VWS V14.01,2013-02-10 05:20:00,
2013-02-10 00:21:00,22.8,19.5,30.26,South,186,0.0,3.0,87,0.00,,,0.00,VWS V14.01,2013-02-10 05:21:00,
2013-02-10 00:22:00,22.9,19.6,30.26,South,186,1.0,3.0,87,0.00,,,0.00,VWS V14.01,2013-02-10 05:22:00,
2013-02-10 00:23:00,22.9,19.6,30.26,South,186,1.0,3.0,87,0.00,,,0.00,VWS V14.01,2013-02-10 05:23:00,
2013-02-10 00:24:00,22.9,19.6,30.26,South,187,1.0,3.0,87,0.00,,,0.00,VWS V14.01,2013-02-10 05:24:00,
2013-02-10 00:25:00,22.9,19.6,30.26,South,180,2.0,3.0,87,0.00,,,0.00,VWS V14.01,2013-02-10 05:25:00,
2013-02-10 00:26:00,22.9,19.6,30.26,South,179,0.0,3.0,87,0.00,,,0.00,VWS V14.01,2013-02-10 05:26:00,
2013-02-10 00:27:00,23.0,19.7,30.26,South,179,0.0,3.0,87,0.00,,,0.00,VWS V14.01,2013-02-10 05:27:00,
2013-02-10 00:28:00,23.0,19.7,30.26,South,180,0.0,3.0,87,0.00,,,0.00,VWS V14.01,2013-02-10 05:28:00,
2013-02-10 00:29:00,23.0,19.7,30.26,South,180,2.0,3.0,87,0.00,,,0.00,VWS V14.01,2013-02-10 05:29:00,
2013-02-10 00:30:00,23.1,19.8,30.26,South,179,0.0,3.0,87,0.00,,,0.00,VWS V14.01,2013-02-10 05:30:00,
2013-02-10 00:31:00,23.1,19.8,30.26,South,180,0.0,1.0,87,0.00,,,0.00,VWS V14.01,2013-02-10 05:31:00,
2013-02-10 00:32:00,23.1,19.8,30.26,South,180,0.0,2.0,87,0.00,,,0.00,VWS V14.01,2013-02-10 05:32:00,
2013-02-10 00:33:00,23.1,19.8,30.26,South,179,0.0,2.0,87,0.00,,,0.00,VWS V14.01,2013-02-10 05:33:00,
2013-02-10 00:34:00,23.2,19.9,30.26,South,180,0.0,2.0,87,0.00,,,0.00,VWS V14.01,2013-02-10 05:34:00,
2013-02-10 00:35:00,23.2,19.9,30.26,South,179,1.0,2.0,87,0.00,,,0.00,VWS V14.01,2013-02-10 05:35:00,
2013-02-10 00:36:00,23.2,19.9,30.26,South,179,0.0,2.0,87,0.00,,,0.00,VWS V14.01,2013-02-10 05:36:00,
2013-02-10 00:37:00,23.2,19.9,30.26,South,180,0.0,2.0,87,0.00,,,0.00,VWS V14.01,2013-02-10 05:37:00,
2013-02-10 00:38:00,23.2,19.9,30.26,South,180,0.0,2.0,87,0.00,,,0.00,VWS V14.01,2013-02-10 05:38:00,
2013-02-10 00:39:00,23.2,19.9,30.26,South,179,1.0,2.0,87,0.00,,,0.00,VWS V14.01,2013-02-10 05:39:00,
2013-02-10 00:40:00,23.1,19.8,30.26,South,180,0.0,2.0,87,0.00,,,0.00,VWS V14.01,2013-02-10 05:40:00,
2013-02-10 00:41:00,23.1,19.8,30.26,South,179,1.0,2.0,87,0.00,,,0.00,VWS V14.01,2013-02-10 05:41:00,
2013-02-10 00:42:00,23.1,19.8,30.26,South,179,0.0,2.0,87,0.00,,,0.00,VWS V14.01,2013-02-10 05:42:00,
2013-02-10 00:43:00,23.1,19.8,30.26,South,179,0.0,2.0,87,0.00,,,0.00,VWS V14.01,2013-02-10 05:43:00,
2013-02-10 00:44:00,23.1,19.8,30.26,South,179,0.0,2.0,87,0.00,,,0.00,VWS V14.01,2013-02-10 05:44:00,
2013-02-10 00:45:00,23.1,19.8,30.25,South,180,1.0,2.0,87,0.00,,,0.00,VWS V14.01,2013-02-10 05:45:00,
2013-02-10 00:46:00,23.1,19.8,30.25,South,180,0.0,2.0,87,0.00,,,0.00,VWS V14.01,2013-02-10 05:46:00,
2013-02-10 00:47:00,23.1,19.8,30.25,South,179,0.0,3.0,87,0.00,,,0.00,VWS V14.01,2013-02-10 05:47:00,
2013-02-10 00:48:00,23.1,19.8,30.25,South,179,0.0,3.0,87,0.00,,,0.00,VWS V14.01,2013-02-10 05:48:00,
2013-02-10 00:49:00,23.1,19.8,30.25,South,179,0.0,3.0,87,0.00,,,0.00,VWS V14.01,2013-02-10 05:49:00,
2013-02-10 00:50:00,23.1,19.8,30.25,South,179,0.0,3.0,87,0.00,,,0.00,VWS V14.01,2013-02-10 05:50:00,
2013-02-10 00:51:00,23.1,19.8,30.25,South,179,0.0,3.0,87,0.00,,,0.00,VWS V14.01,2013-02-10 05:51:00,
2013-02-10 00:52:00,23.1,19.8,30.25,South,179,1.0,3.0,87,0.00,,,0.00,VWS V14.01,2013-02-10 05:52:00,
2013-02-10 00:53:00,23.1,19.8,30.25,South,179,1.0,3.0,87,0.00,,,0.00,VWS V14.01,2013-02-10 05:53:00,
2013-02-10 00:54:00,23.1,19.8,30.25,South,175,1.0,3.0,87,0.00,,,0.00,VWS V14.01,2013-02-10 05:54:00,
2013-02-10 00:55:00,23.1,19.8,30.25,South,175,1.0,3.0,87,0.00,,,0.00,VWS V14.01,2013-02-10 05:55:00,
2013-02-10 00:56:00,23.1,19.8,30.25,South,175,0.0,3.0,87,0.00,,,0.00,VWS V14.01,2013-02-10 05:56:00,
2013-02-10 00:57:00,23.1,19.8,30.25,South,175,0.0,3.0,87,0.00,,,0.00,VWS V14.01,2013-02-10 05:57:00,
2013-02-10 00:58:00,23.1,19.8,30.25,South,175,0.0,3.0,87,0.00,,,0.00,VWS V14.01,2013-02-10 05:58:00,
2013-02-10 00:59:00,23.1,19.8,30.25,South,175,1.0,3.0,87,0.00,,,0.00,VWS V14.01,2013-02-10 05:59:00,
2013-02-10 01:00:00,23.1,19.8,30.25,South,175,0.0,3.0,87,0.00,,,0.00,VWS V14.01,2013-02-10 06:00:00,
2013-02-10 01:01:00,23.0,19.7,30.25,South,172,1.0,2.0,87,0.00,,,0.00,VWS V14.01,2013-02-10 06:01:00,
2013-02-10 01:02:00,23.0,19.7,30.25,South,172,0.0,2.0,87,0.00,,,0.00,VWS V14.01,2013-02-10 06:02:00,
2013-02-10 01:03:00,23.0,19.7,30.25,South,171,2.0,2.0,87,0.00,,,0.00,VWS V14.01,2013-02-10 06:03:00,
2013-02-10 01:04:00,23.0,19.7,30.25,South,171,0.0,2.0,87,0.00,,,0.00,VWS V14.01,2013-02-10 06:04:00,
2013-02-10 01:05:00,23.0,19.7,30.25,South,171,2.0,2.0,87,0.00,,,0.00,VWS V14.01,2013-02-10 06:05:00,
2013-02-10 01:06:00,23.0,19.7,30.25,South,171,0.0,2.0,87,0.00,,,0.00,VWS V14.01,2013-02-10 06:06:00,
2013-02-10 01:07:00,23.0,19.7,30.25,South,171,0.0,2.0,87,0.00,,,0.00,VWS V14.01,2013-02-10 06:07:00,
2013-02-10 01:08:00,23.0,19.7,30.25,South,171,0.0,2.0,87,0.00,,,0.00,VWS V14.01,2013-02-10 06:08:00,
2013-02-10 01:09:00,23.0,19.7,30.25,South,171,0.0,2.0,87,0.00,,,0.00,VWS V14.01,2013-02-10 06:09:00,
2013-02-10 01:10:00,23.0,19.7,30.25,South,171,0.0,2.0,87,0.00,,,0.00,VWS V14.01,2013-02-10 06:10:00,
2013-02-10 01:11:00,23.0,19.7,30.25,South,171,1.0,2.0,87,0.00,,,0.00,VWS V14.01,2013-02-10 06:11:00,
2013-02-10 01:12:00,23.0,19.7,30.25,South,171,1.0,2.0,87,0.00,,,0.00,VWS V14.01,2013-02-10 06:12:00,
2013-02-10 01:13:00,22.9,19.6,30.25,South,171,0.0,2.0,87,0.00,,,0.00,VWS V14.01,2013-02-10 06:13:00,
2013-02-10 01:14:00,22.9,19.4,30.25,South,171,2.0,2.0,86,0.00,,,0.00,VWS V14.01,2013-02-10 06:14:00,
2013-02-10 01:15:00,22.9,19.4,30.25,South,171,0.0,2.0,86,0.00,,,0.00,VWS V14.01,2013-02-10 06:15:00,
2013-02-10 01:16:00,22.9,19.4,30.25,South,171,0.0,2.0,86,0.00,,,0.00,VWS V14.01,2013-02-10 06:16:00,
2013-02-10 01:17:00,22.9,19.4,30.25,South,171,1.0,2.0,86,0.00,,,0.00,VWS V14.01,2013-02-10 06:17:00,
2013-02-10 01:18:00,22.8,19.2,30.24,South,171,0.0,2.0,86,0.00,,,0.00,VWS V14.01,2013-02-10 06:18:00,
2013-02-10 01:19:00,22.8,19.2,30.24,South,171,0.0,2.0,86,0.00,,,0.00,VWS V14.01,2013-02-10 06:19:00,
2013-02-10 01:20:00,22.8,19.2,30.24,South,171,0.0,2.0,86,0.00,,,0.00,VWS V14.01,2013-02-10 06:20:00,
2013-02-10 01:21:00,22.8,19.2,30.24,South,171,0.0,2.0,86,0.00,,,0.00,VWS V14.01,2013-02-10 06:21:00,
2013-02-10 01:22:00,22.7,19.1,30.24,South,171,1.0,2.0,86,0.00,,,0.00,VWS V14.01,2013-02-10 06:22:00,
2013-02-10 01:23:00,22.7,19.1,30.24,South,171,0.0,2.0,86,0.00,,,0.00,VWS V14.01,2013-02-10 06:23:00,
2013-02-10 01:24:00,22.7,19.1,30.24,South,171,0.0,2.0,86,0.00,,,0.00,VWS V14.01,2013-02-10 06:24:00,
2013-02-10 01:25:00,22.7,19.1,30.24,South,171,1.0,2.0,86,0.00,,,0.00,VWS V14.01,2013-02-10 06:25:00,
2013-02-10 01:26:00,22.6,19.0,30.24,South,171,1.0,2.0,86,0.00,,,0.00,VWS V14.01,2013-02-10 06:26:00,
2013-02-10 01:27:00,22.6,19.0,30.24,South,171,0.0,2.0,86,0.00,,,0.00,VWS V14.01,2013-02-10 06:27:00,
2013-02-10 01:28:00,22.7,19.1,30.24,South,171,1.0,2.0,86,0.00,,,0.00,VWS V14.01,2013-02-10 06:28:00,
2013-02-10 01:29:00,22.6,19.0,30.24,South,171,0.0,2.0,86,0.00,,,0.00,VWS V14.01,2013-02-10 06:29:00,
2013-02-10 01:30:00,22.6,19.0,30.24,South,171,0.0,2.0,86,0.00,,,0.00,VWS V14.01,2013-02-10 06:30:00,
2013-02-10 01:31:00,22.6,19.0,30.24,South,171,0.0,0.0,86,0.00,,,0.00,VWS V14.01,2013-02-10 06:31:00,
2013-02-10 01:32:00,22.6,19.0,30.24,South,171,0.0,3.0,86,0.00,,,0.00,VWS V14.01,2013-02-10 06:32:00,
2013-02-10 01:33:00,22.6,19.0,30.24,South,171,0.0,3.0,86,0.00,,,0.00,VWS V14.01,2013-02-10 06:33:00,
2013-02-10 01:34:00,22.6,19.0,30.24,South,171,0.0,3.0,86,0.00,,,0.00,VWS V14.01,2013-02-10 06:34:00,
2013-02-10 01:35:00,22.6,19.0,30.24,South,171,0.0,3.0,86,0.00,,,0.00,VWS V14.01,2013-02-10 06:35:00,
2013-02-10 01:36:00,22.5,19.2,30.24,South,171,0.0,3.0,87,0.00,,,0.00,VWS V14.01,2013-02-10 06:36:00,
2013-02-10 01:37:00,22.5,19.2,30.24,South,171,0.0,3.0,87,0.00,,,0.00,VWS V14.01,2013-02-10 06:37:00,
2013-02-10 01:38:00,22.5,19.2,30.24,South,171,0.0,3.0,87,0.00,,,0.00,VWS V14.01,2013-02-10 06:38:00,
2013-02-10 01:39:00,22.5,19.2,30.24,South,171,0.0,3.0,87,0.00,,,0.00,VWS V14.01,2013-02-10 06:39:00,
2013-02-10 01:40:00,22.4,19.1,30.24,South,171,0.0,3.0,87,0.00,,,0.00,VWS V14.01,2013-02-10 06:40:00,
2013-02-10 01:41:00,22.5,19.2,30.24,South,171,0.0,3.0,87,0.00,,,0.00,VWS V14.01,2013-02-10 06:41:00,
2013-02-10 01:42:00,22.4,19.1,30.24,South,171,0.0,3.0,87,0.00,,,0.00,VWS V14.01,2013-02-10 06:42:00,
2013-02-10 01:43:00,22.4,19.1,30.24,South,171,0.0,3.0,87,0.00,,,0.00,VWS V14.01,2013-02-10 06:43:00,
2013-02-10 01:44:00,22.4,19.1,30.24,South,171,0.0,3.0,87,0.00,,,0.00,VWS V14.01,2013-02-10 06:44:00,
2013-02-10 01:45:00,22.4,19.1,30.24,South,171,0.0,3.0,87,0.00,,,0.00,VWS V14.01,2013-02-10 06:45:00,
2013-02-10 01:46:00,22.4,19.1,30.24,South,171,0.0,3.0,87,0.00,,,0.00,VWS V14.01,2013-02-10 06:46:00,
2013-02-10 01:47:00,22.3,19.0,30.24,South,171,0.0,3.0,87,0.00,,,0.00,VWS V14.01,2013-02-10 06:47:00,
2013-02-10 01:48:00,22.3,19.0,30.24,South,171,0.0,3.0,87,0.00,,,0.00,VWS V14.01,2013-02-10 06:48:00,
2013-02-10 01:49:00,22.3,19.0,30.24,South,171,0.0,3.0,87,0.00,,,0.00,VWS V14.01,2013-02-10 06:49:00,
2013-02-10 01:50:00,22.2,18.7,30.24,South,171,0.0,3.0,86,0.00,,,0.00,VWS V14.01,2013-02-10 06:50:00,
2013-02-10 01:51:00,22.2,18.7,30.24,South,171,0.0,3.0,86,0.00,,,0.00,VWS V14.01,2013-02-10 06:51:00,
2013-02-10 01:52:00,22.2,18.9,30.24,South,171,0.0,3.0,87,0.00,,,0.00,VWS V14.01,2013-02-10 06:52:00,
2013-02-10 01:53:00,22.2,18.9,30.24,South,171,0.0,3.0,87,0.00,,,0.00,VWS V14.01,2013-02-10 06:53:00,
2013-02-10 01:54:00,22.2,18.9,30.24,South,171,0.0,3.0,87,0.00,,,0.00,VWS V14.01,2013-02-10 06:54:00,
2013-02-10 01:55:00,22.2,18.9,30.24,South,171,0.0,3.0,87,0.00,,,0.00,VWS V14.01,2013-02-10 06:55:00,
2013-02-10 01:56:00,22.2,18.9,30.24,South,171,0.0,3.0,87,0.00,,,0.00,VWS V14.01,2013-02-10 06:56:00,
2013-02-10 01:57:00,22.2,18.9,30.24,South,171,0.0,3.0,87,0.00,,,0.00,VWS V14.01,2013-02-10 06:57:00,
2013-02-10 01:58:00,22.2,18.9,30.24,South,171,0.0,3.0,87,0.00,,,0.00,VWS V14.01,2013-02-10 06:58:00,
2013-02-10 01:59:00,22.2,18.9,30.24,South,171,1.0,3.0,87,0.00,,,0.00,VWS V14.01,2013-02-10 06:59:00,
2013-02-10 02:00:00,22.2,18.9,30.24,South,171,0.0,3.0,87,0.00,,,0.00,VWS V14.01,2013-02-10 07:00:00,
2013-02-10 02:01:00,22.2,18.9,30.24,South,171,0.0,1.0,87,0.00,,,0.00,VWS V14.01,2013-02-10 07:01:00,
2013-02-10 02:02:00,22.2,18.9,30.24,South,171,0.0,1.0,87,0.00,,,0.00,VWS V14.01,2013-02-10 07:02:00,
2013-02-10 02:03:00,22.1,18.8,30.24,South,171,0.0,1.0,87,0.00,,,0.00,VWS V14.01,2013-02-10 07:03:00,
2013-02-10 02:04:00,22.1,18.8,30.24,South,171,0.0,1.0,87,0.00,,,0.00,VWS V14.01,2013-02-10 07:04:00,
2013-02-10 02:05:00,22.1,18.8,30.24,South,171,0.0,1.0,87,0.00,,,0.00,VWS V14.01,2013-02-10 07:05:00,
2013-02-10 02:06:00,22.1,18.8,30.24,South,171,0.0,2.0,87,0.00,,,0.00,VWS V14.01,2013-02-10 07:06:00,
2013-02-10 02:07:00,22.1,18.8,30.24,South,171,0.0,2.0,87,0.00,,,0.00,VWS V14.01,2013-02-10 07:07:00,
2013-02-10 02:08:00,22.0,18.7,30.24,South,171,0.0,2.0,87,0.00,,,0.00,VWS V14.01,2013-02-10 07:08:00,
2013-02-10 02:09:00,22.0,18.7,30.24,South,171,0.0,2.0,87,0.00,,,0.00,VWS V14.01,2013-02-10 07:09:00,
2013-02-10 02:10:00,22.0,18.7,30.23,South,171,0.0,2.0,87,0.00,,,0.00,VWS V14.01,2013-02-10 07:10:00,
2013-02-10 02:11:00,22.0,18.7,30.24,South,171,0.0,2.0,87,0.00,,,0.00,VWS V14.01,2013-02-10 07:11:00,
2013-02-10 02:12:00,22.0,18.7,30.23,South,171,0.0,2.0,87,0.00,,,0.00,VWS V14.01,2013-02-10 07:12:00,
2013-02-10 02:13:00,22.0,18.7,30.23,South,171,0.0,2.0,87,0.00,,,0.00,VWS V14.01,2013-02-10 07:13:00,
2013-02-10 02:14:00,22.0,18.7,30.23,South,171,0.0,2.0,87,0.00,,,0.00,VWS V14.01,2013-02-10 07:14:00,
2013-02-10 02:15:00,22.0,18.7,30.23,South,171,0.0,2.0,87,0.00,,,0.00,VWS V14.01,2013-02-10 07:15:00,
2013-02-10 02:16:00,22.0,18.7,30.23,South,171,0.0,2.0,87,0.00,,,0.00,VWS V14.01,2013-02-10 07:16:00,
2013-02-10 02:17:00,22.0,18.7,30.23,South,171,0.0,2.0,87,0.00,,,0.00,VWS V14.01,2013-02-10 07:17:00,
2013-02-10 02:18:00,22.0,18.7,30.23,South,171,0.0,2.0,87,0.00,,,0.00,VWS V14.01,2013-02-10 07:18:00,
2013-02-10 02:19:00,22.0,18.7,30.23,South,171,0.0,2.0,87,0.00,,,0.00,VWS V14.01,2013-02-10 07:19:00,
2013-02-10 02:20:00,22.0,18.7,30.23,South,171,0.0,2.0,87,0.00,,,0.00,VWS V14.01,2013-02-10 07:20:00,
2013-02-10 02:21:00,22.0,18.7,30.23,South,171,0.0,2.0,87,0.00,,,0.00,VWS V14.01,2013-02-10 07:21:00,
2013-02-10 02:22:00,22.0,18.7,30.23,South,171,1.0,2.0,87,0.00,,,0.00,VWS V14.01,2013-02-10 07:22:00,
2013-02-10 02:23:00,22.0,18.7,30.23,South,171,0.0,3.0,87,0.00,,,0.00,VWS V14.01,2013-02-10 07:23:00,
2013-02-10 02:24:00,22.1,18.8,30.23,South,171,2.0,3.0,87,0.00,,,0.00,VWS V14.01,2013-02-10 07:24:00,
2013-02-10 02:25:00,22.1,18.8,30.23,South,171,2.0,3.0,87,0.00,,,0.00,VWS V14.01,2013-02-10 07:25:00,
2013-02-10 02:26:00,22.2,18.9,30.23,South,171,0.0,3.0,87,0.00,,,0.00,VWS V14.01,2013-02-10 07:26:00,
2013-02-10 02:27:00,22.2,18.9,30.23,South,171,0.0,3.0,87,0.00,,,0.00,VWS V14.01,2013-02-10 07:27:00,
2013-02-10 02:28:00,22.2,18.9,30.23,South,171,0.0,3.0,87,0.00,,,0.00,VWS V14.01,2013-02-10 07:28:00,
2013-02-10 02:29:00,22.3,19.0,30.23,South,171,0.0,3.0,87,0.00,,,0.00,VWS V14.01,2013-02-10 07:29:00,
2013-02-10 02:30:00,22.3,19.0,30.23,South,171,1.0,3.0,87,0.00,,,0.00,VWS V14.01,2013-02-10 07:30:00,
2013-02-10 02:31:00,22.3,19.0,30.23,South,172,0.0,2.0,87,0.00,,,0.00,VWS V14.01,2013-02-10 07:31:00,
2013-02-10 02:32:00,22.4,19.1,30.23,South,172,0.0,2.0,87,0.00,,,0.00,VWS V14.01,2013-02-10 07:32:00,
2013-02-10 02:33:00,22.4,19.1,30.23,South,172,0.0,2.0,87,0.00,,,0.00,VWS V14.01,2013-02-10 07:33:00,
2013-02-10 02:34:00,22.4,19.1,30.23,South,172,0.0,2.0,87,0.00,,,0.00,VWS V14.01,2013-02-10 07:34:00,
2013-02-10 02:35:00,22.4,19.1,30.23,South,172,0.0,2.0,87,0.00,,,0.00,VWS V14.01,2013-02-10 07:35:00,
2013-02-10 02:36:00,22.4,19.1,30.23,South,172,0.0,2.0,87,0.00,,,0.00,VWS V14.01,2013-02-10 07:36:00,
2013-02-10 02:37:00,22.5,19.2,30.23,South,172,0.0,2.0,87,0.00,,,0.00,VWS V14.01,2013-02-10 07:37:00,
2013-02-10 02:38:00,22.5,19.2,30.23,South,172,0.0,2.0,87,0.00,,,0.00,VWS V14.01,2013-02-10 07:38:00,
2013-02-10 02:39:00,22.5,19.2,30.22,South,172,1.0,2.0,87,0.00,,,0.00,VWS V14.01,2013-02-10 07:39:00,
2013-02-10 02:40:00,22.5,19.2,30.22,South,172,0.0,2.0,87,0.00,,,0.00,VWS V14.01,2013-02-10 07:40:00,
2013-02-10 02:41:00,22.5,19.2,30.22,South,172,0.0,2.0,87,0.00,,,0.00,VWS V14.01,2013-02-10 07:41:00,
2013-02-10 02:42:00,22.5,19.2,30.22,South,172,0.0,2.0,87,0.00,,,0.00,VWS V14.01,2013-02-10 07:42:00,
2013-02-10 02:43:00,22.5,19.2,30.22,South,172,0.0,2.0,87,0.00,,,0.00,VWS V14.01,2013-02-10 07:43:00,
2013-02-10 02:44:00,22.5,19.2,30.22,South,172,0.0,2.0,87,0.00,,,0.00,VWS V14.01,2013-02-10 07:44:00,
2013-02-10 02:45:00,22.5,19.2,30.22,South,172,0.0,2.0,87,0.00,,,0.00,VWS V14.01,2013-02-10 07:45:00,
2013-02-10 02:46:00,22.6,19.3,30.22,South,172,0.0,2.0,87,0.00,,,0.00,VWS V14.01,2013-02-10 07:46:00,
2013-02-10 02:47:00,22.6,19.3,30.22,South,172,0.0,2.0,87,0.00,,,0.00,VWS V14.01,2013-02-10 07:47:00,
2013-02-10 02:48:00,22.6,19.3,30.23,South,172,0.0,2.0,87,0.00,,,0.00,VWS V14.01,2013-02-10 07:48:00,
2013-02-10 02:49:00,22.6,19.3,30.22,South,172,0.0,2.0,87,0.00,,,0.00,VWS V14.01,2013-02-10 07:49:00,
2013-02-10 02:50:00,22.6,19.3,30.22,South,172,0.0,2.0,87,0.00,,,0.00,VWS V14.01,2013-02-10 07:50:00,
2013-02-10 02:51:00,22.6,19.3,30.22,South,172,0.0,2.0,87,0.00,,,0.00,VWS V14.01,2013-02-10 07:51:00,
2013-02-10 02:52:00,22.6,19.3,30.22,South,172,0.0,2.0,87,0.00,,,0.00,VWS V14.01,2013-02-10 07:52:00,
2013-02-10 02:53:00,22.6,19.3,30.22,South,172,0.0,2.0,87,0.00,,,0.00,VWS V14.01,2013-02-10 07:53:00,
2013-02-10 02:54:00,22.6,19.3,30.22,South,172,0.0,2.0,87,0.00,,,0.00,VWS V14.01,2013-02-10 07:54:00,
2013-02-10 02:55:00,22.7,19.4,30.22,South,172,1.0,2.0,87,0.00,,,0.00,VWS V14.01,2013-02-10 07:55:00,
2013-02-10 02:56:00,22.7,19.4,30.22,South,172,0.0,2.0,87,0.00,,,0.00,VWS V14.01,2013-02-10 07:56:00,
2013-02-10 02:57:00,22.7,19.4,30.22,South,172,0.0,2.0,87,0.00,,,0.00,VWS V14.01,2013-02-10 07:57:00,
2013-02-10 02:58:00,22.7,19.4,30.22,South,172,0.0,2.0,87,0.00,,,0.00,VWS V14.01,2013-02-10 07:58:00,
2013-02-10 02:59:00,22.7,19.4,30.22,South,172,0.0,2.0,87,0.00,,,0.00,VWS V14.01,2013-02-10 07:59:00,
2013-02-10 03:00:00,22.7,19.4,30.22,South,172,0.0,2.0,87,0.00,,,0.00,VWS V14.01,2013-02-10 08:00:00,
2013-02-10 03:01:00,22.8,19.5,30.22,South,172,0.0,0.0,87,0.00,,,0.00,VWS V14.01,2013-02-10 08:01:00,
2013-02-10 03:02:00,22.8,19.5,30.22,South,172,0.0,0.0,87,0.00,,,0.00,VWS V14.01,2013-02-10 08:02:00,
2013-02-10 03:03:00,22.8,19.5,30.22,South,172,0.0,0.0,87,0.00,,,0.00,VWS V14.01,2013-02-10 08:03:00,
2013-02-10 03:04:00,22.7,19.4,30.22,South,172,0.0,0.0,87,0.00,,,0.00,VWS V14.01,2013-02-10 08:04:00,
2013-02-10 03:05:00,22.7,19.4,30.22,South,172,0.0,0.0,87,0.00,,,0.00,VWS V14.01,2013-02-10 08:05:00,
2013-02-10 03:06:00,22.7,19.4,30.22,South,172,0.0,0.0,87,0.00,,,0.00,VWS V14.01,2013-02-10 08:06:00,
2013-02-10 03:07:00,22.7,19.4,30.22,South,172,0.0,0.0,87,0.00,,,0.00,VWS V14.01,2013-02-10 08:07:00,
2013-02-10 03:08:00,22.7,19.4,30.22,South,172,0.0,0.0,87,0.00,,,0.00,VWS V14.01,2013-02-10 08:08:00,
2013-02-10 03:09:00,22.7,19.4,30.22,South,172,0.0,0.0,87,0.00,,,0.00,VWS V14.01,2013-02-10 08:09:00,
2013-02-10 03:10:00,22.7,19.4,30.22,South,172,0.0,0.0,87,0.00,,,0.00,VWS V14.01,2013-02-10 08:10:00,
2013-02-10 03:11:00,22.7,19.4,30.22,South,172,0.0,0.0,87,0.00,,,0.00,VWS V14.01,2013-02-10 08:11:00,
2013-02-10 03:12:00,22.8,19.5,30.22,South,172,0.0,0.0,87,0.00,,,0.00,VWS V14.01,2013-02-10 08:12:00,
2013-02-10 03:13:00,22.7,19.4,30.22,South,172,0.0,0.0,87,0.00,,,0.00,VWS V14.01,2013-02-10 08:13:00,
2013-02-10 03:14:00,22.7,19.4,30.22,South,172,0.0,0.0,87,0.00,,,0.00,VWS V14.01,2013-02-10 08:14:00,
2013-02-10 03:15:00,22.7,19.4,30.22,South,172,0.0,0.0,87,0.00,,,0.00,VWS V14.01,2013-02-10 08:15:00,
2013-02-10 03:16:00,22.8,19.5,30.22,South,172,0.0,0.0,87,0.00,,,0.00,VWS V14.01,2013-02-10 08:16:00,
2013-02-10 03:17:00,22.8,19.5,30.21,South,172,0.0,0.0,87,0.00,,,0.00,VWS V14.01,2013-02-10 08:17:00,
2013-02-10 03:18:00,22.9,19.6,30.21,South,172,0.0,0.0,87,0.00,,,0.00,VWS V14.01,2013-02-10 08:18:00,
2013-02-10 03:19:00,22.8,19.5,30.21,South,172,0.0,0.0,87,0.00,,,0.00,VWS V14.01,2013-02-10 08:19:00,
2013-02-10 03:20:00,22.9,19.6,30.21,South,172,0.0,0.0,87,0.00,,,0.00,VWS V14.01,2013-02-10 08:20:00,
2013-02-10 03:21:00,22.9,19.6,30.21,South,172,0.0,0.0,87,0.00,,,0.00,VWS V14.01,2013-02-10 08:21:00,
2013-02-10 03:22:00,22.9,19.6,30.21,South,172,0.0,0.0,87,0.00,,,0.00,VWS V14.01,2013-02-10 08:22:00,
2013-02-10 03:23:00,22.9,19.6,30.21,South,172,0.0,0.0,87,0.00,,,0.00,VWS V14.01,2013-02-10 08:23:00,
2013-02-10 03:24:00,23.0,19.7,30.21,South,172,0.0,0.0,87,0.00,,,0.00,VWS V14.01,2013-02-10 08:24:00,
2013-02-10 03:25:00,23.0,19.7,30.21,South,172,0.0,0.0,87,0.00,,,0.00,VWS V14.01,2013-02-10 08:25:00,
2013-02-10 03:26:00,23.0,19.7,30.21,South,172,0.0,0.0,87,0.00,,,0.00,VWS V14.01,2013-02-10 08:26:00,
2013-02-10 03:27:00,23.0,19.7,30.21,South,172,0.0,0.0,87,0.00,,,0.00,VWS V14.01,2013-02-10 08:27:00,
2013-02-10 03:28:00,23.0,19.7,30.21,South,172,0.0,0.0,87,0.00,,,0.00,VWS V14.01,2013-02-10 08:28:00,
2013-02-10 03:29:00,23.0,19.7,30.21,South,172,0.0,0.0,87,0.00,,,0.00,VWS V14.01,2013-02-10 08:29:00,
2013-02-10 03:30:00,23.1,19.8,30.21,South,172,0.0,0.0,87,0.00,,,0.00,VWS V14.01,2013-02-10 08:30:00,
2013-02-10 03:31:00,23.1,19.8,30.21,South,172,0.0,0.0,87,0.00,,,0.00,VWS V14.01,2013-02-10 08:31:00,
2013-02-10 03:32:00,23.1,19.8,30.21,South,172,0.0,0.0,87,0.00,,,0.00,VWS V14.01,2013-02-10 08:32:00,
2013-02-10 03:33:00,23.1,19.8,30.22,South,172,0.0,0.0,87,0.00,,,0.00,VWS V14.01,2013-02-10 08:33:00,
2013-02-10 03:34:00,23.1,19.8,30.21,South,172,0.0,0.0,87,0.00,,,0.00,VWS V14.01,2013-02-10 08:34:00,
2013-02-10 03:35:00,23.1,19.8,30.21,South,172,0.0,0.0,87,0.00,,,0.00,VWS V14.01,2013-02-10 08:35:00,
2013-02-10 03:36:00,23.1,19.8,30.21,South,172,0.0,0.0,87,0.00,,,0.00,VWS V14.01,2013-02-10 08:36:00,
2013-02-10 03:37:00,23.1,19.8,30.21,South,172,0.0,0.0,87,0.00,,,0.00,VWS V14.01,2013-02-10 08:37:00,
2013-02-10 03:38:00,23.2,19.9,30.21,South,172,0.0,0.0,87,0.00,,,0.00,VWS V14.01,2013-02-10 08:38:00,
2013-02-10 03:39:00,23.2,19.9,30.21,South,172,0.0,1.0,87,0.00,,,0.00,VWS V14.01,2013-02-10 08:39:00,
2013-02-10 03:40:00,23.2,19.9,30.21,South,172,0.0,1.0,87,0.00,,,0.00,VWS V14.01,2013-02-10 08:40:00,
2013-02-10 03:41:00,23.2,19.9,30.21,South,172,0.0,1.0,87,0.00,,,0.00,VWS V14.01,2013-02-10 08:41:00,
2013-02-10 03:42:00,23.2,19.9,30.22,South,172,0.0,1.0,87,0.00,,,0.00,VWS V14.01,2013-02-10 08:42:00,
2013-02-10 03:43:00,23.2,19.9,30.22,South,172,0.0,1.0,87,0.00,,,0.00,VWS V14.01,2013-02-10 08:43:00,
2013-02-10 03:44:00,23.2,19.9,30.22,South,172,0.0,1.0,87,0.00,,,0.00,VWS V14.01,2013-02-10 08:44:00,
2013-02-10 03:45:00,23.3,20.0,30.22,South,172,0.0,1.0,87,0.00,,,0.00,VWS V14.01,2013-02-10 08:45:00,
2013-02-10 03:46:00,23.3,20.0,30.22,South,172,0.0,1.0,87,0.00,,,0.00,VWS V14.01,2013-02-10 08:46:00,
2013-02-10 03:47:00,23.3,20.0,30.22,South,172,0.0,1.0,87,0.00,,,0.00,VWS V14.01,2013-02-10 08:47:00,
2013-02-10 03:48:00,23.3,20.0,30.22,South,172,0.0,1.0,87,0.00,,,0.00,VWS V14.01,2013-02-10 08:48:00,
2013-02-10 03:49:00,23.3,20.0,30.22,South,172,0.0,2.0,87,0.00,,,0.00,VWS V14.01,2013-02-10 08:49:00,
2013-02-10 03:50:00,23.3,20.0,30.22,South,172,0.0,2.0,87,0.00,,,0.00,VWS V14.01,2013-02-10 08:50:00,
2013-02-10 03:51:00,23.4,19.8,30.22,South,172,0.0,2.0,86,0.00,,,0.00,VWS V14.01,2013-02-10 08:51:00,
2013-02-10 03:52:00,23.4,19.8,30.22,South,172,1.0,2.0,86,0.00,,,0.00,VWS V14.01,2013-02-10 08:52:00,
2013-02-10 03:53:00,23.4,19.8,30.22,South,172,0.0,2.0,86,0.00,,,0.00,VWS V14.01,2013-02-10 08:53:00,
2013-02-10 03:54:00,23.5,19.9,30.22,South,172,0.0,2.0,86,0.00,,,0.00,VWS V14.01,2013-02-10 08:54:00,
2013-02-10 03:55:00,23.5,19.9,30.22,South,172,0.0,2.0,86,0.00,,,0.00,VWS V14.01,2013-02-10 08:55:00,
2013-02-10 03:56:00,23.5,19.9,30.22,South,172,1.0,2.0,86,0.00,,,0.00,VWS V14.01,2013-02-10 08:56:00,
2013-02-10 03:57:00,23.6,20.0,30.22,South,172,0.0,2.0,86,0.00,,,0.00,VWS V14.01,2013-02-10 08:57:00,
2013-02-10 03:58:00,23.6,20.0,30.22,South,172,0.0,2.0,86,0.00,,,0.00,VWS V14.01,2013-02-10 08:58:00,
2013-02-10 03:59:00,23.6,20.0,30.22,South,172,0.0,2.0,86,0.00,,,0.00,VWS V14.01,2013-02-10 08:59:00,
2013-02-10 04:00:00,23.7,20.1,30.21,South,172,0.0,2.0,86,0.00,,,0.00,VWS V14.01,2013-02-10 09:00:00,
2013-02-10 04:01:00,23.7,20.1,30.22,South,172,0.0,0.0,86,0.00,,,0.00,VWS V14.01,2013-02-10 09:01:00,
2013-02-10 04:02:00,23.7,20.1,30.22,South,172,0.0,0.0,86,0.00,,,0.00,VWS V14.01,2013-02-10 09:02:00,
2013-02-10 04:03:00,23.8,20.2,30.21,South,172,0.0,0.0,86,0.00,,,0.00,VWS V14.01,2013-02-10 09:03:00,
2013-02-10 04:04:00,23.8,20.2,30.21,South,172,0.0,1.0,86,0.00,,,0.00,VWS V14.01,2013-02-10 09:04:00,
2013-02-10 04:05:00,23.7,20.1,30.21,South,172,0.0,1.0,86,0.00,,,0.00,VWS V14.01,2013-02-10 09:05:00,
2013-02-10 04:06:00,23.8,20.2,30.21,South,172,0.0,1.0,86,0.00,,,0.00,VWS V14.01,2013-02-10 09:06:00,
2013-02-10 04:07:00,23.7,20.1,30.22,South,172,0.0,1.0,86,0.00,,,0.00,VWS V14.01,2013-02-10 09:07:00,
2013-02-10 04:08:00,23.7,20.1,30.22,South,172,0.0,1.0,86,0.00,,,0.00,VWS V14.01,2013-02-10 09:08:00,
2013-02-10 04:09:00,23.7,20.1,30.22,South,172,0.0,1.0,86,0.00,,,0.00,VWS V14.01,2013-02-10 09:09:00,
2013-02-10 04:10:00,23.7,20.1,30.22,South,172,0.0,1.0,86,0.00,,,0.00,VWS V14.01,2013-02-10 09:10:00,
2013-02-10 04:11:00,23.7,20.1,30.22,South,172,1.0,1.0,86,0.00,,,0.00,VWS V14.01,2013-02-10 09:11:00,
2013-02-10 04:12:00,23.6,19.8,30.22,South,172,0.0,1.0,85,0.00,,,0.00,VWS V14.01,2013-02-10 09:12:00,
2013-02-10 04:13:00,23.6,19.8,30.22,South,172,0.0,1.0,85,0.00,,,0.00,VWS V14.01,2013-02-10 09:13:00,
2013-02-10 04:14:00,23.6,19.8,30.21,South,172,0.0,1.0,85,0.00,,,0.00,VWS V14.01,2013-02-10 09:14:00,
2013-02-10 04:15:00,23.5,19.7,30.21,South,172,0.0,1.0,85,0.00,,,0.00,VWS V14.01,2013-02-10 09:15:00,
2013-02-10 04:16:00,23.5,19.7,30.21,South,172,0.0,1.0,85,0.00,,,0.00,VWS V14.01,2013-02-10 09:16:00,
2013-02-10 04:17:00,23.5,19.7,30.21,South,172,0.0,1.0,85,0.00,,,0.00,VWS V14.01,2013-02-10 09:17:00,
2013-02-10 04:18:00,23.5,19.7,30.21,South,172,1.0,2.0,85,0.00,,,0.00,VWS V14.01,2013-02-10 09:18:00,
2013-02-10 04:19:00,23.5,19.7,30.21,South,172,0.0,2.0,85,0.00,,,0.00,VWS V14.01,2013-02-10 09:19:00,
2013-02-10 04:20:00,23.5,19.7,30.21,South,172,0.0,2.0,85,0.00,,,0.00,VWS V14.01,2013-02-10 09:20:00,
2013-02-10 04:21:00,23.6,19.8,30.21,South,172,0.0,2.0,85,0.00,,,0.00,VWS V14.01,2013-02-10 09:21:00,
2013-02-10 04:22:00,23.6,19.8,30.21,South,172,0.0,2.0,85,0.00,,,0.00,VWS V14.01,2013-02-10 09:22:00,
2013-02-10 04:23:00,23.5,19.7,30.21,South,172,0.0,2.0,85,0.00,,,0.00,VWS V14.01,2013-02-10 09:23:00,
2013-02-10 04:24:00,23.6,19.8,30.21,South,172,0.0,2.0,85,0.00,,,0.00,VWS V14.01,2013-02-10 09:24:00,
2013-02-10 04:25:00,23.5,19.7,30.21,South,172,0.0,2.0,85,0.00,,,0.00,VWS V14.01,2013-02-10 09:25:00,
2013-02-10 04:26:00,23.6,19.8,30.21,South,172,0.0,2.0,85,0.00,,,0.00,VWS V14.01,2013-02-10 09:26:00,
2013-02-10 04:27:00,23.5,19.7,30.21,South,172,0.0,2.0,85,0.00,,,0.00,VWS V14.01,2013-02-10 09:27:00,
2013-02-10 04:28:00,23.6,19.8,30.21,South,172,0.0,2.0,85,0.00,,,0.00,VWS V14.01,2013-02-10 09:28:00,
2013-02-10 04:29:00,23.5,19.7,30.21,South,172,0.0,2.0,85,0.00,,,0.00,VWS V14.01,2013-02-10 09:29:00,
2013-02-10 04:30:00,23.5,19.7,30.21,South,172,0.0,2.0,85,0.00,,,0.00,VWS V14.01,2013-02-10 09:30:00,
2013-02-10 04:31:00,23.5,19.7,30.21,South,172,0.0,0.0,85,0.00,,,0.00,VWS V14.01,2013-02-10 09:31:00,
2013-02-10 04:32:00,23.5,19.7,30.21,South,172,0.0,1.0,85,0.00,,,0.00,VWS V14.01,2013-02-10 09:32:00,
2013-02-10 04:33:00,23.6,19.8,30.21,South,172,0.0,1.0,85,0.00,,,0.00,VWS V14.01,2013-02-10 09:33:00,
2013-02-10 04:34:00,23.5,19.7,30.21,South,172,0.0,1.0,85,0.00,,,0.00,VWS V14.01,2013-02-10 09:34:00,
2013-02-10 04:35:00,23.5,19.7,30.21,South,172,0.0,1.0,85,0.00,,,0.00,VWS V14.01,2013-02-10 09:35:00,
2013-02-10 04:36:00,23.5,19.7,30.21,South,172,0.0,1.0,85,0.00,,,0.00,VWS V14.01,2013-02-10 09:36:00,
2013-02-10 04:37:00,23.5,19.7,30.21,South,172,0.0,1.0,85,0.00,,,0.00,VWS V14.01,2013-02-10 09:37:00,
2013-02-10 04:38:00,23.5,19.7,30.21,South,172,0.0,1.0,85,0.00,,,0.00,VWS V14.01,2013-02-10 09:38:00,
2013-02-10 04:39:00,23.5,19.7,30.21,South,172,0.0,1.0,85,0.00,,,0.00,VWS V14.01,2013-02-10 09:39:00,
2013-02-10 04:40:00,23.5,19.7,30.21,South,172,0.0,1.0,85,0.00,,,0.00,VWS V14.01,2013-02-10 09:40:00,
2013-02-10 04:41:00,23.5,19.7,30.21,South,172,0.0,1.0,85,0.00,,,0.00,VWS V14.01,2013-02-10 09:41:00,
2013-02-10 04:42:00,23.5,19.7,30.21,South,172,0.0,2.0,85,0.00,,,0.00,VWS V14.01,2013-02-10 09:42:00,
2013-02-10 04:43:00,23.5,19.7,30.21,South,172,0.0,2.0,85,0.00,,,0.00,VWS V14.01,2013-02-10 09:43:00,
2013-02-10 04:44:00,23.5,19.7,30.21,South,172,0.0,2.0,85,0.00,,,0.00,VWS V14.01,2013-02-10 09:44:00,
2013-02-10 04:45:00,23.5,19.7,30.21,SSE,153,2.0,3.0,85,0.00,,,0.00,VWS V14.01,2013-02-10 09:45:00,
2013-02-10 04:46:00,23.5,19.7,30.21,SSE,150,0.0,3.0,85,0.00,,,0.00,VWS V14.01,2013-02-10 09:46:00,
2013-02-10 04:47:00,23.6,19.8,30.21,SSE,151,0.0,3.0,85,0.00,,,0.00,VWS V14.01,2013-02-10 09:47:00,
2013-02-10 04:48:00,23.6,19.8,30.21,SSE,150,0.0,3.0,85,0.00,,,0.00,VWS V14.01,2013-02-10 09:48:00,
2013-02-10 04:49:00,23.6,19.8,30.21,SSE,151,0.0,3.0,85,0.00,,,0.00,VWS V14.01,2013-02-10 09:49:00,
2013-02-10 04:50:00,23.6,19.8,30.21,SSE,151,0.0,3.0,85,0.00,,,0.00,VWS V14.01,2013-02-10 09:50:00,
2013-02-10 04:51:00,23.7,19.9,30.21,SSE,151,0.0,3.0,85,0.00,,,0.00,VWS V14.01,2013-02-10 09:51:00,
2013-02-10 04:52:00,23.7,19.9,30.21,SSE,151,0.0,3.0,85,0.00,,,0.00,VWS V14.01,2013-02-10 09:52:00,
2013-02-10 04:53:00,23.7,21.7,30.21,SSE,150,0.0,3.0,92,0.00,,,0.00,VWS V14.01,2013-02-10 09:53:00,
2013-02-10 04:54:00,23.7,19.9,30.21,SSE,151,0.0,3.0,85,0.00,,,0.00,VWS V14.01,2013-02-10 09:54:00,
2013-02-10 04:55:00,23.7,21.7,30.21,SSE,151,0.0,3.0,92,0.00,,,0.00,VWS V14.01,2013-02-10 09:55:00,
2013-02-10 04:56:00,23.7,19.9,30.21,SSE,151,0.0,3.0,85,0.00,,,0.00,VWS V14.01,2013-02-10 09:56:00,
2013-02-10 04:57:00,23.8,20.0,30.21,SSE,150,0.0,3.0,85,0.00,,,0.00,VWS V14.01,2013-02-10 09:57:00,
2013-02-10 04:58:00,23.8,20.0,30.21,SSE,151,1.0,3.0,85,0.00,,,0.00,VWS V14.01,2013-02-10 09:58:00,
2013-02-10 04:59:00,23.8,20.0,30.22,SSE,151,0.0,3.0,85,0.00,,,0.00,VWS V14.01,2013-02-10 09:59:00,
2013-02-10 05:00:00,23.8,20.0,30.22,SSE,151,0.0,3.0,85,0.00,,,0.00,VWS V14.01,2013-02-10 10:00:00,
2013-02-10 05:01:00,23.8,20.0,30.21,SSE,151,1.0,1.0,85,0.00,,,0.00,VWS V14.01,2013-02-10 10:01:00,
2013-02-10 05:02:00,23.9,20.1,30.22,SSE,151,1.0,2.0,85,0.00,,,0.00,VWS V14.01,2013-02-10 10:02:00,
2013-02-10 05:03:00,23.9,20.1,30.21,SSE,151,0.0,2.0,85,0.00,,,0.00,VWS V14.01,2013-02-10 10:03:00,
2013-02-10 05:04:00,23.9,20.1,30.21,SSE,151,0.0,2.0,85,0.00,,,0.00,VWS V14.01,2013-02-10 10:04:00,
2013-02-10 05:05:00,23.9,20.1,30.21,SSE,151,0.0,2.0,85,0.00,,,0.00,VWS V14.01,2013-02-10 10:05:00,
2013-02-10 05:06:00,23.9,19.8,30.21,SSE,150,0.0,2.0,84,0.00,,,0.00,VWS V14.01,2013-02-10 10:06:00,
2013-02-10 05:07:00,23.9,19.8,30.21,SSE,151,2.0,2.0,84,0.00,,,0.00,VWS V14.01,2013-02-10 10:07:00,
2013-02-10 05:08:00,23.9,19.8,30.22,SSE,151,0.0,2.0,84,0.00,,,0.00,VWS V14.01,2013-02-10 10:08:00,
2013-02-10 05:09:00,23.9,19.8,30.21,SSE,151,0.0,2.0,84,0.00,,,0.00,VWS V14.01,2013-02-10 10:09:00,
2013-02-10 05:10:00,23.9,19.8,30.21,SSE,151,0.0,2.0,84,0.00,,,0.00,VWS V14.01,2013-02-10 10:10:00,
2013-02-10 05:11:00,23.9,19.8,30.21,SSE,150,0.0,2.0,84,0.00,,,0.00,VWS V14.01,2013-02-10 10:11:00,
2013-02-10 05:12:00,23.9,19.8,30.21,SSE,150,0.0,2.0,84,0.00,,,0.00,VWS V14.01,2013-02-10 10:12:00,
2013-02-10 05:13:00,23.9,20.1,30.21,SSE,150,0.0,2.0,85,0.00,,,0.00,VWS V14.01,2013-02-10 10:13:00,
2013-02-10 05:14:00,23.9,20.1,30.22,SSE,155,1.0,2.0,85,0.00,,,0.00,VWS V14.01,2013-02-10 10:14:00,
2013-02-10 05:15:00,23.9,19.8,30.22,SSE,155,0.0,2.0,84,0.00,,,0.00,VWS V14.01,2013-02-10 10:15:00,
2013-02-10 05:16:00,23.9,19.8,30.22,SSE,155,1.0,2.0,84,0.00,,,0.00,VWS V14.01,2013-02-10 10:16:00,
2013-02-10 05:17:00,23.9,19.8,30.22,SSE,155,0.0,2.0,84,0.00,,,0.00,VWS V14.01,2013-02-10 10:17:00,
2013-02-10 05:18:00,23.9,19.8,30.21,SSE,155,0.0,2.0,84,0.00,,,0.00,VWS V14.01,2013-02-10 10:18:00,
2013-02-10 05:19:00,23.9,19.8,30.21,SSE,155,0.0,2.0,84,0.00,,,0.00,VWS V14.01,2013-02-10 10:19:00,
2013-02-10 05:20:00,23.9,19.8,30.21,SSE,155,0.0,2.0,84,0.00,,,0.00,VWS V14.01,2013-02-10 10:20:00,
2013-02-10 05:21:00,23.9,19.8,30.21,SSE,155,0.0,2.0,84,0.00,,,0.00,VWS V14.01,2013-02-10 10:21:00,
2013-02-10 05:22:00,23.9,19.8,30.22,SSE,155,1.0,2.0,84,0.00,,,0.00,VWS V14.01,2013-02-10 10:22:00,
2013-02-10 05:23:00,23.9,19.8,30.22,SSE,155,0.0,2.0,84,0.00,,,0.00,VWS V14.01,2013-02-10 10:23:00,
2013-02-10 05:24:00,23.9,19.8,30.22,SSE,155,0.0,2.0,84,0.00,,,0.00,VWS V14.01,2013-02-10 10:24:00,
2013-02-10 05:25:00,23.9,19.8,30.22,SSE,155,1.0,2.0,84,0.00,,,0.00,VWS V14.01,2013-02-10 10:25:00,
2013-02-10 05:26:00,23.8,19.7,30.22,SSE,164,0.0,3.0,84,0.00,,,0.00,VWS V14.01,2013-02-10 10:26:00,
2013-02-10 05:27:00,23.8,19.7,30.22,SSE,164,0.0,3.0,84,0.00,,,0.00,VWS V14.01,2013-02-10 10:27:00,
2013-02-10 05:28:00,23.8,19.7,30.22,SSE,164,0.0,3.0,84,0.00,,,0.00,VWS V14.01,2013-02-10 10:28:00,
2013-02-10 05:29:00,23.8,19.7,30.22,SSE,164,0.0,3.0,84,0.00,,,0.00,VWS V14.01,2013-02-10 10:29:00,
2013-02-10 05:30:00,23.8,19.7,30.22,SSE,164,1.0,3.0,84,0.00,,,0.00,VWS V14.01,2013-02-10 10:30:00,
2013-02-10 05:31:00,23.8,19.7,30.23,SSE,164,2.0,2.0,84,0.00,,,0.00,VWS V14.01,2013-02-10 10:31:00,
2013-02-10 05:32:00,23.7,19.6,30.23,SSE,164,0.0,2.0,84,0.00,,,0.00,VWS V14.01,2013-02-10 10:32:00,
2013-02-10 05:33:00,23.7,19.6,30.22,SSE,164,0.0,2.0,84,0.00,,,0.00,VWS V14.01,2013-02-10 10:33:00,
2013-02-10 05:34:00,23.7,19.6,30.22,SSE,164,0.0,2.0,84,0.00,,,0.00,VWS V14.01,2013-02-10 10:34:00,
2013-02-10 05:35:00,23.7,19.6,30.23,SSE,164,0.0,2.0,84,0.00,,,0.00,VWS V14.01,2013-02-10 10:35:00,
2013-02-10 05:36:00,23.6,19.5,30.22,SSE,164,0.0,2.0,84,0.00,,,0.00,VWS V14.01,2013-02-10 10:36:00,
2013-02-10 05:37:00,23.6,19.5,30.23,SSE,164,0.0,2.0,84,0.00,,,0.00,VWS V14.01,2013-02-10 10:37:00,
2013-02-10 05:38:00,23.6,19.5,30.23,SSE,164,0.0,2.0,84,0.00,,,0.00,VWS V14.01,2013-02-10 10:38:00,
2013-02-10 05:39:00,23.6,19.5,30.23,SSE,164,0.0,2.0,84,0.00,,,0.00,VWS V14.01,2013-02-10 10:39:00,
2013-02-10 05:40:00,23.5,19.4,30.23,SSE,164,0.0,2.0,84,0.00,,,0.00,VWS V14.01,2013-02-10 10:40:00,
2013-02-10 05:41:00,23.5,19.4,30.22,SSE,164,0.0,2.0,84,0.00,,,0.00,VWS V14.01,2013-02-10 10:41:00,
2013-02-10 05:42:00,23.5,19.4,30.22,SSE,164,0.0,2.0,84,0.00,,,0.00,VWS V14.01,2013-02-10 10:42:00,
2013-02-10 05:43:00,23.5,19.4,30.22,SSE,164,0.0,2.0,84,0.00,,,0.00,VWS V14.01,2013-02-10 10:43:00,
2013-02-10 05:44:00,23.5,19.4,30.22,SSE,164,0.0,2.0,84,0.00,,,0.00,VWS V14.01,2013-02-10 10:44:00,
2013-02-10 05:45:00,23.4,19.3,30.22,SSE,164,0.0,2.0,84,0.00,,,0.00,VWS V14.01,2013-02-10 10:45:00,
2013-02-10 05:46:00,23.4,19.3,30.22,SSE,164,1.0,2.0,84,0.00,,,0.00,VWS V14.01,2013-02-10 10:46:00,
2013-02-10 05:47:00,23.4,19.3,30.22,South,169,0.0,3.0,84,0.00,,,0.00,VWS V14.01,2013-02-10 10:47:00,
2013-02-10 05:48:00,23.5,19.4,30.22,South,169,0.0,3.0,84,0.00,,,0.00,VWS V14.01,2013-02-10 10:48:00,
2013-02-10 05:49:00,23.5,19.4,30.22,South,169,0.0,3.0,84,0.00,,,0.00,VWS V14.01,2013-02-10 10:49:00,
2013-02-10 05:50:00,23.5,19.4,30.21,South,169,0.0,3.0,84,0.00,,,0.00,VWS V14.01,2013-02-10 10:50:00,
2013-02-10 05:51:00,23.5,19.4,30.22,South,169,0.0,3.0,84,0.00,,,0.00,VWS V14.01,2013-02-10 10:51:00,
2013-02-10 05:52:00,23.6,19.5,30.21,South,169,0.0,3.0,84,0.00,,,0.00,VWS V14.01,2013-02-10 10:52:00,
2013-02-10 05:53:00,23.6,19.5,30.21,South,169,0.0,3.0,84,0.00,,,0.00,VWS V14.01,2013-02-10 10:53:00,
2013-02-10 05:54:00,23.6,19.5,30.21,South,169,0.0,3.0,84,0.00,,,0.00,VWS V14.01,2013-02-10 10:54:00,
2013-02-10 05:55:00,23.6,19.5,30.21,South,169,0.0,3.0,84,0.00,,,0.00,VWS V14.01,2013-02-10 10:55:00,
2013-02-10 05:56:00,23.6,19.5,30.21,South,169,0.0,3.0,84,0.00,,,0.00,VWS V14.01,2013-02-10 10:56:00,
2013-02-10 05:57:00,23.6,19.5,30.21,South,169,0.0,3.0,84,0.00,,,0.00,VWS V14.01,2013-02-10 10:57:00,
2013-02-10 05:58:00,23.6,19.5,30.21,South,169,1.0,3.0,84,0.00,,,0.00,VWS V14.01,2013-02-10 10:58:00,
2013-02-10 05:59:00,23.6,19.5,30.21,South,169,0.0,3.0,84,0.00,,,0.00,VWS V14.01,2013-02-10 10:59:00,
2013-02-10 06:00:00,23.6,19.5,30.21,South,169,0.0,3.0,84,0.00,,,0.00,VWS V14.01,2013-02-10 11:00:00,
2013-02-10 06:01:00,23.6,19.5,30.21,South,169,0.0,1.0,84,0.00,,,0.00,VWS V14.01,2013-02-10 11:01:00,
2013-02-10 06:02:00,23.7,19.6,30.22,South,169,0.0,1.0,84,0.00,,,0.00,VWS V14.01,2013-02-10 11:02:00,
2013-02-10 06:03:00,23.7,19.6,30.22,South,169,1.0,1.0,84,0.00,,,0.00,VWS V14.01,2013-02-10 11:03:00,
2013-02-10 06:04:00,23.7,19.6,30.22,South,169,0.0,2.0,84,0.00,,,0.00,VWS V14.01,2013-02-10 11:04:00,
2013-02-10 06:05:00,23.7,19.6,30.22,South,169,0.0,2.0,84,0.00,,,0.00,VWS V14.01,2013-02-10 11:05:00,
2013-02-10 06:06:00,23.7,19.6,30.22,South,169,0.0,2.0,84,0.00,,,0.00,VWS V14.01,2013-02-10 11:06:00,
2013-02-10 06:07:00,23.7,19.6,30.22,South,169,0.0,2.0,84,0.00,,,0.00,VWS V14.01,2013-02-10 11:07:00,
2013-02-10 06:08:00,23.7,19.6,30.22,South,169,0.0,2.0,84,0.00,,,0.00,VWS V14.01,2013-02-10 11:08:00,
2013-02-10 06:09:00,23.6,19.5,30.22,South,169,0.0,2.0,84,0.00,,,0.00,VWS V14.01,2013-02-10 11:09:00,
2013-02-10 06:10:00,23.7,19.6,30.22,South,169,0.0,2.0,84,0.00,,,0.00,VWS V14.01,2013-02-10 11:10:00,
2013-02-10 06:11:00,23.6,19.5,30.22,South,169,0.0,2.0,84,0.00,,,0.00,VWS V14.01,2013-02-10 11:11:00,
2013-02-10 06:12:00,23.6,19.5,30.22,South,169,0.0,2.0,84,0.00,,,0.00,VWS V14.01,2013-02-10 11:12:00,
2013-02-10 06:13:00,23.6,19.5,30.22,South,169,0.0,2.0,84,0.00,,,0.00,VWS V14.01,2013-02-10 11:13:00,
2013-02-10 06:14:00,23.6,19.5,30.22,South,169,0.0,2.0,84,0.00,,,0.00,VWS V14.01,2013-02-10 11:14:00,
2013-02-10 06:15:00,23.5,19.4,30.22,South,169,0.0,2.0,84,0.00,,,0.00,VWS V14.01,2013-02-10 11:15:00,
2013-02-10 06:16:00,23.5,19.4,30.22,South,169,0.0,2.0,84,0.00,,,0.00,VWS V14.01,2013-02-10 11:16:00,
2013-02-10 06:17:00,23.5,19.4,30.22,South,169,0.0,2.0,84,0.00,,,0.00,VWS V14.01,2013-02-10 11:17:00,
2013-02-10 06:18:00,23.4,19.3,30.22,South,169,0.0,2.0,84,0.00,,,0.00,VWS V14.01,2013-02-10 11:18:00,
2013-02-10 06:19:00,23.4,19.3,30.21,South,169,0.0,2.0,84,0.00,,,0.00,VWS V14.01,2013-02-10 11:19:00,
2013-02-10 06:20:00,23.4,19.3,30.22,South,169,0.0,2.0,84,0.00,,,0.00,VWS V14.01,2013-02-10 11:20:00,
2013-02-10 06:21:00,23.3,19.2,30.22,South,169,0.0,2.0,84,0.00,,,0.00,VWS V14.01,2013-02-10 11:21:00,
2013-02-10 06:22:00,23.3,19.2,30.21,South,169,0.0,2.0,84,0.00,,,0.00,VWS V14.01,2013-02-10 11:22:00,
2013-02-10 06:23:00,23.3,19.2,30.22,South,169,0.0,2.0,84,0.00,,,0.00,VWS V14.01,2013-02-10 11:23:00,
2013-02-10 06:24:00,23.2,19.1,30.22,South,169,0.0,2.0,84,0.00,,,0.00,VWS V14.01,2013-02-10 11:24:00,
2013-02-10 06:25:00,23.1,19.0,30.21,South,169,0.0,2.0,84,0.00,,,0.00,VWS V14.01,2013-02-10 11:25:00,
2013-02-10 06:26:00,23.1,19.0,30.21,South,169,0.0,2.0,84,0.00,,,0.00,VWS V14.01,2013-02-10 11:26:00,
2013-02-10 06:27:00,23.1,19.0,30.21,South,169,0.0,2.0,84,0.00,,,0.00,VWS V14.01,2013-02-10 11:27:00,
2013-02-10 06:28:00,23.0,18.9,30.21,South,169,0.0,2.0,84,0.00,,,0.00,VWS V14.01,2013-02-10 11:28:00,
2013-02-10 06:29:00,23.0,18.9,30.21,South,169,0.0,2.0,84,0.00,,,0.00,VWS V14.01,2013-02-10 11:29:00,
2013-02-10 06:30:00,22.9,18.8,30.21,South,169,0.0,2.0,84,0.00,,,0.00,VWS V14.01,2013-02-10 11:30:00,
2013-02-10 06:31:00,22.9,18.8,30.21,South,169,0.0,0.0,84,0.00,,,0.00,VWS V14.01,2013-02-10 11:31:00,
2013-02-10 06:32:00,22.9,18.8,30.21,South,169,0.0,0.0,84,0.00,,,0.00,VWS V14.01,2013-02-10 11:32:00,
2013-02-10 06:33:00,22.8,18.7,30.21,South,169,0.0,0.0,84,0.00,,,0.00,VWS V14.01,2013-02-10 11:33:00,
2013-02-10 06:34:00,22.8,18.7,30.22,South,169,0.0,0.0,84,0.00,,,0.00,VWS V14.01,2013-02-10 11:34:00,
2013-02-10 06:35:00,22.7,18.6,30.21,South,169,0.0,0.0,84,0.00,,,0.00,VWS V14.01,2013-02-10 11:35:00,
2013-02-10 06:36:00,22.6,18.5,30.22,South,169,0.0,0.0,84,0.00,,,0.00,VWS V14.01,2013-02-10 11:36:00,
2013-02-10 06:37:00,22.6,18.5,30.22,South,169,0.0,0.0,84,0.00,,,0.00,VWS V14.01,2013-02-10 11:37:00,
2013-02-10 06:38:00,22.6,18.5,30.22,South,169,0.0,0.0,84,0.00,,,0.00,VWS V14.01,2013-02-10 11:38:00,
2013-02-10 06:39:00,22.5,18.4,30.21,South,169,0.0,0.0,84,0.00,,,0.00,VWS V14.01,2013-02-10 11:39:00,
2013-02-10 06:40:00,22.5,18.4,30.21,South,169,0.0,0.0,84,0.00,,,0.00,VWS V14.01,2013-02-10 11:40:00,
2013-02-10 06:41:00,22.5,18.4,30.21,South,169,0.0,0.0,84,0.00,,,0.00,VWS V14.01,2013-02-10 11:41:00,
2013-02-10 06:42:00,22.5,18.4,30.21,South,169,0.0,0.0,84,0.00,,,0.00,VWS V14.01,2013-02-10 11:42:00,
2013-02-10 06:43:00,22.5,18.4,30.21,South,169,0.0,2.0,84,0.00,,,0.00,VWS V14.01,2013-02-10 11:43:00,
2013-02-10 06:44:00,22.6,18.5,30.21,South,169,0.0,2.0,84,0.00,,,0.00,VWS V14.01,2013-02-10 11:44:00,
2013-02-10 06:45:00,22.6,18.5,30.21,South,169,0.0,2.0,84,0.00,,,0.00,VWS V14.01,2013-02-10 11:45:00,
2013-02-10 06:46:00,22.7,18.6,30.21,South,169,0.0,2.0,84,0.00,,,0.00,VWS V14.01,2013-02-10 11:46:00,
2013-02-10 06:47:00,22.7,18.6,30.21,South,169,0.0,2.0,84,0.00,,,0.00,VWS V14.01,2013-02-10 11:47:00,
2013-02-10 06:48:00,22.7,18.6,30.21,South,169,0.0,2.0,84,0.00,,,0.00,VWS V14.01,2013-02-10 11:48:00,
2013-02-10 06:49:00,22.7,18.9,30.21,South,169,0.0,2.0,85,0.00,,,0.00,VWS V14.01,2013-02-10 11:49:00,
2013-02-10 06:50:00,22.8,19.0,30.21,South,169,0.0,2.0,85,0.00,,,0.00,VWS V14.01,2013-02-10 11:50:00,
2013-02-10 06:51:00,22.8,19.0,30.21,South,169,0.0,2.0,85,0.00,,,0.00,VWS V14.01,2013-02-10 11:51:00,
2013-02-10 06:52:00,22.9,19.1,30.21,South,169,0.0,2.0,85,0.00,,,0.00,VWS V14.01,2013-02-10 11:52:00,
2013-02-10 06:53:00,22.8,19.0,30.20,South,169,0.0,2.0,85,0.00,,,0.00,VWS V14.01,2013-02-10 11:53:00,
2013-02-10 06:54:00,22.8,18.7,30.20,South,169,0.0,2.0,84,0.00,,,0.00,VWS V14.01,2013-02-10 11:54:00,
2013-02-10 06:55:00,22.7,18.6,30.20,South,169,0.0,2.0,84,0.00,,,0.00,VWS V14.01,2013-02-10 11:55:00,
2013-02-10 06:56:00,22.7,18.6,30.20,South,169,0.0,2.0,84,0.00,,,0.00,VWS V14.01,2013-02-10 11:56:00,
2013-02-10 06:57:00,22.7,18.6,30.20,South,169,0.0,2.0,84,0.00,,,0.00,VWS V14.01,2013-02-10 11:57:00,
2013-02-10 06:58:00,22.6,18.5,30.20,South,169,0.0,2.0,84,0.00,,,0.00,VWS V14.01,2013-02-10 11:58:00,
2013-02-10 06:59:00,22.6,18.5,30.20,South,169,0.0,2.0,84,0.00,,,0.00,VWS V14.01,2013-02-10 11:59:00,
2013-02-10 07:00:00,22.5,18.4,30.20,South,169,0.0,2.0,84,0.00,,,0.00,VWS V14.01,2013-02-10 12:00:00,
2013-02-10 07:01:00,22.5,18.4,30.20,South,169,0.0,0.0,84,0.00,,,0.00,VWS V14.01,2013-02-10 12:01:00,
2013-02-10 07:02:00,22.6,18.5,30.20,South,169,0.0,0.0,84,0.00,,,0.00,VWS V14.01,2013-02-10 12:02:00,
2013-02-10 07:03:00,22.6,18.5,30.20,South,169,0.0,0.0,84,0.00,,,0.00,VWS V14.01,2013-02-10 12:03:00,
2013-02-10 07:04:00,22.7,18.6,30.20,South,169,0.0,0.0,84,0.00,,,0.00,VWS V14.01,2013-02-10 12:04:00,
2013-02-10 07:05:00,22.7,18.6,30.20,South,169,0.0,0.0,84,0.00,,,0.00,VWS V14.01,2013-02-10 12:05:00,
2013-02-10 07:06:00,22.7,18.6,30.20,South,169,0.0,0.0,84,0.00,,,0.00,VWS V14.01,2013-02-10 12:06:00,
2013-02-10 07:07:00,22.7,18.6,30.19,South,169,0.0,0.0,84,0.00,,,0.00,VWS V14.01,2013-02-10 12:07:00,
2013-02-10 07:08:00,22.7,18.6,30.20,South,169,0.0,0.0,84,0.00,,,0.00,VWS V14.01,2013-02-10 12:08:00,
2013-02-10 07:09:00,22.7,18.6,30.19,South,169,0.0,0.0,84,0.00,,,0.00,VWS V14.01,2013-02-10 12:09:00,
2013-02-10 07:10:00,22.7,18.6,30.19,South,169,0.0,0.0,84,0.00,,,0.00,VWS V14.01,2013-02-10 12:10:00,
2013-02-10 07:11:00,22.7,18.6,30.19,South,169,0.0,0.0,84,0.00,,,0.00,VWS V14.01,2013-02-10 12:11:00,
2013-02-10 07:12:00,22.7,18.6,30.19,South,169,0.0,0.0,84,0.00,,,0.00,VWS V14.01,2013-02-10 12:12:00,
2013-02-10 07:13:00,22.6,18.5,30.19,South,169,0.0,0.0,84,0.00,,,0.00,VWS V14.01,2013-02-10 12:13:00,
2013-02-10 07:14:00,22.7,18.6,30.19,South,169,0.0,0.0,84,0.00,,,0.00,VWS V14.01,2013-02-10 12:14:00,
2013-02-10 07:15:00,22.7,18.6,30.19,South,169,0.0,0.0,84,0.00,,,0.00,VWS V14.01,2013-02-10 12:15:00,
2013-02-10 07:16:00,22.6,18.5,30.19,South,169,0.0,0.0,84,0.00,,,0.00,VWS V14.01,2013-02-10 12:16:00,
2013-02-10 07:17:00,22.6,18.5,30.18,South,169,0.0,0.0,84,0.00,,,0.00,VWS V14.01,2013-02-10 12:17:00,
2013-02-10 07:18:00,22.6,18.5,30.18,South,169,0.0,0.0,84,0.00,,,0.00,VWS V14.01,2013-02-10 12:18:00,
2013-02-10 07:19:00,22.6,18.5,30.18,South,169,0.0,0.0,84,0.00,,,0.00,VWS V14.01,2013-02-10 12:19:00,
2013-02-10 07:20:00,22.7,18.6,30.18,South,169,0.0,0.0,84,0.00,,,0.00,VWS V14.01,2013-02-10 12:20:00,
2013-02-10 07:21:00,22.7,18.9,30.18,South,169,0.0,0.0,85,0.00,,,0.00,VWS V14.01,2013-02-10 12:21:00,
2013-02-10 07:22:00,22.7,18.9,30.17,South,169,0.0,0.0,85,0.00,,,0.00,VWS V14.01,2013-02-10 12:22:00,
2013-02-10 07:23:00,22.8,19.0,30.17,South,169,0.0,0.0,85,0.00,,,0.00,VWS V14.01,2013-02-10 12:23:00,
2013-02-10 07:24:00,22.8,19.0,30.17,South,169,0.0,0.0,85,0.00,,,0.00,VWS V14.01,2013-02-10 12:24:00,
2013-02-10 07:25:00,22.8,19.0,30.17,South,169,0.0,0.0,85,0.00,,,0.00,VWS V14.01,2013-02-10 12:25:00,
2013-02-10 07:26:00,22.8,19.0,30.17,South,169,0.0,0.0,85,0.00,,,0.00,VWS V14.01,2013-02-10 12:26:00,
2013-02-10 07:27:00,22.8,19.0,30.17,South,169,0.0,0.0,85,0.00,,,0.00,VWS V14.01,2013-02-10 12:27:00,
2013-02-10 07:28:00,22.8,19.0,30.17,South,169,0.0,0.0,85,0.00,,,0.00,VWS V14.01,2013-02-10 12:28:00,
2013-02-10 07:29:00,22.8,19.0,30.17,South,169,0.0,0.0,85,0.00,,,0.00,VWS V14.01,2013-02-10 12:29:00,
2013-02-10 07:30:00,22.7,18.9,30.17,South,169,0.0,0.0,85,0.00,,,0.00,VWS V14.01,2013-02-10 12:30:00,
2013-02-10 07:31:00,22.7,18.9,30.17,South,169,0.0,0.0,85,0.00,,,0.00,VWS V14.01,2013-02-10 12:31:00,
2013-02-10 07:32:00,22.7,18.9,30.17,South,169,0.0,0.0,85,0.00,,,0.00,VWS V14.01,2013-02-10 12:32:00,
2013-02-10 07:33:00,22.7,18.9,30.17,South,169,0.0,0.0,85,0.00,,,0.00,VWS V14.01,2013-02-10 12:33:00,
2013-02-10 07:34:00,22.7,18.9,30.17,South,169,0.0,0.0,85,0.00,,,0.00,VWS V14.01,2013-02-10 12:34:00,
2013-02-10 07:35:00,22.7,18.9,30.16,South,169,0.0,0.0,85,0.00,,,0.00,VWS V14.01,2013-02-10 12:35:00,
2013-02-10 07:36:00,22.7,18.9,30.16,South,169,0.0,0.0,85,0.00,,,0.00,VWS V14.01,2013-02-10 12:36:00,
2013-02-10 07:37:00,22.7,18.9,30.16,South,169,0.0,0.0,85,0.00,,,0.00,VWS V14.01,2013-02-10 12:37:00,
2013-02-10 07:38:00,22.7,18.9,30.17,South,169,0.0,0.0,85,0.00,,,0.00,VWS V14.01,2013-02-10 12:38:00,
2013-02-10 07:39:00,22.7,18.9,30.17,South,169,0.0,0.0,85,0.00,,,0.00,VWS V14.01,2013-02-10 12:39:00,
2013-02-10 07:40:00,22.7,18.9,30.17,South,169,0.0,0.0,85,0.00,,,0.00,VWS V14.01,2013-02-10 12:40:00,
2013-02-10 07:41:00,22.8,19.0,30.17,South,169,0.0,0.0,85,0.00,,,0.00,VWS V14.01,2013-02-10 12:41:00,
2013-02-10 07:42:00,22.9,19.1,30.17,South,169,0.0,0.0,85,0.00,,,0.00,VWS V14.01,2013-02-10 12:42:00,
2013-02-10 07:43:00,23.0,19.2,30.17,South,169,0.0,0.0,85,0.00,,,0.00,VWS V14.01,2013-02-10 12:43:00,
2013-02-10 07:44:00,23.1,19.3,30.17,South,169,0.0,0.0,85,0.00,,,0.00,VWS V14.01,2013-02-10 12:44:00,
2013-02-10 07:45:00,23.2,19.4,30.17,South,169,0.0,0.0,85,0.00,,,0.00,VWS V14.01,2013-02-10 12:45:00,
2013-02-10 07:46:00,23.3,19.5,30.17,South,169,0.0,0.0,85,0.00,,,0.00,VWS V14.01,2013-02-10 12:46:00,
2013-02-10 07:47:00,23.4,19.6,30.17,South,169,0.0,0.0,85,0.00,,,0.00,VWS V14.01,2013-02-10 12:47:00,
2013-02-10 07:48:00,23.5,19.7,30.17,South,169,0.0,0.0,85,0.00,,,0.00,VWS V14.01,2013-02-10 12:48:00,
2013-02-10 07:49:00,23.5,19.7,30.16,South,169,0.0,0.0,85,0.00,,,0.00,VWS V14.01,2013-02-10 12:49:00,
2013-02-10 07:50:00,23.6,19.8,30.16,South,169,0.0,0.0,85,0.00,,,0.00,VWS V14.01,2013-02-10 12:50:00,
2013-02-10 07:51:00,23.7,19.9,30.16,South,169,0.0,0.0,85,0.00,,,0.00,VWS V14.01,2013-02-10 12:51:00,
2013-02-10 07:52:00,23.8,20.0,30.15,South,169,0.0,0.0,85,0.00,,,0.00,VWS V14.01,2013-02-10 12:52:00,
2013-02-10 07:53:00,23.8,20.0,30.15,South,169,0.0,0.0,85,0.00,,,0.00,VWS V14.01,2013-02-10 12:53:00,
2013-02-10 07:54:00,23.9,20.1,30.15,South,169,0.0,0.0,85,0.00,,,0.00,VWS V14.01,2013-02-10 12:54:00,
2013-02-10 07:55:00,23.9,20.1,30.15,South,169,0.0,0.0,85,0.00,,,0.00,VWS V14.01,2013-02-10 12:55:00,
2013-02-10 07:56:00,23.9,20.1,30.15,South,169,0.0,0.0,85,0.00,,,0.00,VWS V14.01,2013-02-10 12:56:00,
2013-02-10 07:57:00,24.0,20.1,30.16,South,169,0.0,1.0,85,0.00,,,0.00,VWS V14.01,2013-02-10 12:57:00,
2013-02-10 07:58:00,24.0,20.1,30.16,South,169,0.0,1.0,85,0.00,,,0.00,VWS V14.01,2013-02-10 12:58:00,
2013-02-10 07:59:00,24.1,20.2,30.16,South,169,0.0,1.0,85,0.00,,,0.00,VWS V14.01,2013-02-10 12:59:00,
2013-02-10 08:00:00,24.2,20.4,30.15,South,169,0.0,1.0,85,0.00,,,0.00,VWS V14.01,2013-02-10 13:00:00,
2013-02-10 08:01:00,24.2,20.4,30.15,South,169,0.0,0.0,85,0.00,,,0.00,VWS V14.01,2013-02-10 13:01:00,
2013-02-10 08:02:00,24.2,20.4,30.16,South,169,2.0,2.0,85,0.00,,,0.00,VWS V14.01,2013-02-10 13:02:00,
2013-02-10 08:03:00,24.3,20.5,30.16,South,169,1.0,2.0,85,0.00,,,0.00,VWS V14.01,2013-02-10 13:03:00,
2013-02-10 08:04:00,24.4,20.5,30.16,South,169,1.0,2.0,85,0.00,,,0.00,VWS V14.01,2013-02-10 13:04:00,
2013-02-10 08:05:00,24.5,22.5,30.17,South,169,0.0,2.0,92,0.00,,,0.00,VWS V14.01,2013-02-10 13:05:00,
2013-02-10 08:06:00,24.5,20.6,30.17,South,169,1.0,2.0,85,0.00,,,0.00,VWS V14.01,2013-02-10 13:06:00,
2013-02-10 08:07:00,24.6,20.7,30.16,South,169,0.0,2.0,85,0.00,,,0.00,VWS V14.01,2013-02-10 13:07:00,
2013-02-10 08:08:00,24.7,20.8,30.16,South,169,0.0,2.0,85,0.00,,,0.00,VWS V14.01,2013-02-10 13:08:00,
2013-02-10 08:09:00,24.7,20.6,30.16,South,169,0.0,2.0,84,0.00,,,0.00,VWS V14.01,2013-02-10 13:09:00,
2013-02-10 08:10:00,24.7,20.8,30.15,South,169,0.0,2.0,85,0.00,,,0.00,VWS V14.01,2013-02-10 13:10:00,
2013-02-10 08:11:00,24.8,20.9,30.15,South,169,0.0,2.0,85,0.00,,,0.00,VWS V14.01,2013-02-10 13:11:00,
2013-02-10 08:12:00,24.8,20.7,30.15,South,169,0.0,2.0,84,0.00,,,0.00,VWS V14.01,2013-02-10 13:12:00,
2013-02-10 08:13:00,24.8,20.7,30.15,South,169,0.0,2.0,84,0.00,,,0.00,VWS V14.01,2013-02-10 13:13:00,
2013-02-10 08:14:00,24.9,20.8,30.15,South,169,0.0,2.0,84,0.00,,,0.00,VWS V14.01,2013-02-10 13:14:00,
2013-02-10 08:15:00,24.9,20.8,30.15,South,169,1.0,2.0,84,0.00,,,0.00,VWS V14.01,2013-02-10 13:15:00,
2013-02-10 08:16:00,25.0,20.9,30.15,South,169,2.0,2.0,84,0.00,,,0.00,VWS V14.01,2013-02-10 13:16:00,
2013-02-10 08:17:00,25.0,20.9,30.15,South,169,0.0,2.0,84,0.00,,,0.00,VWS V14.01,2013-02-10 13:17:00,
2013-02-10 08:18:00,25.1,21.0,30.15,South,169,0.0,2.0,84,0.00,,,0.00,VWS V14.01,2013-02-10 13:18:00,
2013-02-10 08:19:00,25.1,21.0,30.15,South,169,0.0,2.0,84,0.00,,,0.00,VWS V14.01,2013-02-10 13:19:00,
2013-02-10 08:20:00,25.1,21.0,30.15,South,169,0.0,2.0,84,0.00,,,0.00,VWS V14.01,2013-02-10 13:20:00,
2013-02-10 08:21:00,25.1,21.0,30.15,South,169,0.0,2.0,84,0.00,,,0.00,VWS V14.01,2013-02-10 13:21:00,
2013-02-10 08:22:00,25.2,21.0,30.15,South,169,0.0,2.0,84,0.00,,,0.00,VWS V14.01,2013-02-10 13:22:00,
2013-02-10 08:23:00,25.2,21.0,30.15,South,169,0.0,2.0,84,0.00,,,0.00,VWS V14.01,2013-02-10 13:23:00,
2013-02-10 08:24:00,25.3,21.1,30.15,South,169,1.0,2.0,84,0.00,,,0.00,VWS V14.01,2013-02-10 13:24:00,
2013-02-10 08:25:00,25.3,21.1,30.14,South,169,0.0,2.0,84,0.00,,,0.00,VWS V14.01,2013-02-10 13:25:00,
2013-02-10 08:26:00,25.4,21.2,30.14,South,169,0.0,2.0,84,0.00,,,0.00,VWS V14.01,2013-02-10 13:26:00,
2013-02-10 08:27:00,25.4,21.2,30.14,South,169,0.0,2.0,84,0.00,,,0.00,VWS V14.01,2013-02-10 13:27:00,
2013-02-10 08:28:00,25.4,21.2,30.14,South,169,0.0,2.0,84,0.00,,,0.00,VWS V14.01,2013-02-10 13:28:00,
2013-02-10 08:29:00,25.5,21.4,30.14,South,169,0.0,2.0,84,0.00,,,0.00,VWS V14.01,2013-02-10 13:29:00,
2013-02-10 08:30:00,25.6,21.5,30.14,South,169,0.0,2.0,84,0.00,,,0.00,VWS V14.01,2013-02-10 13:30:00,
2013-02-10 08:31:00,25.6,21.5,30.14,South,173,3.0,3.0,84,0.00,,,0.00,VWS V14.01,2013-02-10 13:31:00,
2013-02-10 08:32:00,25.6,21.5,30.14,SW,223,2.0,3.0,84,0.00,,,0.00,VWS V14.01,2013-02-10 13:32:00,
2013-02-10 08:33:00,25.7,21.3,30.14,SW,221,0.0,3.0,83,0.00,,,0.00,VWS V14.01,2013-02-10 13:33:00,
2013-02-10 08:34:00,25.7,21.3,30.14,SW,221,0.0,3.0,83,0.00,,,0.00,VWS V14.01,2013-02-10 13:34:00,
2013-02-10 08:35:00,25.8,21.4,30.14,SW,221,0.0,3.0,83,0.00,,,0.00,VWS V14.01,2013-02-10 13:35:00,
2013-02-10 08:36:00,25.8,21.4,30.14,SW,221,0.0,3.0,83,0.00,,,0.00,VWS V14.01,2013-02-10 13:36:00,
2013-02-10 08:37:00,25.9,21.5,30.14,SW,221,0.0,3.0,83,0.00,,,0.00,VWS V14.01,2013-02-10 13:37:00,
2013-02-10 08:38:00,25.9,21.5,30.13,SW,221,0.0,3.0,83,0.00,,,0.00,VWS V14.01,2013-02-10 13:38:00,
2013-02-10 08:39:00,26.0,21.6,30.13,SW,221,0.0,3.0,83,0.00,,,0.00,VWS V14.01,2013-02-10 13:39:00,
2013-02-10 08:40:00,26.0,21.6,30.12,SW,221,0.0,3.0,83,0.00,,,0.00,VWS V14.01,2013-02-10 13:40:00,
2013-02-10 08:41:00,26.1,21.6,30.12,SW,221,0.0,3.0,83,0.00,,,0.00,VWS V14.01,2013-02-10 13:41:00,
2013-02-10 08:42:00,26.2,21.8,30.12,SW,215,1.0,3.0,83,0.00,,,0.00,VWS V14.01,2013-02-10 13:42:00,
2013-02-10 08:43:00,26.2,21.8,30.13,SE,146,1.0,3.0,83,0.00,,,0.00,VWS V14.01,2013-02-10 13:43:00,
2013-02-10 08:44:00,26.3,21.9,30.13,SSE,161,0.0,3.0,83,0.00,,,0.00,VWS V14.01,2013-02-10 13:44:00,
2013-02-10 08:45:00,26.3,21.9,30.13,SSE,160,0.0,3.0,83,0.00,,,0.00,VWS V14.01,2013-02-10 13:45:00,
2013-02-10 08:46:00,26.4,22.0,30.13,SSE,160,0.0,3.0,83,0.00,,,0.00,VWS V14.01,2013-02-10 13:46:00,
2013-02-10 08:47:00,26.5,21.8,30.13,SSE,156,1.0,3.0,82,0.00,,,0.00,VWS V14.01,2013-02-10 13:47:00,
2013-02-10 08:48:00,26.5,21.8,30.13,SSE,157,0.0,3.0,82,0.00,,,0.00,VWS V14.01,2013-02-10 13:48:00,
2013-02-10 08:49:00,26.6,21.9,30.14,SSE,157,1.0,3.0,82,0.00,,,0.00,VWS V14.01,2013-02-10 13:49:00,
2013-02-10 08:50:00,26.7,22.0,30.14,South,171,2.0,3.0,82,0.00,,,0.00,VWS V14.01,2013-02-10 13:50:00,
2013-02-10 08:51:00,26.7,22.0,30.14,South,171,2.0,3.0,82,0.00,,,0.00,VWS V14.01,2013-02-10 13:51:00,
2013-02-10 08:52:00,26.7,22.0,30.14,SSE,151,0.0,3.0,82,0.00,,,0.00,VWS V14.01,2013-02-10 13:52:00,
2013-02-10 08:53:00,26.8,22.0,30.14,SSE,151,0.0,3.0,82,0.00,,,0.00,VWS V14.01,2013-02-10 13:53:00,
2013-02-10 08:54:00,26.9,22.1,30.14,South,175,3.0,3.0,82,0.00,,,0.00,VWS V14.01,2013-02-10 13:54:00,
2013-02-10 08:55:00,26.9,22.1,30.15,SSE,167,1.0,4.0,82,0.00,,,0.00,VWS V14.01,2013-02-10 13:55:00,
2013-02-10 08:56:00,27.0,22.2,30.15,South,170,3.0,4.0,82,0.00,,,0.00,VWS V14.01,2013-02-10 13:56:00,
2013-02-10 08:57:00,27.0,22.2,30.15,SSE,161,1.0,4.0,82,0.00,,,0.00,VWS V14.01,2013-02-10 13:57:00,
2013-02-10 08:58:00,27.0,22.2,30.15,SSE,160,0.0,4.0,82,0.00,,,0.00,VWS V14.01,2013-02-10 13:58:00,
2013-02-10 08:59:00,27.0,22.2,30.15,SSE,160,0.0,4.0,82,0.00,,,0.00,VWS V14.01,2013-02-10 13:59:00,
2013-02-10 09:00:00,27.1,22.1,30.15,SSE,160,0.0,4.0,81,0.00,,,0.00,VWS V14.01,2013-02-10 14:00:00,
2013-02-10 09:01:00,27.1,22.1,30.15,SSE,160,2.0,2.0,81,0.00,,,0.00,VWS V14.01,2013-02-10 14:01:00,
2013-02-10 09:02:00,27.2,22.1,30.15,SSE,159,1.0,2.0,81,0.00,,,0.00,VWS V14.01,2013-02-10 14:02:00,
2013-02-10 09:03:00,27.2,22.1,30.15,SSE,159,1.0,2.0,81,0.00,,,0.00,VWS V14.01,2013-02-10 14:03:00,
2013-02-10 09:04:00,27.2,22.1,30.15,SSE,159,2.0,2.0,81,0.00,,,0.00,VWS V14.01,2013-02-10 14:04:00,
2013-02-10 09:05:00,27.3,22.2,30.15,SSE,159,0.0,3.0,81,0.00,,,0.00,VWS V14.01,2013-02-10 14:05:00,
2013-02-10 09:06:00,27.3,22.2,30.15,SSE,159,0.0,3.0,81,0.00,,,0.00,VWS V14.01,2013-02-10 14:06:00,
2013-02-10 09:07:00,27.4,22.4,30.15,SSE,159,1.0,3.0,81,0.00,,,0.00,VWS V14.01,2013-02-10 14:07:00,
2013-02-10 09:08:00,27.4,22.4,30.15,SSE,159,1.0,3.0,81,0.00,,,0.00,VWS V14.01,2013-02-10 14:08:00,
2013-02-10 09:09:00,27.4,22.4,30.15,SSE,159,0.0,3.0,81,0.00,,,0.00,VWS V14.01,2013-02-10 14:09:00,
2013-02-10 09:10:00,27.4,22.4,30.15,SSE,159,2.0,3.0,81,0.00,,,0.00,VWS V14.01,2013-02-10 14:10:00,
2013-02-10 09:11:00,27.5,22.1,30.15,SSE,159,0.0,3.0,80,0.00,,,0.00,VWS V14.01,2013-02-10 14:11:00,
2013-02-10 09:12:00,27.5,22.5,30.15,SSE,159,1.0,3.0,81,0.00,,,0.00,VWS V14.01,2013-02-10 14:12:00,
2013-02-10 09:13:00,27.5,22.5,30.15,SSE,159,0.0,3.0,81,0.00,,,0.00,VWS V14.01,2013-02-10 14:13:00,
2013-02-10 09:14:00,27.6,22.5,30.15,SSE,159,0.0,3.0,81,0.00,,,0.00,VWS V14.01,2013-02-10 14:14:00,
2013-02-10 09:15:00,27.6,22.5,30.14,SSE,159,0.0,3.0,81,0.00,,,0.00,VWS V14.01,2013-02-10 14:15:00,
2013-02-10 09:16:00,27.7,22.4,30.14,SSE,159,0.0,3.0,80,0.00,,,0.00,VWS V14.01,2013-02-10 14:16:00,
2013-02-10 09:17:00,27.7,22.4,30.14,SSE,159,0.0,3.0,80,0.00,,,0.00,VWS V14.01,2013-02-10 14:17:00,
2013-02-10 09:18:00,27.8,22.4,30.14,SSE,159,2.0,3.0,80,0.00,,,0.00,VWS V14.01,2013-02-10 14:18:00,
2013-02-10 09:19:00,27.8,22.4,30.14,SSE,159,0.0,3.0,80,0.00,,,0.00,VWS V14.01,2013-02-10 14:19:00,
2013-02-10 09:20:00,27.9,22.5,30.14,SSE,159,0.0,3.0,80,0.00,,,0.00,VWS V14.01,2013-02-10 14:20:00,
2013-02-10 09:21:00,27.9,22.5,30.14,SSE,159,0.0,3.0,80,0.00,,,0.00,VWS V14.01,2013-02-10 14:21:00,
2013-02-10 09:22:00,27.9,22.5,30.14,SSE,159,2.0,4.0,80,0.00,,,0.00,VWS V14.01,2013-02-10 14:22:00,
2013-02-10 09:23:00,28.0,22.6,30.14,SSE,162,0.0,4.0,80,0.00,,,0.00,VWS V14.01,2013-02-10 14:23:00,
2013-02-10 09:24:00,28.0,22.6,30.14,SSE,162,2.0,4.0,80,0.00,,,0.00,VWS V14.01,2013-02-10 14:24:00,
2013-02-10 09:25:00,28.0,22.6,30.14,SSE,162,0.0,4.0,80,0.00,,,0.00,VWS V14.01,2013-02-10 14:25:00,
2013-02-10 09:26:00,28.1,22.4,30.14,SSE,162,2.0,4.0,79,0.00,,,0.00,VWS V14.01,2013-02-10 14:26:00,
2013-02-10 09:27:00,28.1,22.4,30.14,SSE,161,2.0,4.0,79,0.00,,,0.00,VWS V14.01,2013-02-10 14:27:00,
2013-02-10 09:28:00,28.2,22.5,30.14,SSE,162,0.0,4.0,79,0.00,,,0.00,VWS V14.01,2013-02-10 14:28:00,
2013-02-10 09:29:00,28.3,22.6,30.14,SE,144,0.0,4.0,79,0.00,,,0.00,VWS V14.01,2013-02-10 14:29:00,
2013-02-10 09:30:00,28.3,22.6,30.14,SSE,152,3.0,4.0,79,0.00,,,0.00,VWS V14.01,2013-02-10 14:30:00,
2013-02-10 09:31:00,28.3,22.6,30.14,SSE,152,0.0,3.0,79,0.00,,,0.00,VWS V14.01,2013-02-10 14:31:00,
2013-02-10 09:32:00,28.4,22.7,30.14,SSE,152,2.0,3.0,79,0.00,,,0.00,VWS V14.01,2013-02-10 14:32:00,
2013-02-10 09:33:00,28.5,22.8,30.14,SSE,152,0.0,3.0,79,0.00,,,0.00,VWS V14.01,2013-02-10 14:33:00,
2013-02-10 09:34:00,28.5,22.8,30.14,SSE,153,2.0,3.0,79,0.00,,,0.00,VWS V14.01,2013-02-10 14:34:00,
2013-02-10 09:35:00,28.5,22.8,30.14,SSE,160,0.0,3.0,79,0.00,,,0.00,VWS V14.01,2013-02-10 14:35:00,
2013-02-10 09:36:00,28.5,22.8,30.14,SSE,157,2.0,3.0,79,0.00,,,0.00,VWS V14.01,2013-02-10 14:36:00,
2013-02-10 09:37:00,28.5,22.8,30.14,SSE,157,0.0,3.0,79,0.00,,,0.00,VWS V14.01,2013-02-10 14:37:00,
2013-02-10 09:38:00,28.6,22.9,30.14,SE,133,0.0,3.0,79,0.00,,,0.00,VWS V14.01,2013-02-10 14:38:00,
2013-02-10 09:39:00,28.7,23.0,30.14,SSE,148,1.0,3.0,79,0.00,,,0.00,VWS V14.01,2013-02-10 14:39:00,
2013-02-10 09:40:00,28.7,22.7,30.14,SSE,148,4.0,4.0,78,0.00,,,0.00,VWS V14.01,2013-02-10 14:40:00,
2013-02-10 09:41:00,28.8,22.8,30.14,SSE,148,1.0,4.0,78,0.00,,,0.00,VWS V14.01,2013-02-10 14:41:00,
2013-02-10 09:42:00,28.9,22.9,30.14,SSE,150,0.0,4.0,78,0.00,,,0.00,VWS V14.01,2013-02-10 14:42:00,
2013-02-10 09:43:00,28.9,22.9,30.14,SSE,149,0.0,4.0,78,0.00,,,0.00,VWS V14.01,2013-02-10 14:43:00,
2013-02-10 09:44:00,28.9,22.9,30.14,SSE,149,0.0,4.0,78,0.00,,,0.00,VWS V14.01,2013-02-10 14:44:00,
2013-02-10 09:45:00,29.0,23.0,30.14,SSE,149,0.0,4.0,78,0.00,,,0.00,VWS V14.01,2013-02-10 14:45:00,
2013-02-10 09:46:00,29.0,23.0,30.14,SSE,167,2.0,4.0,78,0.00,,,0.00,VWS V14.01,2013-02-10 14:46:00,
2013-02-10 09:47:00,29.1,23.1,30.14,SSE,159,0.0,4.0,78,0.00,,,0.00,VWS V14.01,2013-02-10 14:47:00,
2013-02-10 09:48:00,29.1,22.8,30.13,SSE,159,0.0,4.0,77,0.00,,,0.00,VWS V14.01,2013-02-10 14:48:00,
2013-02-10 09:49:00,29.2,22.9,30.13,SSE,159,0.0,4.0,77,0.00,,,0.00,VWS V14.01,2013-02-10 14:49:00,
2013-02-10 09:50:00,29.2,22.9,30.13,SSE,159,0.0,4.0,77,0.00,,,0.00,VWS V14.01,2013-02-10 14:50:00,
2013-02-10 09:51:00,29.3,23.0,30.13,SSE,159,0.0,4.0,77,0.00,,,0.00,VWS V14.01,2013-02-10 14:51:00,
2013-02-10 09:52:00,29.3,23.0,30.13,SSE,159,0.0,4.0,77,0.00,,,0.00,VWS V14.01,2013-02-10 14:52:00,
2013-02-10 09:53:00,29.3,23.0,30.13,SSE,159,0.0,4.0,77,0.00,,,0.00,VWS V14.01,2013-02-10 14:53:00,
2013-02-10 09:54:00,29.4,23.1,30.13,SSE,159,0.0,4.0,77,0.00,,,0.00,VWS V14.01,2013-02-10 14:54:00,
2013-02-10 09:55:00,29.4,23.1,30.13,SE,141,1.0,4.0,77,0.00,,,0.00,VWS V14.01,2013-02-10 14:55:00,
2013-02-10 09:56:00,29.4,23.1,30.13,SSE,155,2.0,4.0,77,0.00,,,0.00,VWS V14.01,2013-02-10 14:56:00,
2013-02-10 09:57:00,29.5,23.2,30.13,SSE,155,0.0,4.0,77,0.00,,,0.00,VWS V14.01,2013-02-10 14:57:00,
2013-02-10 09:58:00,29.5,23.2,30.13,SSE,155,0.0,4.0,77,0.00,,,0.00,VWS V14.01,2013-02-10 14:58:00,
2013-02-10 09:59:00,29.5,23.2,30.13,SSE,155,0.0,4.0,77,0.00,,,0.00,VWS V14.01,2013-02-10 14:59:00,
2013-02-10 10:00:00,29.5,23.2,30.13,SSE,155,0.0,4.0,77,0.00,,,0.00,VWS V14.01,2013-02-10 15:00:00,
2013-02-10 10:01:00,29.6,23.3,30.13,SSE,151,2.0,3.0,77,0.00,,,0.00,VWS V14.01,2013-02-10 15:01:00,
2013-02-10 10:02:00,29.6,23.3,30.13,SSE,165,2.0,3.0,77,0.00,,,0.00,VWS V14.01,2013-02-10 15:02:00,
2013-02-10 10:03:00,29.6,23.3,30.13,SSE,164,0.0,3.0,77,0.00,,,0.00,VWS V14.01,2013-02-10 15:03:00,
2013-02-10 10:04:00,29.7,23.4,30.13,SSE,165,0.0,3.0,77,0.00,,,0.00,VWS V14.01,2013-02-10 15:04:00,
2013-02-10 10:05:00,29.7,23.4,30.13,SSE,165,0.0,3.0,77,0.00,,,0.00,VWS V14.01,2013-02-10 15:05:00,
2013-02-10 10:06:00,29.7,23.4,30.13,SSE,165,0.0,3.0,77,0.00,,,0.00,VWS V14.01,2013-02-10 15:06:00,
2013-02-10 10:07:00,29.8,23.5,30.13,SSE,166,2.0,3.0,77,0.00,,,0.00,VWS V14.01,2013-02-10 15:07:00,
2013-02-10 10:08:00,29.8,23.5,30.13,SSE,164,0.0,3.0,77,0.00,,,0.00,VWS V14.01,2013-02-10 15:08:00,
2013-02-10 10:09:00,29.9,23.6,30.14,SSE,164,1.0,3.0,77,0.00,,,0.00,VWS V14.01,2013-02-10 15:09:00,
2013-02-10 10:10:00,29.9,23.6,30.14,SSE,164,1.0,3.0,77,0.00,,,0.00,VWS V14.01,2013-02-10 15:10:00,
2013-02-10 10:11:00,29.9,23.6,30.14,SSE,164,1.0,3.0,77,0.00,,,0.00,VWS V14.01,2013-02-10 15:11:00,
2013-02-10 10:12:00,30.0,23.7,30.14,SSE,160,0.0,3.0,77,0.00,,,0.00,VWS V14.01,2013-02-10 15:12:00,
2013-02-10 10:13:00,30.0,23.7,30.13,SSE,160,1.0,3.0,77,0.00,,,0.00,VWS V14.01,2013-02-10 15:13:00,
2013-02-10 10:14:00,30.1,23.8,30.13,SSE,160,0.0,3.0,77,0.00,,,0.00,VWS V14.01,2013-02-10 15:14:00,
2013-02-10 10:15:00,30.1,23.8,30.13,SSE,160,1.0,3.0,77,0.00,,,0.00,VWS V14.01,2013-02-10 15:15:00,
2013-02-10 10:16:00,30.2,23.9,30.13,SSE,160,0.0,3.0,77,0.00,,,0.00,VWS V14.01,2013-02-10 15:16:00,
2013-02-10 10:17:00,30.2,23.9,30.13,SSE,160,0.0,3.0,77,0.00,,,0.00,VWS V14.01,2013-02-10 15:17:00,
2013-02-10 10:18:00,30.3,24.0,30.13,SSE,160,1.0,3.0,77,0.00,,,0.00,VWS V14.01,2013-02-10 15:18:00,
2013-02-10 10:19:00,30.3,23.7,30.13,SSE,160,1.0,3.0,76,0.00,,,0.00,VWS V14.01,2013-02-10 15:19:00,
2013-02-10 10:20:00,30.3,23.7,30.13,SSE,160,0.0,3.0,76,0.00,,,0.00,VWS V14.01,2013-02-10 15:20:00,
2013-02-10 10:21:00,30.4,23.8,30.13,SSE,160,0.0,3.0,76,0.00,,,0.00,VWS V14.01,2013-02-10 15:21:00,
2013-02-10 10:22:00,30.4,23.8,30.13,SSE,160,0.0,3.0,76,0.00,,,0.00,VWS V14.01,2013-02-10 15:22:00,
2013-02-10 10:23:00,30.5,23.9,30.13,SSE,160,1.0,3.0,76,0.00,,,0.00,VWS V14.01,2013-02-10 15:23:00,
2013-02-10 10:24:00,30.6,24.0,30.12,SSE,160,0.0,3.0,76,0.00,,,0.00,VWS V14.01,2013-02-10 15:24:00,
2013-02-10 10:25:00,30.6,24.0,30.12,SSE,160,0.0,3.0,76,0.00,,,0.00,VWS V14.01,2013-02-10 15:25:00,
2013-02-10 10:26:00,30.7,24.0,30.13,SSE,160,3.0,3.0,76,0.00,,,0.00,VWS V14.01,2013-02-10 15:26:00,
2013-02-10 10:27:00,30.7,24.0,30.12,SSE,160,2.0,3.0,76,0.00,,,0.00,VWS V14.01,2013-02-10 15:27:00,
2013-02-10 10:28:00,30.8,24.1,30.12,SSE,167,0.0,3.0,76,0.00,,,0.00,VWS V14.01,2013-02-10 15:28:00,
2013-02-10 10:29:00,30.8,24.1,30.12,SSE,167,0.0,3.0,76,0.00,,,0.00,VWS V14.01,2013-02-10 15:29:00,
2013-02-10 10:30:00,30.8,24.1,30.12,SSE,167,0.0,3.0,76,0.00,,,0.00,VWS V14.01,2013-02-10 15:30:00,
2013-02-10 10:31:00,30.9,24.2,30.12,SSE,167,0.0,3.0,76,0.00,,,0.00,VWS V14.01,2013-02-10 15:31:00,
2013-02-10 10:32:00,31.0,24.3,30.12,SSE,167,1.0,3.0,76,0.00,,,0.00,VWS V14.01,2013-02-10 15:32:00,
2013-02-10 10:33:00,31.1,24.4,30.12,SE,145,0.0,3.0,76,0.00,,,0.00,VWS V14.01,2013-02-10 15:33:00,
2013-02-10 10:34:00,31.1,24.4,30.12,SE,145,1.0,3.0,76,0.00,,,0.00,VWS V14.01,2013-02-10 15:34:00,
2013-02-10 10:35:00,31.3,24.6,30.12,SE,145,1.0,3.0,76,0.00,,,0.00,VWS V14.01,2013-02-10 15:35:00,
2013-02-10 10:36:00,31.3,24.6,30.11,SSE,164,5.0,5.0,76,0.00,,,0.00,VWS V14.01,2013-02-10 15:36:00,
2013-02-10 10:37:00,31.4,24.4,30.11,SSE,165,1.0,5.0,75,0.00,,,0.00,VWS V14.01,2013-02-10 15:37:00,
2013-02-10 10:38:00,31.4,24.4,30.11,SSE,161,0.0,5.0,75,0.00,,,0.00,VWS V14.01,2013-02-10 15:38:00,
2013-02-10 10:39:00,31.5,24.5,30.11,SSE,161,1.0,5.0,75,0.00,,,0.00,VWS V14.01,2013-02-10 15:39:00,
2013-02-10 10:40:00,31.5,24.5,30.11,SSE,160,0.0,5.0,75,0.00,,,0.00,VWS V14.01,2013-02-10 15:40:00,
2013-02-10 10:41:00,31.6,24.6,30.11,SSE,155,1.0,5.0,75,0.00,,,0.00,VWS V14.01,2013-02-10 15:41:00,
2013-02-10 10:42:00,31.7,24.7,30.11,SE,146,1.0,5.0,75,0.00,,,0.00,VWS V14.01,2013-02-10 15:42:00,
2013-02-10 10:43:00,31.8,24.8,30.11,SSE,150,0.0,5.0,75,0.00,,,0.00,VWS V14.01,2013-02-10 15:43:00,
2013-02-10 10:44:00,31.8,24.8,30.11,SSE,154,2.0,5.0,75,0.00,,,0.00,VWS V14.01,2013-02-10 15:44:00,
2013-02-10 10:45:00,31.9,24.9,30.12,SE,145,2.0,5.0,75,0.00,,,0.00,VWS V14.01,2013-02-10 15:45:00,
2013-02-10 10:46:00,32.0,25.0,30.12,ESE,122,2.0,5.0,75,0.00,,,0.00,VWS V14.01,2013-02-10 15:46:00,
2013-02-10 10:47:00,32.1,24.8,30.12,South,176,4.0,5.0,74,0.00,,,0.00,VWS V14.01,2013-02-10 15:47:00,
2013-02-10 10:48:00,32.2,24.9,30.12,SSE,163,3.0,5.0,74,0.00,,,0.00,VWS V14.01,2013-02-10 15:48:00,
2013-02-10 10:49:00,32.2,24.9,30.12,SSE,159,4.0,5.0,74,0.00,,,0.00,VWS V14.01,2013-02-10 15:49:00,
2013-02-10 10:50:00,32.3,25.0,30.12,South,171,0.0,5.0,74,0.00,,,0.00,VWS V14.01,2013-02-10 15:50:00,
2013-02-10 10:51:00,32.3,25.0,30.12,SSE,147,2.0,6.0,74,0.00,,,0.00,VWS V14.01,2013-02-10 15:51:00,
2013-02-10 10:52:00,32.4,24.7,30.12,SSE,151,3.0,6.0,73,0.00,,,0.00,VWS V14.01,2013-02-10 15:52:00,
2013-02-10 10:53:00,32.4,24.7,30.12,SSE,151,1.0,6.0,73,0.00,,,0.00,VWS V14.01,2013-02-10 15:53:00,
2013-02-10 10:54:00,32.5,25.1,30.12,SE,142,1.0,6.0,74,0.00,,,0.00,VWS V14.01,2013-02-10 15:54:00,
2013-02-10 10:55:00,32.5,24.8,30.11,SSE,148,3.0,6.0,73,0.00,,,0.00,VWS V14.01,2013-02-10 15:55:00,
2013-02-10 10:56:00,32.6,25.2,30.11,SSE,163,2.0,6.0,74,0.00,,,0.00,VWS V14.01,2013-02-10 15:56:00,
2013-02-10 10:57:00,32.6,25.2,30.11,SSW,194,1.0,6.0,74,0.00,,,0.00,VWS V14.01,2013-02-10 15:57:00,
2013-02-10 10:58:00,32.7,25.0,30.11,SSW,194,0.0,6.0,73,0.00,,,0.00,VWS V14.01,2013-02-10 15:58:00,
2013-02-10 10:59:00,32.7,25.3,30.11,SSW,194,1.0,6.0,74,0.00,,,0.00,VWS V14.01,2013-02-10 15:59:00,
2013-02-10 11:00:00,32.8,25.4,30.11,South,190,0.0,6.0,74,0.00,,,0.00,VWS V14.01,2013-02-10 16:00:00,
2013-02-10 11:01:00,32.9,25.5,30.11,SSE,165,4.0,4.0,74,0.00,,,0.00,VWS V14.01,2013-02-10 16:01:00,
2013-02-10 11:02:00,32.9,25.2,30.11,SSE,164,1.0,4.0,73,0.00,,,0.00,VWS V14.01,2013-02-10 16:02:00,
2013-02-10 11:03:00,33.0,25.3,30.11,SSE,153,1.0,4.0,73,0.00,,,0.00,VWS V14.01,2013-02-10 16:03:00,
2013-02-10 11:04:00,33.1,25.4,30.11,SSE,153,0.0,4.0,73,0.00,,,0.00,VWS V14.01,2013-02-10 16:04:00,
2013-02-10 11:05:00,33.2,25.5,30.11,SSE,153,0.0,4.0,73,0.00,,,0.00,VWS V14.01,2013-02-10 16:05:00,
2013-02-10 11:06:00,33.3,25.6,30.11,SSE,155,1.0,4.0,73,0.00,,,0.00,VWS V14.01,2013-02-10 16:06:00,
2013-02-10 11:07:00,33.4,25.7,30.11,SSE,156,2.0,4.0,73,0.00,,,0.00,VWS V14.01,2013-02-10 16:07:00,
2013-02-10 11:08:00,33.4,25.4,30.11,SSE,163,2.0,4.0,72,0.00,,,0.00,VWS V14.01,2013-02-10 16:08:00,
2013-02-10 11:09:00,33.5,25.5,30.11,SSE,164,0.0,4.0,72,0.00,,,0.00,VWS V14.01,2013-02-10 16:09:00,
2013-02-10 11:10:00,33.5,25.5,30.11,SSE,164,2.0,4.0,72,0.00,,,0.00,VWS V14.01,2013-02-10 16:10:00,
2013-02-10 11:11:00,33.7,25.6,30.11,SSE,164,1.0,4.0,72,0.00,,,0.00,VWS V14.01,2013-02-10 16:11:00,
2013-02-10 11:12:00,33.7,25.6,30.11,SSE,164,2.0,4.0,72,0.00,,,0.00,VWS V14.01,2013-02-10 16:12:00,
2013-02-10 11:13:00,33.8,25.7,30.11,SSE,165,3.0,5.0,72,0.00,,,0.00,VWS V14.01,2013-02-10 16:13:00,
2013-02-10 11:14:00,33.9,25.5,30.11,SSE,164,3.0,5.0,71,0.00,,,0.00,VWS V14.01,2013-02-10 16:14:00,
2013-02-10 11:15:00,33.9,25.5,30.11,SSE,159,2.0,5.0,71,0.00,,,0.00,VWS V14.01,2013-02-10 16:15:00,
2013-02-10 11:16:00,33.9,25.5,30.11,SE,146,2.0,5.0,71,0.00,,,0.00,VWS V14.01,2013-02-10 16:16:00,
2013-02-10 11:17:00,34.0,25.6,30.10,SE,146,1.0,5.0,71,0.00,,,0.00,VWS V14.01,2013-02-10 16:17:00,
2013-02-10 11:18:00,34.1,25.7,30.10,SE,146,1.0,5.0,71,0.00,,,0.00,VWS V14.01,2013-02-10 16:18:00,
2013-02-10 11:19:00,34.1,25.7,30.10,SSE,164,3.0,5.0,71,0.00,,,0.00,VWS V14.01,2013-02-10 16:19:00,
2013-02-10 11:20:00,34.2,25.5,30.10,SSE,165,1.0,5.0,70,0.00,,,0.00,VWS V14.01,2013-02-10 16:20:00,
2013-02-10 11:21:00,34.3,25.5,30.10,SSE,165,0.0,5.0,70,0.00,,,0.00,VWS V14.01,2013-02-10 16:21:00,
2013-02-10 11:22:00,34.3,25.5,30.10,SSE,165,0.0,5.0,70,0.00,,,0.00,VWS V14.01,2013-02-10 16:22:00,
2013-02-10 11:23:00,34.4,25.6,30.10,SSE,165,1.0,5.0,70,0.00,,,0.00,VWS V14.01,2013-02-10 16:23:00,
2013-02-10 11:24:00,34.4,25.6,30.10,SSE,165,0.0,5.0,70,0.00,,,0.00,VWS V14.01,2013-02-10 16:24:00,
2013-02-10 11:25:00,34.4,25.6,30.10,SSE,159,2.0,5.0,70,0.00,,,0.00,VWS V14.01,2013-02-10 16:25:00,
2013-02-10 11:26:00,34.4,25.6,30.09,SSE,159,0.0,5.0,70,0.00,,,0.00,VWS V14.01,2013-02-10 16:26:00,
2013-02-10 11:27:00,34.4,25.6,30.09,SSE,161,2.0,5.0,70,0.00,,,0.00,VWS V14.01,2013-02-10 16:27:00,
2013-02-10 11:28:00,34.5,25.7,30.09,SSE,161,1.0,5.0,70,0.00,,,0.00,VWS V14.01,2013-02-10 16:28:00,
2013-02-10 11:29:00,34.5,25.7,30.09,SSE,161,0.0,5.0,70,0.00,,,0.00,VWS V14.01,2013-02-10 16:29:00,
2013-02-10 11:30:00,34.6,25.8,30.09,SSE,162,2.0,5.0,70,0.00,,,0.00,VWS V14.01,2013-02-10 16:30:00,
2013-02-10 11:31:00,34.6,25.8,30.09,SSE,162,1.0,2.0,70,0.00,,,0.00,VWS V14.01,2013-02-10 16:31:00,
2013-02-10 11:32:00,34.7,25.9,30.09,SSE,159,1.0,3.0,70,0.00,,,0.00,VWS V14.01,2013-02-10 16:32:00,
2013-02-10 11:33:00,34.7,25.9,30.09,SSE,159,0.0,3.0,70,0.00,,,0.00,VWS V14.01,2013-02-10 16:33:00,
2013-02-10 11:34:00,34.8,26.0,30.08,SSE,159,1.0,3.0,70,0.00,,,0.00,VWS V14.01,2013-02-10 16:34:00,
2013-02-10 11:35:00,34.9,26.1,30.08,SSE,165,2.0,3.0,70,0.00,,,0.00,VWS V14.01,2013-02-10 16:35:00,
2013-02-10 11:36:00,34.9,26.1,30.08,SSE,164,2.0,3.0,70,0.00,,,0.00,VWS V14.01,2013-02-10 16:36:00,
2013-02-10 11:37:00,34.9,26.1,30.08,SSE,164,0.0,3.0,70,0.00,,,0.00,VWS V14.01,2013-02-10 16:37:00,
2013-02-10 11:38:00,35.0,26.2,30.08,SSE,164,0.0,3.0,70,0.00,,,0.00,VWS V14.01,2013-02-10 16:38:00,
2013-02-10 11:39:00,35.1,26.3,30.08,SSE,164,0.0,3.0,70,0.00,,,0.00,VWS V14.01,2013-02-10 16:39:00,
2013-02-10 11:40:00,35.1,26.3,30.08,SSE,164,0.0,3.0,70,0.00,,,0.00,VWS V14.01,2013-02-10 16:40:00,
2013-02-10 11:41:00,35.2,26.4,30.08,SSE,164,0.0,3.0,70,0.00,,,0.00,VWS V14.01,2013-02-10 16:41:00,
2013-02-10 11:42:00,35.3,26.5,30.08,SSE,164,0.0,3.0,70,0.00,,,0.00,VWS V14.01,2013-02-10 16:42:00,
2013-02-10 11:43:00,35.4,26.6,30.08,SSE,164,0.0,3.0,70,0.00,,,0.00,VWS V14.01,2013-02-10 16:43:00,
2013-02-10 11:44:00,35.4,26.6,30.08,SSE,164,0.0,3.0,70,0.00,,,0.00,VWS V14.01,2013-02-10 16:44:00,
2013-02-10 11:45:00,35.5,26.7,30.08,SSE,164,0.0,3.0,70,0.00,,,0.00,VWS V14.01,2013-02-10 16:45:00,
2013-02-10 11:46:00,35.6,26.8,30.08,SSE,164,0.0,3.0,70,0.00,,,0.00,VWS V14.01,2013-02-10 16:46:00,
2013-02-10 11:47:00,35.6,26.8,30.07,SSE,164,0.0,3.0,70,0.00,,,0.00,VWS V14.01,2013-02-10 16:47:00,
2013-02-10 11:48:00,35.7,26.9,30.07,South,169,1.0,4.0,70,0.00,,,0.00,VWS V14.01,2013-02-10 16:48:00,
2013-02-10 11:49:00,35.7,26.5,30.07,SSE,166,0.0,4.0,69,0.00,,,0.00,VWS V14.01,2013-02-10 16:49:00,
2013-02-10 11:50:00,35.7,26.5,30.07,SSE,166,2.0,4.0,69,0.00,,,0.00,VWS V14.01,2013-02-10 16:50:00,
2013-02-10 11:51:00,35.7,26.5,30.07,SSE,163,1.0,4.0,69,0.00,,,0.00,VWS V14.01,2013-02-10 16:51:00,
2013-02-10 11:52:00,35.7,26.5,30.07,SSE,163,5.0,5.0,69,0.00,,,0.00,VWS V14.01,2013-02-10 16:52:00,
2013-02-10 11:53:00,35.7,26.5,30.07,SSE,159,0.0,5.0,69,0.00,,,0.00,VWS V14.01,2013-02-10 16:53:00,
2013-02-10 11:54:00,35.7,26.2,30.06,SSE,159,3.0,5.0,68,0.00,,,0.00,VWS V14.01,2013-02-10 16:54:00,
2013-02-10 11:55:00,35.7,26.2,30.06,South,169,1.0,5.0,68,0.00,,,0.00,VWS V14.01,2013-02-10 16:55:00,
2013-02-10 11:56:00,35.6,26.1,30.06,SSE,157,0.0,5.0,68,0.01,,,0.01,VWS V14.01,2013-02-10 16:56:00,
2013-02-10 11:57:00,35.7,26.2,30.06,SSE,157,3.0,5.0,68,0.01,,,0.01,VWS V14.01,2013-02-10 16:57:00,
2013-02-10 11:58:00,35.7,26.2,30.05,South,180,2.0,5.0,68,0.01,,,0.01,VWS V14.01,2013-02-10 16:58:00,
2013-02-10 11:59:00,35.7,26.5,30.05,South,179,1.0,5.0,69,0.01,,,0.01,VWS V14.01,2013-02-10 16:59:00,
2013-02-10 12:00:00,35.8,26.6,30.05,South,178,2.0,5.0,69,0.01,,,0.01,VWS V14.01,2013-02-10 17:00:00,
2013-02-10 12:01:00,35.9,26.7,30.04,SSE,165,1.0,3.0,69,0.01,,,0.01,VWS V14.01,2013-02-10 17:01:00,
2013-02-10 12:02:00,36.0,26.8,30.04,SSE,166,0.0,3.0,69,0.01,,,0.01,VWS V14.01,2013-02-10 17:02:00,
2013-02-10 12:03:00,36.0,26.8,30.04,SSE,166,0.0,3.0,69,0.01,,,0.01,VWS V14.01,2013-02-10 17:03:00,
2013-02-10 12:04:00,36.1,26.9,30.04,SSE,166,0.0,3.0,69,0.02,,,0.02,VWS V14.01,2013-02-10 17:04:00,
2013-02-10 12:05:00,36.2,27.0,30.04,SSE,166,0.0,3.0,69,0.02,,,0.02,VWS V14.01,2013-02-10 17:05:00,
2013-02-10 12:06:00,36.4,27.2,30.04,SSE,166,0.0,3.0,69,0.02,,,0.02,VWS V14.01,2013-02-10 17:06:00,
2013-02-10 12:07:00,36.5,27.3,30.03,SSE,165,0.0,3.0,69,0.02,,,0.02,VWS V14.01,2013-02-10 17:07:00,
2013-02-10 12:08:00,36.6,27.4,30.03,SSE,156,1.0,3.0,69,0.02,,,0.02,VWS V14.01,2013-02-10 17:08:00,
2013-02-10 12:09:00,36.8,27.2,30.03,SSE,156,0.0,3.0,68,0.02,,,0.02,VWS V14.01,2013-02-10 17:09:00,
2013-02-10 12:10:00,36.8,27.2,30.03,South,178,4.0,4.0,68,0.02,,,0.02,VWS V14.01,2013-02-10 17:10:00,
2013-02-10 12:11:00,36.9,27.3,30.03,South,180,2.0,4.0,68,0.02,,,0.02,VWS V14.01,2013-02-10 17:11:00,
2013-02-10 12:12:00,36.9,27.0,30.03,South,171,2.0,4.0,67,0.02,,,0.02,VWS V14.01,2013-02-10 17:12:00,
2013-02-10 12:13:00,37.0,27.1,30.03,South,171,1.0,4.0,67,0.02,,,0.02,VWS V14.01,2013-02-10 17:13:00,
2013-02-10 12:14:00,37.0,27.1,30.03,South,171,0.0,4.0,67,0.02,,,0.02,VWS V14.01,2013-02-10 17:14:00,
2013-02-10 12:15:00,37.1,27.2,30.03,South,171,1.0,4.0,67,0.02,,,0.02,VWS V14.01,2013-02-10 17:15:00,
2013-02-10 12:16:00,37.1,27.2,30.02,SSE,160,0.0,4.0,67,0.02,,,0.02,VWS V14.01,2013-02-10 17:16:00,
2013-02-10 12:17:00,37.2,27.3,30.02,SSE,160,0.0,4.0,67,0.02,,,0.02,VWS V14.01,2013-02-10 17:17:00,
2013-02-10 12:18:00,37.3,27.4,30.02,SSE,160,1.0,4.0,67,0.02,,,0.02,VWS V14.01,2013-02-10 17:18:00,
2013-02-10 12:19:00,37.3,27.4,30.02,SSE,160,0.0,4.0,67,0.02,,,0.02,VWS V14.01,2013-02-10 17:19:00,
2013-02-10 12:20:00,37.3,27.4,30.02,SSE,160,0.0,4.0,67,0.02,,,0.02,VWS V14.01,2013-02-10 17:20:00,
2013-02-10 12:21:00,37.3,27.4,30.02,SSE,164,3.0,4.0,67,0.02,,,0.02,VWS V14.01,2013-02-10 17:21:00,
2013-02-10 12:22:00,37.4,27.5,30.02,SSE,163,3.0,4.0,67,0.02,,,0.02,VWS V14.01,2013-02-10 17:22:00,
2013-02-10 12:23:00,37.3,27.0,30.02,SSE,161,1.0,5.0,66,0.02,,,0.02,VWS V14.01,2013-02-10 17:23:00,
2013-02-10 12:24:00,37.3,27.0,30.02,SSE,161,1.0,5.0,66,0.02,,,0.02,VWS V14.01,2013-02-10 17:24:00,
2013-02-10 12:25:00,37.3,27.0,30.02,SSE,161,0.0,5.0,66,0.02,,,0.02,VWS V14.01,2013-02-10 17:25:00,
2013-02-10 12:26:00,37.4,27.1,30.02,SSE,161,0.0,5.0,66,0.02,,,0.02,VWS V14.01,2013-02-10 17:26:00,
2013-02-10 12:27:00,37.3,27.4,30.01,SSE,161,0.0,5.0,67,0.02,,,0.02,VWS V14.01,2013-02-10 17:27:00,
2013-02-10 12:28:00,37.4,27.5,30.01,SSE,162,0.0,5.0,67,0.02,,,0.02,VWS V14.01,2013-02-10 17:28:00,
2013-02-10 12:29:00,37.4,27.5,30.01,SSE,161,0.0,5.0,67,0.02,,,0.02,VWS V14.01,2013-02-10 17:29:00,
2013-02-10 12:30:00,37.4,27.5,30.01,SSE,161,2.0,5.0,67,0.02,,,0.02,VWS V14.01,2013-02-10 17:30:00,
2013-02-10 12:31:00,37.4,27.5,30.01,South,172,3.0,3.0,67,0.02,,,0.02,VWS V14.01,2013-02-10 17:31:00,
2013-02-10 12:32:00,37.3,27.4,30.01,SSE,165,1.0,5.0,67,0.02,,,0.02,VWS V14.01,2013-02-10 17:32:00,
2013-02-10 12:33:00,37.3,27.0,30.02,SSE,153,1.0,5.0,66,0.02,,,0.02,VWS V14.01,2013-02-10 17:33:00,
2013-02-10 12:34:00,37.4,27.1,30.02,SSE,152,1.0,5.0,66,0.02,,,0.02,VWS V14.01,2013-02-10 17:34:00,
2013-02-10 12:35:00,37.4,27.1,30.02,SSE,153,1.0,5.0,66,0.02,,,0.02,VWS V14.01,2013-02-10 17:35:00,
2013-02-10 12:36:00,37.4,27.1,30.02,SSE,163,3.0,5.0,66,0.02,,,0.02,VWS V14.01,2013-02-10 17:36:00,
2013-02-10 12:37:00,37.4,27.1,30.02,SSE,165,0.0,5.0,66,0.02,,,0.02,VWS V14.01,2013-02-10 17:37:00,
2013-02-10 12:38:00,37.4,27.1,30.02,SSE,165,3.0,5.0,66,0.02,,,0.02,VWS V14.01,2013-02-10 17:38:00,
2013-02-10 12:39:00,37.4,27.1,30.01,SSE,160,2.0,5.0,66,0.02,,,0.02,VWS V14.01,2013-02-10 17:39:00,
2013-02-10 12:40:00,37.5,27.2,30.01,SSE,165,4.0,5.0,66,0.02,,,0.02,VWS V14.01,2013-02-10 17:40:00,
2013-02-10 12:41:00,37.5,27.2,30.02,SSE,168,2.0,5.0,66,0.02,,,0.02,VWS V14.01,2013-02-10 17:41:00,
2013-02-10 12:42:00,37.5,27.2,30.01,SSE,168,0.0,5.0,66,0.02,,,0.02,VWS V14.01,2013-02-10 17:42:00,
2013-02-10 12:43:00,37.6,27.3,30.01,SSE,168,0.0,5.0,66,0.02,,,0.02,VWS V14.01,2013-02-10 17:43:00,
2013-02-10 12:44:00,37.7,27.4,30.01,SE,138,0.0,5.0,66,0.02,,,0.02,VWS V14.01,2013-02-10 17:44:00,
2013-02-10 12:45:00,37.7,27.4,30.01,South,169,4.0,5.0,66,0.02,,,0.02,VWS V14.01,2013-02-10 17:45:00,
2013-02-10 12:46:00,37.8,27.1,30.01,SSE,154,2.0,5.0,65,0.02,,,0.02,VWS V14.01,2013-02-10 17:46:00,
2013-02-10 12:47:00,37.8,27.5,30.01,SSE,157,2.0,5.0,66,0.02,,,0.02,VWS V14.01,2013-02-10 17:47:00,
2013-02-10 12:48:00,37.9,27.6,30.01,SSE,159,2.0,5.0,66,0.02,,,0.02,VWS V14.01,2013-02-10 17:48:00,
2013-02-10 12:49:00,37.9,27.2,30.01,SSE,159,2.0,5.0,65,0.02,,,0.02,VWS V14.01,2013-02-10 17:49:00,
2013-02-10 12:50:00,37.9,27.2,30.01,SSE,159,2.0,5.0,65,0.02,,,0.02,VWS V14.01,2013-02-10 17:50:00,
2013-02-10 12:51:00,38.0,27.3,30.01,SSE,159,2.0,5.0,65,0.02,,,0.02,VWS V14.01,2013-02-10 17:51:00,
2013-02-10 12:52:00,38.1,27.4,30.01,SSE,159,3.0,5.0,65,0.02,,,0.02,VWS V14.01,2013-02-10 17:52:00,
2013-02-10 12:53:00,38.1,27.8,30.01,SSE,155,0.0,5.0,66,0.02,,,0.02,VWS V14.01,2013-02-10 17:53:00,
2013-02-10 12:54:00,38.2,27.9,30.01,South,169,3.0,5.0,66,0.02,,,0.02,VWS V14.01,2013-02-10 17:54:00,
2013-02-10 12:55:00,38.2,27.9,30.01,SSE,157,2.0,5.0,66,0.02,,,0.02,VWS V14.01,2013-02-10 17:55:00,
2013-02-10 12:56:00,38.3,28.0,30.01,SSE,160,3.0,5.0,66,0.02,,,0.02,VWS V14.01,2013-02-10 17:56:00,
2013-02-10 12:57:00,38.3,27.6,30.01,SSE,160,0.0,5.0,65,0.02,,,0.02,VWS V14.01,2013-02-10 17:57:00,
2013-02-10 12:58:00,38.4,27.7,30.01,SSE,153,0.0,5.0,65,0.02,,,0.02,VWS V14.01,2013-02-10 17:58:00,
2013-02-10 12:59:00,38.5,27.8,30.00,SSE,153,1.0,5.0,65,0.02,,,0.02,VWS V14.01,2013-02-10 17:59:00,
2013-02-10 13:00:00,38.6,27.9,30.00,SSE,153,2.0,5.0,65,0.02,,,0.02,VWS V14.01,2013-02-10 18:00:00,
2013-02-10 13:01:00,38.6,27.9,30.00,SSE,154,1.0,1.0,65,0.01,,,0.02,VWS V14.01,2013-02-10 18:01:00,
2013-02-10 13:02:00,38.7,28.0,30.00,SSE,154,3.0,3.0,65,0.01,,,0.02,VWS V14.01,2013-02-10 18:02:00,
2013-02-10 13:03:00,38.7,27.6,30.00,SSE,150,1.0,4.0,64,0.01,,,0.02,VWS V14.01,2013-02-10 18:03:00,
2013-02-10 13:04:00,38.7,27.6,30.00,South,171,4.0,6.0,64,0.01,,,0.02,VWS V14.01,2013-02-10 18:04:00,
2013-02-10 13:05:00,38.7,27.6,30.00,SSE,155,2.0,6.0,64,0.01,,,0.02,VWS V14.01,2013-02-10 18:05:00,
2013-02-10 13:06:00,38.7,27.6,30.00,SSE,155,2.0,6.0,64,0.01,,,0.02,VWS V14.01,2013-02-10 18:06:00,
2013-02-10 13:07:00,38.8,27.7,30.00,SSE,150,1.0,6.0,64,0.01,,,0.02,VWS V14.01,2013-02-10 18:07:00,
2013-02-10 13:08:00,38.8,27.7,30.00,SSE,150,0.0,6.0,64,0.01,,,0.02,VWS V14.01,2013-02-10 18:08:00,
2013-02-10 13:09:00,38.8,27.7,30.00,SSE,150,2.0,6.0,64,0.01,,,0.02,VWS V14.01,2013-02-10 18:09:00,
2013-02-10 13:10:00,38.8,27.7,30.00,SSE,151,1.0,6.0,64,0.01,,,0.02,VWS V14.01,2013-02-10 18:10:00,
2013-02-10 13:11:00,38.9,27.8,30.00,SE,134,0.0,6.0,64,0.01,,,0.02,VWS V14.01,2013-02-10 18:11:00,
2013-02-10 13:12:00,38.9,27.8,30.00,SE,135,1.0,6.0,64,0.01,,,0.02,VWS V14.01,2013-02-10 18:12:00,
2013-02-10 13:13:00,38.9,27.8,30.00,SSE,151,0.0,6.0,64,0.01,,,0.02,VWS V14.01,2013-02-10 18:13:00,
2013-02-10 13:14:00,38.9,27.8,30.00,SSE,151,0.0,6.0,64,0.01,,,0.02,VWS V14.01,2013-02-10 18:14:00,
2013-02-10 13:15:00,39.0,27.9,30.00,SSE,151,1.0,6.0,64,0.01,,,0.02,VWS V14.01,2013-02-10 18:15:00,
2013-02-10 13:16:00,39.0,27.9,30.00,SSE,152,1.0,6.0,64,0.01,,,0.02,VWS V14.01,2013-02-10 18:16:00,
2013-02-10 13:17:00,39.0,27.9,30.00,SSE,155,2.0,6.0,64,0.01,,,0.02,VWS V14.01,2013-02-10 18:17:00,
2013-02-10 13:18:00,39.0,27.9,30.00,SSE,161,3.0,6.0,64,0.01,,,0.02,VWS V14.01,2013-02-10 18:18:00,
2013-02-10 13:19:00,39.0,27.9,30.00,SSE,160,1.0,6.0,64,0.01,,,0.02,VWS V14.01,2013-02-10 18:19:00,
2013-02-10 13:20:00,39.0,27.9,30.00,SSE,160,2.0,6.0,64,0.01,,,0.02,VWS V14.01,2013-02-10 18:20:00,
2013-02-10 13:21:00,39.0,27.9,30.00,SSE,156,2.0,6.0,64,0.01,,,0.02,VWS V14.01,2013-02-10 18:21:00,
2013-02-10 13:22:00,39.0,27.9,30.00,SSE,157,0.0,6.0,64,0.01,,,0.02,VWS V14.01,2013-02-10 18:22:00,
2013-02-10 13:23:00,38.9,27.8,30.00,SSE,158,1.0,6.0,64,0.01,,,0.02,VWS V14.01,2013-02-10 18:23:00,
2013-02-10 13:24:00,39.0,27.9,30.00,SSE,157,1.0,6.0,64,0.01,,,0.02,VWS V14.01,2013-02-10 18:24:00,
2013-02-10 13:25:00,39.0,27.9,30.00,SSE,152,2.0,6.0,64,0.01,,,0.02,VWS V14.01,2013-02-10 18:25:00,
2013-02-10 13:26:00,39.0,27.9,30.00,SSE,152,2.0,6.0,64,0.01,,,0.02,VWS V14.01,2013-02-10 18:26:00,
2013-02-10 13:27:00,39.0,28.2,30.00,SSE,159,2.0,6.0,65,0.01,,,0.02,VWS V14.01,2013-02-10 18:27:00,
2013-02-10 13:28:00,39.0,28.2,30.00,SSE,157,0.0,6.0,65,0.01,,,0.02,VWS V14.01,2013-02-10 18:28:00,
2013-02-10 13:29:00,39.0,27.9,30.00,SSE,157,0.0,6.0,64,0.01,,,0.02,VWS V14.01,2013-02-10 18:29:00,
2013-02-10 13:30:00,39.0,27.9,30.00,SSE,157,1.0,6.0,64,0.01,,,0.02,VWS V14.01,2013-02-10 18:30:00,
2013-02-10 13:31:00,39.0,27.9,30.00,SSE,153,1.0,3.0,64,0.00,,,0.02,VWS V14.01,2013-02-10 18:31:00,
2013-02-10 13:32:00,39.0,27.9,30.00,SSE,153,0.0,3.0,64,0.00,,,0.02,VWS V14.01,2013-02-10 18:32:00,
2013-02-10 13:33:00,39.0,27.9,30.00,SSE,153,0.0,3.0,64,0.00,,,0.02,VWS V14.01,2013-02-10 18:33:00,
2013-02-10 13:34:00,39.0,27.9,30.00,South,171,4.0,5.0,64,0.00,,,0.02,VWS V14.01,2013-02-10 18:34:00,
2013-02-10 13:35:00,39.0,27.9,30.00,SSE,165,2.0,5.0,64,0.00,,,0.02,VWS V14.01,2013-02-10 18:35:00,
2013-02-10 13:36:00,39.0,27.9,30.00,SSE,155,2.0,5.0,64,0.00,,,0.02,VWS V14.01,2013-02-10 18:36:00,
2013-02-10 13:37:00,39.0,27.9,30.00,South,175,2.0,5.0,64,0.00,,,0.02,VWS V14.01,2013-02-10 18:37:00,
2013-02-10 13:38:00,39.0,27.9,30.00,SSE,161,3.0,5.0,64,0.00,,,0.02,VWS V14.01,2013-02-10 18:38:00,
2013-02-10 13:39:00,39.0,27.9,30.00,SSE,161,3.0,5.0,64,0.00,,,0.02,VWS V14.01,2013-02-10 18:39:00,
2013-02-10 13:40:00,38.9,27.8,30.00,South,169,2.0,5.0,64,0.00,,,0.02,VWS V14.01,2013-02-10 18:40:00,
2013-02-10 13:41:00,38.9,28.1,30.00,South,169,0.0,5.0,65,0.00,,,0.02,VWS V14.01,2013-02-10 18:41:00,
2013-02-10 13:42:00,38.9,28.1,30.00,South,169,0.0,5.0,65,0.00,,,0.02,VWS V14.01,2013-02-10 18:42:00,
2013-02-10 13:43:00,38.9,27.8,30.00,SSE,154,3.0,5.0,64,0.00,,,0.02,VWS V14.01,2013-02-10 18:43:00,
2013-02-10 13:44:00,38.9,27.8,30.00,SSE,149,2.0,5.0,64,0.00,,,0.02,VWS V14.01,2013-02-10 18:44:00,
2013-02-10 13:45:00,38.9,27.8,30.00,SE,146,2.0,5.0,64,0.00,,,0.02,VWS V14.01,2013-02-10 18:45:00,
2013-02-10 13:46:00,38.9,28.1,30.00,South,172,3.0,5.0,65,0.00,,,0.02,VWS V14.01,2013-02-10 18:46:00,
2013-02-10 13:47:00,38.9,28.1,30.00,SSE,158,4.0,5.0,65,0.00,,,0.02,VWS V14.01,2013-02-10 18:47:00,
2013-02-10 13:48:00,38.9,28.1,30.00,SSE,157,2.0,5.0,65,0.00,,,0.02,VWS V14.01,2013-02-10 18:48:00,
2013-02-10 13:49:00,38.8,28.1,30.00,SSE,158,2.0,5.0,65,0.00,,,0.02,VWS V14.01,2013-02-10 18:49:00,
2013-02-10 13:50:00,38.8,28.1,30.00,South,178,2.0,5.0,65,0.00,,,0.02,VWS V14.01,2013-02-10 18:50:00,
2013-02-10 13:51:00,38.8,28.1,30.00,South,176,2.0,5.0,65,0.00,,,0.02,VWS V14.01,2013-02-10 18:51:00,
2013-02-10 13:52:00,38.8,28.1,30.00,South,170,0.0,5.0,65,0.00,,,0.02,VWS V14.01,2013-02-10 18:52:00,
2013-02-10 13:53:00,38.8,28.1,30.00,SE,140,1.0,5.0,65,0.00,,,0.02,VWS V14.01,2013-02-10 18:53:00,
2013-02-10 13:54:00,38.8,28.1,30.00,SSE,153,1.0,5.0,65,0.00,,,0.02,VWS V14.01,2013-02-10 18:54:00,
2013-02-10 13:55:00,38.8,28.1,30.00,SSE,153,0.0,5.0,65,0.00,,,0.02,VWS V14.01,2013-02-10 18:55:00,
2013-02-10 13:56:00,38.8,28.1,30.00,SSE,153,0.0,5.0,65,0.00,,,0.02,VWS V14.01,2013-02-10 18:56:00,
2013-02-10 13:57:00,38.8,28.1,29.99,SSE,153,1.0,5.0,65,0.00,,,0.02,VWS V14.01,2013-02-10 18:57:00,
2013-02-10 13:58:00,38.8,28.1,29.99,SSE,155,2.0,5.0,65,0.00,,,0.02,VWS V14.01,2013-02-10 18:58:00,
2013-02-10 13:59:00,38.8,28.1,29.99,SSE,151,1.0,5.0,65,0.00,,,0.02,VWS V14.01,2013-02-10 18:59:00,
2013-02-10 14:00:00,38.8,28.1,29.99,SSE,149,2.0,5.0,65,0.00,,,0.02,VWS V14.01,2013-02-10 19:00:00,
2013-02-10 14:01:00,38.8,28.1,29.98,SSE,150,1.0,2.0,65,0.00,,,0.02,VWS V14.01,2013-02-10 19:01:00,
2013-02-10 14:02:00,38.8,28.1,29.98,SSE,150,0.0,2.0,65,0.00,,,0.02,VWS V14.01,2013-02-10 19:02:00,
2013-02-10 14:03:00,38.8,28.1,29.98,SE,146,2.0,2.0,65,0.00,,,0.02,VWS V14.01,2013-02-10 19:03:00,
2013-02-10 14:04:00,38.7,28.0,29.98,SSE,150,0.0,2.0,65,0.00,,,0.02,VWS V14.01,2013-02-10 19:04:00,
2013-02-10 14:05:00,38.7,28.0,29.98,SSE,153,2.0,3.0,65,0.00,,,0.02,VWS V14.01,2013-02-10 19:05:00,
2013-02-10 14:06:00,38.7,28.0,29.97,SSE,153,0.0,3.0,65,0.00,,,0.02,VWS V14.01,2013-02-10 19:06:00,
2013-02-10 14:07:00,38.7,28.0,29.97,SSE,153,0.0,3.0,65,0.00,,,0.02,VWS V14.01,2013-02-10 19:07:00,
2013-02-10 14:08:00,38.7,28.0,29.97,SSE,153,0.0,3.0,65,0.00,,,0.02,VWS V14.01,2013-02-10 19:08:00,
2013-02-10 14:09:00,38.7,28.0,29.96,SSE,153,0.0,3.0,65,0.00,,,0.02,VWS V14.01,2013-02-10 19:09:00,
2013-02-10 14:10:00,38.7,28.0,29.96,SSE,153,0.0,3.0,65,0.00,,,0.02,VWS V14.01,2013-02-10 19:10:00,
2013-02-10 14:11:00,38.7,28.0,29.96,SSE,153,0.0,3.0,65,0.00,,,0.02,VWS V14.01,2013-02-10 19:11:00,
2013-02-10 14:12:00,38.7,28.0,29.96,SSE,153,0.0,3.0,65,0.00,,,0.02,VWS V14.01,2013-02-10 19:12:00,
2013-02-10 14:13:00,38.7,28.0,29.96,SSE,153,0.0,3.0,65,0.00,,,0.02,VWS V14.01,2013-02-10 19:13:00,
2013-02-10 14:14:00,38.7,28.0,29.95,SSE,152,0.0,3.0,65,0.00,,,0.02,VWS V14.01,2013-02-10 19:14:00,
2013-02-10 14:15:00,38.7,28.3,29.95,SSE,152,0.0,3.0,66,0.00,,,0.02,VWS V14.01,2013-02-10 19:15:00,
2013-02-10 14:16:00,38.6,27.9,29.95,SSE,152,0.0,3.0,65,0.00,,,0.02,VWS V14.01,2013-02-10 19:16:00,
2013-02-10 14:17:00,38.6,28.2,29.95,SSE,152,0.0,3.0,66,0.00,,,0.02,VWS V14.01,2013-02-10 19:17:00,
2013-02-10 14:18:00,38.6,28.2,29.95,SE,126,1.0,3.0,66,0.00,,,0.02,VWS V14.01,2013-02-10 19:18:00,
2013-02-10 14:19:00,38.6,27.9,29.95,SE,126,0.0,3.0,65,0.00,,,0.02,VWS V14.01,2013-02-10 19:19:00,
2013-02-10 14:20:00,38.5,28.1,29.95,SE,126,1.0,3.0,66,0.00,,,0.02,VWS V14.01,2013-02-10 19:20:00,
2013-02-10 14:21:00,38.5,28.1,29.95,SE,125,0.0,3.0,66,0.00,,,0.02,VWS V14.01,2013-02-10 19:21:00,
2013-02-10 14:22:00,38.5,28.1,29.95,SE,125,1.0,3.0,66,0.00,,,0.02,VWS V14.01,2013-02-10 19:22:00,
2013-02-10 14:23:00,38.5,28.1,29.95,SE,139,2.0,3.0,66,0.00,,,0.02,VWS V14.01,2013-02-10 19:23:00,
2013-02-10 14:24:00,38.5,28.1,29.95,South,181,3.0,3.0,66,0.00,,,0.02,VWS V14.01,2013-02-10 19:24:00,
2013-02-10 14:25:00,38.5,28.1,29.95,South,171,1.0,3.0,66,0.00,,,0.02,VWS V14.01,2013-02-10 19:25:00,
2013-02-10 14:26:00,38.5,28.1,29.95,South,171,0.0,3.0,66,0.00,,,0.02,VWS V14.01,2013-02-10 19:26:00,
2013-02-10 14:27:00,38.5,28.1,29.94,South,171,0.0,3.0,66,0.00,,,0.02,VWS V14.01,2013-02-10 19:27:00,
2013-02-10 14:28:00,38.5,28.1,29.94,South,171,2.0,3.0,66,0.00,,,0.02,VWS V14.01,2013-02-10 19:28:00,
2013-02-10 14:29:00,38.5,28.1,29.94,SE,138,2.0,3.0,66,0.00,,,0.02,VWS V14.01,2013-02-10 19:29:00,
2013-02-10 14:30:00,38.5,28.1,29.94,SE,136,2.0,3.0,66,0.00,,,0.02,VWS V14.01,2013-02-10 19:30:00,
2013-02-10 14:31:00,38.5,28.1,29.94,NNW,340,0.0,3.0,66,0.00,,,0.02,VWS V14.01,2013-02-10 19:31:00,
2013-02-10 14:32:00,38.5,28.1,29.94,NNW,340,1.0,3.0,66,0.00,,,0.02,VWS V14.01,2013-02-10 19:32:00,
2013-02-10 14:33:00,38.5,28.1,29.93,NNW,340,0.0,3.0,66,0.00,,,0.02,VWS V14.01,2013-02-10 19:33:00,
2013-02-10 14:34:00,38.4,28.4,29.94,NNW,340,0.0,3.0,67,0.00,,,0.02,VWS V14.01,2013-02-10 19:34:00,
2013-02-10 14:35:00,38.4,28.4,29.94,ENE,64,2.0,3.0,67,0.00,,,0.02,VWS V14.01,2013-02-10 19:35:00,
2013-02-10 14:36:00,38.4,28.4,29.93,East,86,0.0,3.0,67,0.00,,,0.02,VWS V14.01,2013-02-10 19:36:00,
2013-02-10 14:37:00,38.4,28.4,29.93,South,183,4.0,4.0,67,0.00,,,0.02,VWS V14.01,2013-02-10 19:37:00,
2013-02-10 14:38:00,38.4,28.4,29.93,ESE,121,0.0,4.0,67,0.00,,,0.02,VWS V14.01,2013-02-10 19:38:00,
2013-02-10 14:39:00,38.4,28.4,29.93,ESE,118,0.0,4.0,67,0.00,,,0.02,VWS V14.01,2013-02-10 19:39:00,
2013-02-10 14:40:00,38.5,28.5,29.93,ESE,121,0.0,4.0,67,0.00,,,0.02,VWS V14.01,2013-02-10 19:40:00,
2013-02-10 14:41:00,38.4,28.4,29.93,ESE,121,1.0,4.0,67,0.00,,,0.02,VWS V14.01,2013-02-10 19:41:00,
2013-02-10 14:42:00,38.4,28.4,29.93,SE,126,1.0,4.0,67,0.00,,,0.02,VWS V14.01,2013-02-10 19:42:00,
2013-02-10 14:43:00,38.5,28.5,29.93,SE,126,0.0,4.0,67,0.00,,,0.02,VWS V14.01,2013-02-10 19:43:00,
2013-02-10 14:44:00,38.4,28.4,29.93,SE,126,1.0,4.0,67,0.00,,,0.02,VWS V14.01,2013-02-10 19:44:00,
2013-02-10 14:45:00,38.5,28.5,29.93,SE,128,1.0,4.0,67,0.00,,,0.02,VWS V14.01,2013-02-10 19:45:00,
2013-02-10 14:46:00,38.4,28.4,29.93,SE,132,1.0,4.0,67,0.00,,,0.02,VWS V14.01,2013-02-10 19:46:00,
2013-02-10 14:47:00,38.4,28.4,29.93,SE,132,0.0,4.0,67,0.00,,,0.02,VWS V14.01,2013-02-10 19:47:00,
2013-02-10 14:48:00,38.4,28.4,29.93,SE,134,0.0,4.0,67,0.00,,,0.02,VWS V14.01,2013-02-10 19:48:00,
2013-02-10 14:49:00,38.4,28.4,29.93,SE,138,0.0,4.0,67,0.00,,,0.02,VWS V14.01,2013-02-10 19:49:00,
2013-02-10 14:50:00,38.4,28.4,29.93,SE,138,0.0,4.0,67,0.00,,,0.02,VWS V14.01,2013-02-10 19:50:00,
2013-02-10 14:51:00,38.4,28.4,29.93,SE,138,0.0,4.0,67,0.00,,,0.02,VWS V14.01,2013-02-10 19:51:00,
2013-02-10 14:52:00,38.4,28.4,29.93,SE,138,1.0,4.0,67,0.00,,,0.02,VWS V14.01,2013-02-10 19:52:00,
2013-02-10 14:53:00,38.4,28.4,29.93,SE,138,2.0,4.0,67,0.00,,,0.02,VWS V14.01,2013-02-10 19:53:00,
2013-02-10 14:54:00,38.4,28.4,29.93,SE,138,0.0,4.0,67,0.00,,,0.02,VWS V14.01,2013-02-10 19:54:00,
2013-02-10 14:55:00,38.4,28.4,29.93,SE,138,2.0,4.0,67,0.00,,,0.02,VWS V14.01,2013-02-10 19:55:00,
2013-02-10 14:56:00,38.4,28.4,29.93,SE,138,0.0,4.0,67,0.00,,,0.02,VWS V14.01,2013-02-10 19:56:00,
2013-02-10 14:57:00,38.4,28.4,29.93,SE,138,0.0,4.0,67,0.00,,,0.02,VWS V14.01,2013-02-10 19:57:00,
2013-02-10 14:58:00,38.4,28.4,29.93,SE,137,0.0,4.0,67,0.00,,,0.02,VWS V14.01,2013-02-10 19:58:00,
2013-02-10 14:59:00,38.4,28.4,29.92,SE,138,0.0,4.0,67,0.00,,,0.02,VWS V14.01,2013-02-10 19:59:00,
2013-02-10 15:00:00,38.4,28.4,29.92,SE,138,0.0,4.0,67,0.00,,,0.02,VWS V14.01,2013-02-10 20:00:00,
2013-02-10 15:01:00,38.4,28.4,29.92,SE,138,0.0,0.0,67,0.00,,,0.02,VWS V14.01,2013-02-10 20:01:00,
2013-02-10 15:02:00,38.4,28.4,29.92,SE,136,1.0,2.0,67,0.00,,,0.02,VWS V14.01,2013-02-10 20:02:00,
2013-02-10 15:03:00,38.4,28.4,29.92,SE,136,1.0,2.0,67,0.00,,,0.02,VWS V14.01,2013-02-10 20:03:00,
2013-02-10 15:04:00,38.4,28.4,29.92,SE,138,0.0,2.0,67,0.00,,,0.02,VWS V14.01,2013-02-10 20:04:00,
2013-02-10 15:05:00,38.4,28.8,29.92,SE,137,0.0,2.0,68,0.00,,,0.02,VWS V14.01,2013-02-10 20:05:00,
2013-02-10 15:06:00,38.4,28.4,29.92,SE,137,1.0,2.0,67,0.00,,,0.02,VWS V14.01,2013-02-10 20:06:00,
2013-02-10 15:07:00,38.4,28.4,29.92,SE,140,2.0,3.0,67,0.00,,,0.02,VWS V14.01,2013-02-10 20:07:00,
2013-02-10 15:08:00,38.3,28.3,29.92,SE,140,0.0,3.0,67,0.00,,,0.02,VWS V14.01,2013-02-10 20:08:00,
2013-02-10 15:09:00,38.3,28.3,29.92,SE,142,1.0,3.0,67,0.00,,,0.02,VWS V14.01,2013-02-10 20:09:00,
2013-02-10 15:10:00,38.3,28.3,29.92,SE,142,1.0,3.0,67,0.00,,,0.02,VWS V14.01,2013-02-10 20:10:00,
2013-02-10 15:11:00,38.3,28.3,29.92,SE,142,2.0,3.0,67,0.00,,,0.02,VWS V14.01,2013-02-10 20:11:00,
2013-02-10 15:12:00,38.2,28.2,29.92,SE,142,1.0,3.0,67,0.00,,,0.02,VWS V14.01,2013-02-10 20:12:00,
2013-02-10 15:13:00,38.2,28.2,29.92,SE,138,0.0,3.0,67,0.00,,,0.02,VWS V14.01,2013-02-10 20:13:00,
2013-02-10 15:14:00,38.2,28.2,29.92,SE,136,1.0,3.0,67,0.00,,,0.02,VWS V14.01,2013-02-10 20:14:00,
2013-02-10 15:15:00,38.2,28.2,29.92,SE,136,0.0,3.0,67,0.00,,,0.02,VWS V14.01,2013-02-10 20:15:00,
2013-02-10 15:16:00,38.2,28.6,29.92,SE,136,0.0,3.0,68,0.00,,,0.02,VWS V14.01,2013-02-10 20:16:00,
2013-02-10 15:17:00,38.1,28.5,29.92,SE,136,0.0,3.0,68,0.00,,,0.02,VWS V14.01,2013-02-10 20:17:00,
2013-02-10 15:18:00,38.1,28.5,29.92,SE,136,0.0,3.0,68,0.00,,,0.02,VWS V14.01,2013-02-10 20:18:00,
2013-02-10 15:19:00,38.1,28.5,29.92,SE,136,0.0,3.0,68,0.00,,,0.02,VWS V14.01,2013-02-10 20:19:00,
2013-02-10 15:20:00,38.1,28.5,29.92,SE,136,3.0,3.0,68,0.00,,,0.02,VWS V14.01,2013-02-10 20:20:00,
2013-02-10 15:21:00,38.1,28.5,29.93,South,171,1.0,5.0,68,0.00,,,0.02,VWS V14.01,2013-02-10 20:21:00,
2013-02-10 15:22:00,38.0,28.4,29.93,SSW,198,2.0,5.0,68,0.00,,,0.02,VWS V14.01,2013-02-10 20:22:00,
2013-02-10 15:23:00,38.0,28.4,29.93,SSE,157,1.0,5.0,68,0.00,,,0.02,VWS V14.01,2013-02-10 20:23:00,
2013-02-10 15:24:00,38.0,28.4,29.93,SW,217,0.0,5.0,68,0.00,,,0.02,VWS V14.01,2013-02-10 20:24:00,
2013-02-10 15:25:00,38.0,28.8,29.93,South,175,2.0,5.0,69,0.00,,,0.02,VWS V14.01,2013-02-10 20:25:00,
2013-02-10 15:26:00,38.0,28.8,29.93,South,175,2.0,5.0,69,0.00,,,0.02,VWS V14.01,2013-02-10 20:26:00,
2013-02-10 15:27:00,38.0,28.8,29.92,SSE,147,1.0,5.0,69,0.00,,,0.02,VWS V14.01,2013-02-10 20:27:00,
2013-02-10 15:28:00,38.0,28.8,29.92,SE,146,0.0,5.0,69,0.00,,,0.02,VWS V14.01,2013-02-10 20:28:00,
2013-02-10 15:29:00,38.0,28.8,29.92,SSE,149,2.0,5.0,69,0.00,,,0.02,VWS V14.01,2013-02-10 20:29:00,
2013-02-10 15:30:00,38.0,28.8,29.93,SSE,150,0.0,5.0,69,0.00,,,0.02,VWS V14.01,2013-02-10 20:30:00,
2013-02-10 15:31:00,38.0,28.8,29.92,SSE,150,0.0,1.0,69,0.00,,,0.02,VWS V14.01,2013-02-10 20:31:00,
2013-02-10 15:32:00,38.0,28.8,29.92,SSE,150,1.0,2.0,69,0.00,,,0.02,VWS V14.01,2013-02-10 20:32:00,
2013-02-10 15:33:00,38.0,28.8,29.92,SSE,152,0.0,2.0,69,0.00,,,0.02,VWS V14.01,2013-02-10 20:33:00,
2013-02-10 15:34:00,38.0,28.8,29.92,SSE,152,1.0,2.0,69,0.00,,,0.02,VWS V14.01,2013-02-10 20:34:00,
2013-02-10 15:35:00,38.0,28.8,29.92,SSE,152,0.0,3.0,69,0.00,,,0.02,VWS V14.01,2013-02-10 20:35:00,
2013-02-10 15:36:00,38.0,28.8,29.92,SSE,152,0.0,3.0,69,0.00,,,0.02,VWS V14.01,2013-02-10 20:36:00,
2013-02-10 15:37:00,38.0,28.8,29.92,SSE,152,0.0,3.0,69,0.00,,,0.02,VWS V14.01,2013-02-10 20:37:00,
2013-02-10 15:38:00,38.0,28.8,29.92,SSE,152,0.0,3.0,69,0.00,,,0.02,VWS V14.01,2013-02-10 20:38:00,
2013-02-10 15:39:00,38.0,28.8,29.92,SSE,152,1.0,3.0,69,0.00,,,0.02,VWS V14.01,2013-02-10 20:39:00,
2013-02-10 15:40:00,38.0,28.8,29.92,SSE,153,2.0,4.0,69,0.00,,,0.02,VWS V14.01,2013-02-10 20:40:00,
2013-02-10 15:41:00,38.0,28.8,29.92,SSE,157,2.0,4.0,69,0.00,,,0.02,VWS V14.01,2013-02-10 20:41:00,
2013-02-10 15:42:00,38.0,28.8,29.92,SSE,157,1.0,4.0,69,0.00,,,0.02,VWS V14.01,2013-02-10 20:42:00,
2013-02-10 15:43:00,37.9,28.6,29.92,SSE,157,2.0,4.0,69,0.00,,,0.02,VWS V14.01,2013-02-10 20:43:00,
2013-02-10 15:44:00,37.9,28.6,29.92,SSE,156,1.0,4.0,69,0.00,,,0.02,VWS V14.01,2013-02-10 20:44:00,
2013-02-10 15:45:00,37.9,28.6,29.92,SSE,156,1.0,4.0,69,0.00,,,0.02,VWS V14.01,2013-02-10 20:45:00,
2013-02-10 15:46:00,37.9,28.6,29.92,SSE,157,1.0,4.0,69,0.00,,,0.02,VWS V14.01,2013-02-10 20:46:00,
2013-02-10 15:47:00,37.9,28.6,29.92,SSE,157,1.0,4.0,69,0.00,,,0.02,VWS V14.01,2013-02-10 20:47:00,
2013-02-10 15:48:00,38.0,28.8,29.92,SSE,157,1.0,4.0,69,0.00,,,0.02,VWS V14.01,2013-02-10 20:48:00,
2013-02-10 15:49:00,37.9,28.6,29.92,SSE,156,1.0,4.0,69,0.00,,,0.02,VWS V14.01,2013-02-10 20:49:00,
2013-02-10 15:50:00,37.9,28.6,29.91,SSE,157,0.0,4.0,69,0.00,,,0.02,VWS V14.01,2013-02-10 20:50:00,
2013-02-10 15:51:00,37.9,28.6,29.91,SSE,157,2.0,4.0,69,0.00,,,0.02,VWS V14.01,2013-02-10 20:51:00,
2013-02-10 15:52:00,37.9,28.6,29.92,SSE,157,0.0,4.0,69,0.00,,,0.02,VWS V14.01,2013-02-10 20:52:00,
2013-02-10 15:53:00,37.9,28.6,29.91,SE,134,4.0,4.0,69,0.00,,,0.02,VWS V14.01,2013-02-10 20:53:00,
2013-02-10 15:54:00,37.9,28.6,29.91,SE,133,2.0,4.0,69,0.00,,,0.02,VWS V14.01,2013-02-10 20:54:00,
2013-02-10 15:55:00,37.9,28.6,29.91,South,170,3.0,4.0,69,0.00,,,0.02,VWS V14.01,2013-02-10 20:55:00,
2013-02-10 15:56:00,37.9,28.6,29.91,South,169,2.0,5.0,69,0.00,,,0.02,VWS V14.01,2013-02-10 20:56:00,
2013-02-10 15:57:00,37.9,28.6,29.91,SSE,164,3.0,5.0,69,0.00,,,0.02,VWS V14.01,2013-02-10 20:57:00,
2013-02-10 15:58:00,37.9,29.0,29.91,SSE,147,0.0,5.0,70,0.00,,,0.02,VWS V14.01,2013-02-10 20:58:00,
2013-02-10 15:59:00,37.9,28.6,29.91,SSE,147,2.0,5.0,69,0.00,,,0.02,VWS V14.01,2013-02-10 20:59:00,
2013-02-10 16:00:00,37.9,28.6,29.91,SE,146,0.0,5.0,69,0.00,,,0.02,VWS V14.01,2013-02-10 21:00:00,
2013-02-10 16:01:00,37.9,28.6,29.90,SE,146,0.0,1.0,69,0.00,,,0.02,VWS V14.01,2013-02-10 21:01:00,
2013-02-10 16:02:00,37.8,28.6,29.90,SE,146,0.0,3.0,69,0.00,,,0.02,VWS V14.01,2013-02-10 21:02:00,
2013-02-10 16:03:00,37.8,28.6,29.91,SE,146,3.0,3.0,69,0.00,,,0.02,VWS V14.01,2013-02-10 21:03:00,
2013-02-10 16:04:00,37.8,28.6,29.91,SSE,161,2.0,5.0,69,0.00,,,0.02,VWS V14.01,2013-02-10 21:04:00,
2013-02-10 16:05:00,37.8,28.6,29.91,SSE,157,1.0,5.0,69,0.00,,,0.02,VWS V14.01,2013-02-10 21:05:00,
2013-02-10 16:06:00,37.7,28.5,29.91,SSE,159,1.0,5.0,69,0.00,,,0.02,VWS V14.01,2013-02-10 21:06:00,
2013-02-10 16:07:00,37.7,28.5,29.91,South,175,1.0,5.0,69,0.00,,,0.02,VWS V14.01,2013-02-10 21:07:00,
2013-02-10 16:08:00,37.7,28.5,29.91,South,173,2.0,5.0,69,0.00,,,0.02,VWS V14.01,2013-02-10 21:08:00,
2013-02-10 16:09:00,37.6,28.4,29.91,South,173,3.0,5.0,69,0.00,,,0.02,VWS V14.01,2013-02-10 21:09:00,
2013-02-10 16:10:00,37.6,28.4,29.90,SSE,148,2.0,5.0,69,0.00,,,0.02,VWS V14.01,2013-02-10 21:10:00,
2013-02-10 16:11:00,37.6,28.4,29.90,SSE,148,0.0,5.0,69,0.00,,,0.02,VWS V14.01,2013-02-10 21:11:00,
2013-02-10 16:12:00,37.5,28.3,29.90,SSE,149,2.0,5.0,69,0.00,,,0.02,VWS V14.01,2013-02-10 21:12:00,
2013-02-10 16:13:00,37.5,28.3,29.90,SE,144,2.0,5.0,69,0.00,,,0.02,VWS V14.01,2013-02-10 21:13:00,
2013-02-10 16:14:00,37.5,28.3,29.90,South,178,2.0,5.0,69,0.00,,,0.02,VWS V14.01,2013-02-10 21:14:00,
2013-02-10 16:15:00,37.5,28.3,29.90,South,178,0.0,5.0,69,0.00,,,0.02,VWS V14.01,2013-02-10 21:15:00,
2013-02-10 16:16:00,37.4,28.2,29.90,SE,145,0.0,5.0,69,0.00,,,0.02,VWS V14.01,2013-02-10 21:16:00,
2013-02-10 16:17:00,37.4,28.2,29.90,SE,146,0.0,5.0,69,0.00,,,0.02,VWS V14.01,2013-02-10 21:17:00,
2013-02-10 16:18:00,37.4,28.2,29.89,SSE,161,2.0,5.0,69,0.00,,,0.02,VWS V14.01,2013-02-10 21:18:00,
2013-02-10 16:19:00,37.4,28.2,29.90,ESE,119,3.0,5.0,69,0.00,,,0.02,VWS V14.01,2013-02-10 21:19:00,
2013-02-10 16:20:00,37.4,28.2,29.90,ESE,118,1.0,5.0,69,0.00,,,0.02,VWS V14.01,2013-02-10 21:20:00,
2013-02-10 16:21:00,37.4,28.2,29.89,ESE,107,1.0,5.0,69,0.00,,,0.02,VWS V14.01,2013-02-10 21:21:00,
2013-02-10 16:22:00,37.4,28.2,29.89,East,98,2.0,5.0,69,0.00,,,0.02,VWS V14.01,2013-02-10 21:22:00,
2013-02-10 16:23:00,37.4,28.2,29.89,SE,124,2.0,5.0,69,0.00,,,0.02,VWS V14.01,2013-02-10 21:23:00,
2013-02-10 16:24:00,37.4,28.2,29.89,SE,130,3.0,5.0,69,0.00,,,0.02,VWS V14.01,2013-02-10 21:24:00,
2013-02-10 16:25:00,37.4,28.2,29.89,SSE,157,1.0,5.0,69,0.00,,,0.02,VWS V14.01,2013-02-10 21:25:00,
2013-02-10 16:26:00,37.4,28.2,29.89,SSE,156,2.0,5.0,69,0.00,,,0.02,VWS V14.01,2013-02-10 21:26:00,
2013-02-10 16:27:00,37.4,28.2,29.89,SSE,157,0.0,5.0,69,0.00,,,0.02,VWS V14.01,2013-02-10 21:27:00,
2013-02-10 16:28:00,37.4,28.2,29.88,SSE,157,2.0,5.0,69,0.00,,,0.02,VWS V14.01,2013-02-10 21:28:00,
2013-02-10 16:29:00,37.4,28.2,29.88,SSE,158,1.0,5.0,69,0.00,,,0.02,VWS V14.01,2013-02-10 21:29:00,
2013-02-10 16:30:00,37.4,28.5,29.88,SSE,157,2.0,5.0,70,0.00,,,0.02,VWS V14.01,2013-02-10 21:30:00,
2013-02-10 16:31:00,37.4,28.5,29.88,SSE,157,2.0,3.0,70,0.00,,,0.02,VWS V14.01,2013-02-10 21:31:00,
2013-02-10 16:32:00,37.4,28.5,29.88,SSE,157,0.0,3.0,70,0.00,,,0.02,VWS V14.01,2013-02-10 21:32:00,
2013-02-10 16:33:00,37.4,28.5,29.88,SSE,157,2.0,3.0,70,0.00,,,0.02,VWS V14.01,2013-02-10 21:33:00,
2013-02-10 16:34:00,37.4,28.5,29.88,SSE,159,1.0,3.0,70,0.00,,,0.02,VWS V14.01,2013-02-10 21:34:00,
2013-02-10 16:35:00,37.3,28.4,29.88,SSE,157,0.0,3.0,70,0.00,,,0.02,VWS V14.01,2013-02-10 21:35:00,
2013-02-10 16:36:00,37.3,28.4,29.88,SE,137,2.0,3.0,70,0.00,,,0.02,VWS V14.01,2013-02-10 21:36:00,
2013-02-10 16:37:00,37.3,28.4,29.88,SE,137,0.0,3.0,70,0.00,,,0.02,VWS V14.01,2013-02-10 21:37:00,
2013-02-10 16:38:00,37.3,28.4,29.88,SE,137,0.0,3.0,70,0.00,,,0.02,VWS V14.01,2013-02-10 21:38:00,
2013-02-10 16:39:00,37.3,28.4,29.88,SE,137,1.0,3.0,70,0.00,,,0.02,VWS V14.01,2013-02-10 21:39:00,
2013-02-10 16:40:00,37.3,28.4,29.88,SE,137,1.0,3.0,70,0.00,,,0.02,VWS V14.01,2013-02-10 21:40:00,
2013-02-10 16:41:00,37.3,28.4,29.88,SE,137,0.0,3.0,70,0.00,,,0.02,VWS V14.01,2013-02-10 21:41:00,
2013-02-10 16:42:00,37.3,28.4,29.88,SE,137,0.0,3.0,70,0.00,,,0.02,VWS V14.01,2013-02-10 21:42:00,
2013-02-10 16:43:00,37.3,28.4,29.87,ESE,121,3.0,3.0,70,0.00,,,0.02,VWS V14.01,2013-02-10 21:43:00,
2013-02-10 16:44:00,37.3,28.4,29.87,ESE,121,0.0,3.0,70,0.00,,,0.02,VWS V14.01,2013-02-10 21:44:00,
2013-02-10 16:45:00,37.2,28.3,29.87,ESE,121,0.0,3.0,70,0.00,,,0.02,VWS V14.01,2013-02-10 21:45:00,
2013-02-10 16:46:00,37.2,28.3,29.87,SE,139,3.0,4.0,70,0.00,,,0.02,VWS V14.01,2013-02-10 21:46:00,
2013-02-10 16:47:00,37.3,28.4,29.87,SE,130,2.0,4.0,70,0.00,,,0.02,VWS V14.01,2013-02-10 21:47:00,
2013-02-10 16:48:00,37.3,28.4,29.87,SE,128,0.0,4.0,70,0.00,,,0.02,VWS V14.01,2013-02-10 21:48:00,
2013-02-10 16:49:00,37.3,28.4,29.87,SE,129,2.0,4.0,70,0.00,,,0.02,VWS V14.01,2013-02-10 21:49:00,
2013-02-10 16:50:00,37.3,28.4,29.87,SSE,161,1.0,4.0,70,0.00,,,0.02,VWS V14.01,2013-02-10 21:50:00,
2013-02-10 16:51:00,37.3,28.4,29.87,SSE,161,0.0,4.0,70,0.00,,,0.02,VWS V14.01,2013-02-10 21:51:00,
2013-02-10 16:52:00,37.3,28.4,29.87,SSE,160,1.0,4.0,70,0.00,,,0.02,VWS V14.01,2013-02-10 21:52:00,
2013-02-10 16:53:00,37.3,28.4,29.87,ESE,107,0.0,4.0,70,0.00,,,0.02,VWS V14.01,2013-02-10 21:53:00,
2013-02-10 16:54:00,37.3,28.4,29.87,SE,124,1.0,4.0,70,0.00,,,0.02,VWS V14.01,2013-02-10 21:54:00,
2013-02-10 16:55:00,37.3,28.4,29.86,SE,130,0.0,4.0,70,0.00,,,0.02,VWS V14.01,2013-02-10 21:55:00,
2013-02-10 16:56:00,37.3,28.4,29.86,SE,146,2.0,4.0,70,0.00,,,0.02,VWS V14.01,2013-02-10 21:56:00,
2013-02-10 16:57:00,37.3,28.4,29.87,SSE,150,0.0,4.0,70,0.00,,,0.02,VWS V14.01,2013-02-10 21:57:00,
2013-02-10 16:58:00,37.3,28.4,29.86,SSE,149,3.0,4.0,70,0.00,,,0.02,VWS V14.01,2013-02-10 21:58:00,
2013-02-10 16:59:00,37.3,28.4,29.86,SE,134,2.0,4.0,70,0.00,,,0.02,VWS V14.01,2013-02-10 21:59:00,
2013-02-10 17:00:00,37.3,28.4,29.86,SE,136,0.0,6.0,70,0.00,,,0.02,VWS V14.01,2013-02-10 22:00:00,
2013-02-10 17:01:00,37.3,28.8,29.86,SE,136,0.0,2.0,71,0.00,,,0.02,VWS V14.01,2013-02-10 22:01:00,
2013-02-10 17:02:00,37.3,28.8,29.86,SE,136,1.0,3.0,71,0.00,,,0.02,VWS V14.01,2013-02-10 22:02:00,
2013-02-10 17:03:00,37.4,28.9,29.86,SE,136,0.0,3.0,71,0.00,,,0.02,VWS V14.01,2013-02-10 22:03:00,
2013-02-10 17:04:00,37.4,28.9,29.86,SE,136,0.0,3.0,71,0.00,,,0.02,VWS V14.01,2013-02-10 22:04:00,
2013-02-10 17:05:00,37.4,28.9,29.86,South,171,3.0,3.0,71,0.00,,,0.02,VWS V14.01,2013-02-10 22:05:00,
2013-02-10 17:06:00,37.4,28.9,29.86,SSE,157,3.0,4.0,71,0.00,,,0.02,VWS V14.01,2013-02-10 22:06:00,
2013-02-10 17:07:00,37.4,28.9,29.86,SSE,157,0.0,4.0,71,0.00,,,0.02,VWS V14.01,2013-02-10 22:07:00,
2013-02-10 17:08:00,37.4,28.9,29.86,South,175,3.0,4.0,71,0.00,,,0.02,VWS V14.01,2013-02-10 22:08:00,
2013-02-10 17:09:00,37.4,28.9,29.86,ESE,111,3.0,4.0,71,0.00,,,0.02,VWS V14.01,2013-02-10 22:09:00,
2013-02-10 17:10:00,37.4,28.9,29.86,ESE,111,0.0,4.0,71,0.00,,,0.02,VWS V14.01,2013-02-10 22:10:00,
2013-02-10 17:11:00,37.4,28.9,29.86,ESE,111,0.0,4.0,71,0.00,,,0.02,VWS V14.01,2013-02-10 22:11:00,
2013-02-10 17:12:00,37.4,28.9,29.85,ESE,103,1.0,4.0,71,0.00,,,0.02,VWS V14.01,2013-02-10 22:12:00,
2013-02-10 17:13:00,37.4,28.9,29.85,SSE,155,0.0,4.0,71,0.00,,,0.02,VWS V14.01,2013-02-10 22:13:00,
2013-02-10 17:14:00,37.4,28.9,29.85,SSE,155,0.0,4.0,71,0.00,,,0.02,VWS V14.01,2013-02-10 22:14:00,
2013-02-10 17:15:00,37.4,28.9,29.85,SSE,152,0.0,4.0,71,0.00,,,0.02,VWS V14.01,2013-02-10 22:15:00,
2013-02-10 17:16:00,37.4,28.9,29.85,SSE,152,2.0,4.0,71,0.00,,,0.02,VWS V14.01,2013-02-10 22:16:00,
2013-02-10 17:17:00,37.4,28.9,29.85,SSE,165,3.0,4.0,71,0.00,,,0.02,VWS V14.01,2013-02-10 22:17:00,
2013-02-10 17:18:00,37.4,28.9,29.85,SSE,165,1.0,4.0,71,0.00,,,0.02,VWS V14.01,2013-02-10 22:18:00,
2013-02-10 17:19:00,37.4,28.9,29.85,South,189,8.0,8.0,71,0.00,,,0.02,VWS V14.01,2013-02-10 22:19:00,
2013-02-10 17:20:00,37.5,29.0,29.86,SE,140,3.0,8.0,71,0.00,,,0.02,VWS V14.01,2013-02-10 22:20:00,
2013-02-10 17:21:00,37.5,29.0,29.86,SSE,163,2.0,8.0,71,0.00,,,0.02,VWS V14.01,2013-02-10 22:21:00,
2013-02-10 17:22:00,37.5,29.0,29.86,South,186,3.0,8.0,71,0.00,,,0.02,VWS V14.01,2013-02-10 22:22:00,
2013-02-10 17:23:00,37.6,29.1,29.86,SSE,168,2.0,8.0,71,0.00,,,0.02,VWS V14.01,2013-02-10 22:23:00,
2013-02-10 17:24:00,37.6,29.1,29.86,SSE,151,2.0,8.0,71,0.00,,,0.02,VWS V14.01,2013-02-10 22:24:00,
2013-02-10 17:25:00,37.7,29.2,29.86,SE,145,2.0,8.0,71,0.00,,,0.02,VWS V14.01,2013-02-10 22:25:00,
2013-02-10 17:26:00,37.7,29.2,29.86,SE,146,3.0,8.0,71,0.00,,,0.02,VWS V14.01,2013-02-10 22:26:00,
2013-02-10 17:27:00,37.7,29.2,29.86,SSE,159,1.0,8.0,71,0.00,,,0.02,VWS V14.01,2013-02-10 22:27:00,
2013-02-10 17:28:00,37.7,29.2,29.86,SSE,159,2.0,8.0,71,0.00,,,0.02,VWS V14.01,2013-02-10 22:28:00,
2013-02-10 17:29:00,37.7,29.2,29.86,SSE,156,2.0,8.0,71,0.00,,,0.02,VWS V14.01,2013-02-10 22:29:00,
2013-02-10 17:30:00,37.7,29.2,29.86,SSE,156,2.0,8.0,71,0.00,,,0.02,VWS V14.01,2013-02-10 22:30:00,
2013-02-10 17:31:00,37.7,29.2,29.86,SSE,157,0.0,3.0,71,0.00,,,0.02,VWS V14.01,2013-02-10 22:31:00,
2013-02-10 17:32:00,37.7,29.2,29.85,SSE,155,2.0,5.0,71,0.00,,,0.02,VWS V14.01,2013-02-10 22:32:00,
2013-02-10 17:33:00,37.7,29.2,29.86,SSW,196,2.0,5.0,71,0.00,,,0.02,VWS V14.01,2013-02-10 22:33:00,
2013-02-10 17:34:00,37.6,29.1,29.86,SE,140,2.0,5.0,71,0.00,,,0.02,VWS V14.01,2013-02-10 22:34:00,
2013-02-10 17:35:00,37.7,29.2,29.86,South,172,2.0,5.0,71,0.00,,,0.02,VWS V14.01,2013-02-10 22:35:00,
2013-02-10 17:36:00,37.7,29.2,29.86,South,171,2.0,5.0,71,0.00,,,0.02,VWS V14.01,2013-02-10 22:36:00,
2013-02-10 17:37:00,37.7,29.2,29.86,SSE,149,5.0,5.0,71,0.00,,,0.02,VWS V14.01,2013-02-10 22:37:00,
2013-02-10 17:38:00,37.6,29.1,29.86,SSE,149,0.0,5.0,71,0.00,,,0.02,VWS V14.01,2013-02-10 22:38:00,
2013-02-10 17:39:00,37.6,29.1,29.86,SSE,154,2.0,5.0,71,0.00,,,0.02,VWS V14.01,2013-02-10 22:39:00,
2013-02-10 17:40:00,37.6,29.4,29.86,South,169,2.0,5.0,72,0.00,,,0.02,VWS V14.01,2013-02-10 22:40:00,
2013-02-10 17:41:00,37.6,29.4,29.86,South,170,0.0,5.0,72,0.00,,,0.02,VWS V14.01,2013-02-10 22:41:00,
2013-02-10 17:42:00,37.5,29.3,29.86,South,170,0.0,5.0,72,0.00,,,0.02,VWS V14.01,2013-02-10 22:42:00,
2013-02-10 17:43:00,37.5,29.3,29.86,South,170,3.0,5.0,72,0.00,,,0.02,VWS V14.01,2013-02-10 22:43:00,
2013-02-10 17:44:00,37.4,29.5,29.86,SSE,160,0.0,5.0,73,0.00,,,0.02,VWS V14.01,2013-02-10 22:44:00,
2013-02-10 17:45:00,37.4,29.5,29.86,SSE,159,1.0,5.0,73,0.00,,,0.02,VWS V14.01,2013-02-10 22:45:00,
2013-02-10 17:46:00,37.3,29.5,29.86,SSE,159,1.0,5.0,73,0.00,,,0.02,VWS V14.01,2013-02-10 22:46:00,
2013-02-10 17:47:00,37.3,29.8,29.86,SSE,152,1.0,5.0,74,0.00,,,0.02,VWS V14.01,2013-02-10 22:47:00,
2013-02-10 17:48:00,37.2,29.7,29.86,SSE,152,1.0,5.0,74,0.00,,,0.02,VWS V14.01,2013-02-10 22:48:00,
2013-02-10 17:49:00,37.1,29.9,29.86,SSE,153,1.0,5.0,75,0.00,,,0.02,VWS V14.01,2013-02-10 22:49:00,
2013-02-10 17:50:00,37.1,29.9,29.86,SSE,152,1.0,5.0,75,0.00,,,0.02,VWS V14.01,2013-02-10 22:50:00,
2013-02-10 17:51:00,37.0,30.1,29.86,SSE,153,2.0,5.0,76,0.00,,,0.02,VWS V14.01,2013-02-10 22:51:00,
2013-02-10 17:52:00,36.9,30.0,29.86,SSE,153,1.0,5.0,76,0.00,,,0.02,VWS V14.01,2013-02-10 22:52:00,
2013-02-10 17:53:00,36.9,30.0,29.86,SSE,153,1.0,5.0,76,0.00,,,0.02,VWS V14.01,2013-02-10 22:53:00,
2013-02-10 17:54:00,36.8,30.3,29.86,SSE,153,4.0,5.0,77,0.00,,,0.02,VWS V14.01,2013-02-10 22:54:00,
2013-02-10 17:55:00,36.7,30.2,29.86,SSE,163,2.0,5.0,77,0.00,,,0.02,VWS V14.01,2013-02-10 22:55:00,
2013-02-10 17:56:00,36.7,30.2,29.86,SSE,163,0.0,5.0,77,0.00,,,0.02,VWS V14.01,2013-02-10 22:56:00,
2013-02-10 17:57:00,36.6,30.4,29.86,SSE,163,0.0,5.0,78,0.00,,,0.02,VWS V14.01,2013-02-10 22:57:00,
2013-02-10 17:58:00,36.5,30.3,29.86,SSE,153,1.0,5.0,78,0.00,,,0.02,VWS V14.01,2013-02-10 22:58:00,
2013-02-10 17:59:00,36.5,30.6,29.85,SE,130,2.0,5.0,79,0.00,,,0.02,VWS V14.01,2013-02-10 22:59:00,
2013-02-10 18:00:00,36.4,30.5,29.85,ESE,120,3.0,5.0,79,0.01,,,0.03,VWS V14.01,2013-02-10 23:00:00,
2013-02-10 18:01:00,36.4,30.5,29.85,ESE,121,2.0,3.0,79,0.01,,,0.03,VWS V14.01,2013-02-10 23:01:00,
2013-02-10 18:02:00,36.3,30.4,29.84,ESE,123,3.0,4.0,79,0.02,,,0.04,VWS V14.01,2013-02-10 23:02:00,
2013-02-10 18:03:00,36.2,30.6,29.84,SE,132,3.0,4.0,80,0.02,,,0.04,VWS V14.01,2013-02-10 23:03:00,
2013-02-10 18:04:00,36.1,30.5,29.83,SE,135,4.0,4.0,80,0.02,,,0.04,VWS V14.01,2013-02-10 23:04:00,
2013-02-10 18:05:00,36.1,30.8,29.83,ESE,114,2.0,5.0,81,0.02,,,0.04,VWS V14.01,2013-02-10 23:05:00,
2013-02-10 18:06:00,36.0,30.8,29.82,ESE,123,4.0,6.0,81,0.02,,,0.04,VWS V14.01,2013-02-10 23:06:00,
2013-02-10 18:07:00,35.9,30.6,29.81,ESE,118,4.0,6.0,81,0.02,,,0.04,VWS V14.01,2013-02-10 23:07:00,
2013-02-10 18:08:00,35.9,30.6,29.81,SE,136,1.0,6.0,81,0.02,,,0.04,VWS V14.01,2013-02-10 23:08:00,
2013-02-10 18:09:00,35.9,31.0,29.81,South,182,3.0,6.0,82,0.02,,,0.04,VWS V14.01,2013-02-10 23:09:00,
2013-02-10 18:10:00,35.9,31.0,29.82,SSE,153,2.0,6.0,82,0.02,,,0.04,VWS V14.01,2013-02-10 23:10:00,
2013-02-10 18:11:00,35.8,30.9,29.82,South,178,2.0,6.0,82,0.02,,,0.04,VWS V14.01,2013-02-10 23:11:00,
2013-02-10 18:12:00,35.8,30.9,29.82,SSE,154,3.0,6.0,82,0.02,,,0.04,VWS V14.01,2013-02-10 23:12:00,
2013-02-10 18:13:00,35.8,30.9,29.82,East,100,2.0,6.0,82,0.02,,,0.04,VWS V14.01,2013-02-10 23:13:00,
2013-02-10 18:14:00,35.8,31.1,29.82,SE,134,1.0,6.0,83,0.02,,,0.04,VWS V14.01,2013-02-10 23:14:00,
2013-02-10 18:15:00,35.8,31.1,29.83,SE,134,2.0,6.0,83,0.02,,,0.04,VWS V14.01,2013-02-10 23:15:00,
2013-02-10 18:16:00,35.7,31.0,29.83,SE,135,1.0,6.0,83,0.02,,,0.04,VWS V14.01,2013-02-10 23:16:00,
2013-02-10 18:17:00,35.7,31.0,29.83,SE,142,3.0,6.0,83,0.02,,,0.04,VWS V14.01,2013-02-10 23:17:00,
2013-02-10 18:18:00,35.7,31.0,29.83,SSE,155,2.0,6.0,83,0.02,,,0.04,VWS V14.01,2013-02-10 23:18:00,
2013-02-10 18:19:00,35.7,31.0,29.83,SSE,150,1.0,6.0,83,0.02,,,0.04,VWS V14.01,2013-02-10 23:19:00,
2013-02-10 18:20:00,35.7,31.0,29.84,SSE,153,0.0,6.0,83,0.02,,,0.04,VWS V14.01,2013-02-10 23:20:00,
2013-02-10 18:21:00,35.7,31.0,29.84,SE,136,3.0,6.0,83,0.02,,,0.04,VWS V14.01,2013-02-10 23:21:00,
2013-02-10 18:22:00,35.7,31.4,29.84,SSE,167,3.0,6.0,84,0.02,,,0.04,VWS V14.01,2013-02-10 23:22:00,
2013-02-10 18:23:00,35.7,31.4,29.84,SSE,164,3.0,6.0,84,0.02,,,0.04,VWS V14.01,2013-02-10 23:23:00,
2013-02-10 18:24:00,35.7,31.4,29.83,SSE,167,4.0,6.0,84,0.02,,,0.04,VWS V14.01,2013-02-10 23:24:00,
2013-02-10 18:25:00,35.7,31.4,29.83,SSE,156,0.0,6.0,84,0.02,,,0.04,VWS V14.01,2013-02-10 23:25:00,
2013-02-10 18:26:00,35.7,31.4,29.83,SSE,157,1.0,6.0,84,0.02,,,0.04,VWS V14.01,2013-02-10 23:26:00,
2013-02-10 18:27:00,35.7,31.4,29.83,SSE,157,1.0,6.0,84,0.02,,,0.04,VWS V14.01,2013-02-10 23:27:00,
2013-02-10 18:28:00,35.7,31.4,29.83,SSE,156,2.0,6.0,84,0.02,,,0.04,VWS V14.01,2013-02-10 23:28:00,
2013-02-10 18:29:00,35.7,31.4,29.83,SSE,157,0.0,6.0,84,0.02,,,0.04,VWS V14.01,2013-02-10 23:29:00,
2013-02-10 18:30:00,35.7,31.4,29.83,South,169,2.0,6.0,84,0.02,,,0.04,VWS V14.01,2013-02-10 23:30:00,
2013-02-10 18:31:00,35.8,31.5,29.83,South,169,1.0,2.0,84,0.02,,,0.04,VWS V14.01,2013-02-10 23:31:00,
2013-02-10 18:32:00,35.8,31.5,29.83,South,169,0.0,3.0,84,0.02,,,0.04,VWS V14.01,2013-02-10 23:32:00,
2013-02-10 18:33:00,35.8,31.5,29.83,South,169,1.0,3.0,84,0.02,,,0.04,VWS V14.01,2013-02-10 23:33:00,
2013-02-10 18:34:00,35.8,31.5,29.83,SSE,167,1.0,3.0,84,0.02,,,0.04,VWS V14.01,2013-02-10 23:34:00,
2013-02-10 18:35:00,35.9,31.8,29.83,SSE,167,0.0,3.0,85,0.02,,,0.04,VWS V14.01,2013-02-10 23:35:00,
2013-02-10 18:36:00,35.9,31.8,29.83,SSE,167,0.0,3.0,85,0.02,,,0.04,VWS V14.01,2013-02-10 23:36:00,
2013-02-10 18:37:00,35.9,31.8,29.83,SSE,167,0.0,3.0,85,0.02,,,0.04,VWS V14.01,2013-02-10 23:37:00,
2013-02-10 18:38:00,35.9,31.8,29.83,SSE,167,1.0,3.0,85,0.02,,,0.04,VWS V14.01,2013-02-10 23:38:00,
2013-02-10 18:39:00,35.9,31.8,29.83,ESE,121,1.0,3.0,85,0.02,,,0.04,VWS V14.01,2013-02-10 23:39:00,
2013-02-10 18:40:00,35.9,31.8,29.83,SE,125,2.0,3.0,85,0.02,,,0.04,VWS V14.01,2013-02-10 23:40:00,
2013-02-10 18:41:00,36.0,31.9,29.83,SSE,154,1.0,3.0,85,0.02,,,0.04,VWS V14.01,2013-02-10 23:41:00,
2013-02-10 18:42:00,36.0,31.9,29.83,SE,140,0.0,3.0,85,0.02,,,0.04,VWS V14.01,2013-02-10 23:42:00,
2013-02-10 18:43:00,36.1,32.0,29.83,SE,140,2.0,3.0,85,0.02,,,0.04,VWS V14.01,2013-02-10 23:43:00,
2013-02-10 18:44:00,36.1,32.0,29.83,SSE,148,2.0,3.0,85,0.02,,,0.04,VWS V14.01,2013-02-10 23:44:00,
2013-02-10 18:45:00,36.1,32.0,29.83,SSE,148,1.0,3.0,85,0.02,,,0.04,VWS V14.01,2013-02-10 23:45:00,
2013-02-10 18:46:00,36.1,32.0,29.83,SSE,148,1.0,3.0,85,0.02,,,0.04,VWS V14.01,2013-02-10 23:46:00,
2013-02-10 18:47:00,36.1,32.0,29.83,SE,140,0.0,3.0,85,0.02,,,0.04,VWS V14.01,2013-02-10 23:47:00,
2013-02-10 18:48:00,36.2,32.1,29.83,SE,140,0.0,3.0,85,0.02,,,0.04,VWS V14.01,2013-02-10 23:48:00,
2013-02-10 18:49:00,36.2,32.1,29.83,SE,140,1.0,3.0,85,0.02,,,0.04,VWS V14.01,2013-02-10 23:49:00,
2013-02-10 18:50:00,36.2,32.1,29.83,SE,140,2.0,3.0,85,0.02,,,0.04,VWS V14.01,2013-02-10 23:50:00,
2013-02-10 18:51:00,36.2,32.1,29.83,SE,140,0.0,3.0,85,0.02,,,0.04,VWS V14.01,2013-02-10 23:51:00,
2013-02-10 18:52:00,36.2,32.1,29.83,SE,140,0.0,3.0,85,0.02,,,0.04,VWS V14.01,2013-02-10 23:52:00,
2013-02-10 18:53:00,36.2,32.1,29.83,SE,141,1.0,3.0,85,0.02,,,0.04,VWS V14.01,2013-02-10 23:53:00,
2013-02-10 18:54:00,36.2,32.1,29.83,SE,141,1.0,3.0,85,0.02,,,0.04,VWS V14.01,2013-02-10 23:54:00,
2013-02-10 18:55:00,36.2,32.1,29.83,SE,141,0.0,3.0,85,0.02,,,0.04,VWS V14.01,2013-02-10 23:55:00,
2013-02-10 18:56:00,36.2,32.1,29.83,SE,142,1.0,3.0,85,0.02,,,0.04,VWS V14.01,2013-02-10 23:56:00,
2013-02-10 18:57:00,36.2,32.1,29.83,SE,142,1.0,3.0,85,0.02,,,0.04,VWS V14.01,2013-02-10 23:57:00,
2013-02-10 18:58:00,36.2,32.1,29.84,SE,142,0.0,3.0,85,0.02,,,0.04,VWS V14.01,2013-02-10 23:58:00,
2013-02-10 18:59:00,36.3,32.2,29.84,SSE,167,2.0,4.0,85,0.02,,,0.04,VWS V14.01,2013-02-10 23:59:00,
2013-02-10 19:00:00,36.2,32.1,29.84,SSE,167,1.0,4.0,85,0.02,,,0.04,VWS V14.01,2013-02-11 00:00:00,
2013-02-10 19:01:00,36.3,32.2,29.83,SSE,167,0.0,1.0,85,0.01,,,0.04,VWS V14.01,2013-02-11 00:01:00,
2013-02-10 19:02:00,36.3,32.2,29.84,SSE,166,2.0,2.0,85,0.01,,,0.04,VWS V14.01,2013-02-11 00:02:00,
2013-02-10 19:03:00,36.3,32.2,29.84,SSE,166,1.0,2.0,85,0.01,,,0.04,VWS V14.01,2013-02-11 00:03:00,
2013-02-10 19:04:00,36.3,32.2,29.84,SSE,165,2.0,2.0,85,0.01,,,0.04,VWS V14.01,2013-02-11 00:04:00,
2013-02-10 19:05:00,36.3,32.2,29.83,SSE,166,0.0,2.0,85,0.01,,,0.04,VWS V14.01,2013-02-11 00:05:00,
2013-02-10 19:06:00,36.3,32.2,29.83,SSE,165,0.0,2.0,85,0.01,,,0.04,VWS V14.01,2013-02-11 00:06:00,
2013-02-10 19:07:00,36.3,32.2,29.83,SE,137,3.0,3.0,85,0.01,,,0.04,VWS V14.01,2013-02-11 00:07:00,
2013-02-10 19:08:00,36.3,32.2,29.83,SE,137,0.0,3.0,85,0.01,,,0.04,VWS V14.01,2013-02-11 00:08:00,
2013-02-10 19:09:00,36.4,32.3,29.83,SSE,160,3.0,3.0,85,0.01,,,0.04,VWS V14.01,2013-02-11 00:09:00,
2013-02-10 19:10:00,36.4,32.3,29.82,SSE,164,2.0,4.0,85,0.01,,,0.04,VWS V14.01,2013-02-11 00:10:00,
2013-02-10 19:11:00,36.4,32.3,29.82,SSE,164,2.0,4.0,85,0.01,,,0.04,VWS V14.01,2013-02-11 00:11:00,
2013-02-10 19:12:00,36.5,32.4,29.82,SE,128,2.0,4.0,85,0.01,,,0.04,VWS V14.01,2013-02-11 00:12:00,
2013-02-10 19:13:00,36.5,32.1,29.82,SSE,168,4.0,5.0,84,0.01,,,0.04,VWS V14.01,2013-02-11 00:13:00,
2013-02-10 19:14:00,36.6,32.2,29.82,South,169,1.0,5.0,84,0.01,,,0.04,VWS V14.01,2013-02-11 00:14:00,
2013-02-10 19:15:00,36.7,32.3,29.82,SSE,160,1.0,5.0,84,0.01,,,0.04,VWS V14.01,2013-02-11 00:15:00,
2013-02-10 19:16:00,36.8,32.4,29.82,SSE,159,1.0,5.0,84,0.01,,,0.04,VWS V14.01,2013-02-11 00:16:00,
2013-02-10 19:17:00,36.8,32.4,29.82,SE,145,1.0,5.0,84,0.01,,,0.04,VWS V14.01,2013-02-11 00:17:00,
2013-02-10 19:18:00,36.9,32.5,29.82,SE,137,1.0,5.0,84,0.01,,,0.04,VWS V14.01,2013-02-11 00:18:00,
2013-02-10 19:19:00,36.9,32.2,29.82,SSE,155,4.0,5.0,83,0.01,,,0.04,VWS V14.01,2013-02-11 00:19:00,
2013-02-10 19:20:00,37.0,32.3,29.82,South,180,2.0,5.0,83,0.01,,,0.04,VWS V14.01,2013-02-11 00:20:00,
2013-02-10 19:21:00,37.0,32.3,29.82,South,172,2.0,5.0,83,0.01,,,0.04,VWS V14.01,2013-02-11 00:21:00,
2013-02-10 19:22:00,37.1,32.4,29.82,SSE,150,2.0,5.0,83,0.01,,,0.04,VWS V14.01,2013-02-11 00:22:00,
2013-02-10 19:23:00,37.1,32.4,29.82,SSE,150,2.0,5.0,83,0.01,,,0.04,VWS V14.01,2013-02-11 00:23:00,
2013-02-10 19:24:00,37.1,32.4,29.82,SSE,150,1.0,5.0,83,0.01,,,0.04,VWS V14.01,2013-02-11 00:24:00,
2013-02-10 19:25:00,37.1,32.1,29.82,SSE,147,3.0,5.0,82,0.01,,,0.04,VWS V14.01,2013-02-11 00:25:00,
2013-02-10 19:26:00,37.2,32.2,29.82,SE,146,2.0,5.0,82,0.01,,,0.04,VWS V14.01,2013-02-11 00:26:00,
2013-02-10 19:27:00,37.2,32.2,29.82,SSE,154,3.0,5.0,82,0.01,,,0.04,VWS V14.01,2013-02-11 00:27:00,
2013-02-10 19:28:00,37.3,32.3,29.81,SSE,154,0.0,5.0,82,0.01,,,0.04,VWS V14.01,2013-02-11 00:28:00,
2013-02-10 19:29:00,37.3,32.3,29.81,SSE,159,0.0,5.0,82,0.01,,,0.04,VWS V14.01,2013-02-11 00:29:00,
2013-02-10 19:30:00,37.3,32.3,29.81,SE,140,1.0,5.0,82,0.01,,,0.04,VWS V14.01,2013-02-11 00:30:00,
2013-02-10 19:31:00,37.4,32.4,29.81,SE,141,3.0,3.0,82,0.00,,,0.04,VWS V14.01,2013-02-11 00:31:00,
2013-02-10 19:32:00,37.4,32.4,29.81,SSE,148,2.0,4.0,82,0.00,,,0.04,VWS V14.01,2013-02-11 00:32:00,
2013-02-10 19:33:00,37.4,32.4,29.81,SE,145,2.0,4.0,82,0.00,,,0.04,VWS V14.01,2013-02-11 00:33:00,
2013-02-10 19:34:00,37.3,32.3,29.81,SE,134,4.0,4.0,82,0.01,,,0.05,VWS V14.01,2013-02-11 00:34:00,
2013-02-10 19:35:00,37.3,32.3,29.80,SSE,163,1.0,4.0,82,0.01,,,0.05,VWS V14.01,2013-02-11 00:35:00,
2013-02-10 19:36:00,37.3,32.3,29.80,SSE,157,2.0,4.0,82,0.01,,,0.05,VWS V14.01,2013-02-11 00:36:00,
2013-02-10 19:37:00,37.3,32.3,29.80,SSE,158,1.0,4.0,82,0.01,,,0.05,VWS V14.01,2013-02-11 00:37:00,
2013-02-10 19:38:00,37.3,32.6,29.80,SSE,163,3.0,4.0,83,0.01,,,0.05,VWS V14.01,2013-02-11 00:38:00,
2013-02-10 19:39:00,37.3,32.6,29.79,SSE,161,0.0,4.0,83,0.01,,,0.05,VWS V14.01,2013-02-11 00:39:00,
2013-02-10 19:40:00,37.3,32.6,29.79,SSE,147,2.0,4.0,83,0.01,,,0.05,VWS V14.01,2013-02-11 00:40:00,
2013-02-10 19:41:00,37.2,32.5,29.79,SSE,153,3.0,4.0,83,0.01,,,0.05,VWS V14.01,2013-02-11 00:41:00,
2013-02-10 19:42:00,37.2,32.5,29.79,SSE,159,3.0,4.0,83,0.01,,,0.05,VWS V14.01,2013-02-11 00:42:00,
2013-02-10 19:43:00,37.2,32.5,29.79,SE,135,2.0,4.0,83,0.01,,,0.05,VWS V14.01,2013-02-11 00:43:00,
2013-02-10 19:44:00,37.2,32.5,29.79,SSE,168,3.0,4.0,83,0.01,,,0.05,VWS V14.01,2013-02-11 00:44:00,
2013-02-10 19:45:00,37.2,32.5,29.79,SSE,157,0.0,4.0,83,0.01,,,0.05,VWS V14.01,2013-02-11 00:45:00,
2013-02-10 19:46:00,37.1,32.4,29.79,SSE,149,1.0,4.0,83,0.02,,,0.06,VWS V14.01,2013-02-11 00:46:00,
2013-02-10 19:47:00,37.1,32.4,29.79,SE,140,4.0,4.0,83,0.02,,,0.06,VWS V14.01,2013-02-11 00:47:00,
2013-02-10 19:48:00,37.1,32.7,29.79,SSE,157,4.0,5.0,84,0.02,,,0.06,VWS V14.01,2013-02-11 00:48:00,
2013-02-10 19:49:00,37.1,32.7,29.78,SSE,164,3.0,5.0,84,0.02,,,0.06,VWS V14.01,2013-02-11 00:49:00,
2013-02-10 19:50:00,37.1,32.7,29.78,SSE,152,4.0,5.0,84,0.02,,,0.06,VWS V14.01,2013-02-11 00:50:00,
2013-02-10 19:51:00,37.0,32.6,29.77,SE,146,3.0,5.0,84,0.02,,,0.06,VWS V14.01,2013-02-11 00:51:00,
2013-02-10 19:52:00,37.0,32.6,29.77,SE,143,4.0,5.0,84,0.02,,,0.06,VWS V14.01,2013-02-11 00:52:00,
2013-02-10 19:53:00,37.1,32.7,29.77,SE,136,5.0,6.0,84,0.02,,,0.06,VWS V14.01,2013-02-11 00:53:00,
2013-02-10 19:54:00,37.0,32.6,29.77,SSE,155,4.0,6.0,84,0.02,,,0.06,VWS V14.01,2013-02-11 00:54:00,
2013-02-10 19:55:00,37.0,32.6,29.77,SE,145,4.0,6.0,84,0.02,,,0.06,VWS V14.01,2013-02-11 00:55:00,
2013-02-10 19:56:00,37.0,32.6,29.77,ESE,119,3.0,6.0,84,0.02,,,0.06,VWS V14.01,2013-02-11 00:56:00,
2013-02-10 19:57:00,37.0,32.6,29.77,SSE,163,2.0,6.0,84,0.02,,,0.06,VWS V14.01,2013-02-11 00:57:00,
2013-02-10 19:58:00,37.0,32.6,29.77,SE,146,3.0,6.0,84,0.02,,,0.06,VWS V14.01,2013-02-11 00:58:00,
2013-02-10 19:59:00,37.0,32.6,29.77,SE,145,0.0,6.0,84,0.02,,,0.06,VWS V14.01,2013-02-11 00:59:00,
2013-02-10 20:00:00,37.0,32.6,29.77,SE,144,1.0,6.0,84,0.02,,,0.06,VWS V14.01,2013-02-11 01:00:00,
2013-02-10 20:01:00,37.0,32.6,29.76,SE,135,4.0,4.0,84,0.02,,,0.06,VWS V14.01,2013-02-11 01:01:00,
2013-02-10 20:02:00,37.0,32.6,29.76,SE,142,2.0,4.0,84,0.02,,,0.06,VWS V14.01,2013-02-11 01:02:00,
2013-02-10 20:03:00,37.0,32.6,29.76,SSE,148,0.0,4.0,84,0.02,,,0.06,VWS V14.01,2013-02-11 01:03:00,
2013-02-10 20:04:00,37.0,32.6,29.76,SSE,148,1.0,4.0,84,0.02,,,0.06,VWS V14.01,2013-02-11 01:04:00,
2013-02-10 20:05:00,36.9,32.8,29.76,SSE,149,1.0,4.0,85,0.02,,,0.06,VWS V14.01,2013-02-11 01:05:00,
2013-02-10 20:06:00,36.9,32.5,29.77,SSE,149,0.0,4.0,84,0.02,,,0.06,VWS V14.01,2013-02-11 01:06:00,
2013-02-10 20:07:00,36.9,32.8,29.76,SSE,149,3.0,4.0,85,0.02,,,0.06,VWS V14.01,2013-02-11 01:07:00,
2013-02-10 20:08:00,36.8,32.7,29.76,SE,126,1.0,4.0,85,0.02,,,0.06,VWS V14.01,2013-02-11 01:08:00,
2013-02-10 20:09:00,36.8,32.7,29.76,South,169,1.0,4.0,85,0.02,,,0.06,VWS V14.01,2013-02-11 01:09:00,
2013-02-10 20:10:00,36.8,32.7,29.76,South,169,1.0,4.0,85,0.02,,,0.06,VWS V14.01,2013-02-11 01:10:00,
2013-02-10 20:11:00,36.8,32.7,29.76,SSE,168,2.0,4.0,85,0.02,,,0.06,VWS V14.01,2013-02-11 01:11:00,
2013-02-10 20:12:00,36.8,32.7,29.76,SE,146,4.0,4.0,85,0.02,,,0.06,VWS V14.01,2013-02-11 01:12:00,
2013-02-10 20:13:00,36.8,32.7,29.76,SSE,164,3.0,4.0,85,0.02,,,0.06,VWS V14.01,2013-02-11 01:13:00,
2013-02-10 20:14:00,36.9,32.8,29.76,SSE,165,2.0,4.0,85,0.02,,,0.06,VWS V14.01,2013-02-11 01:14:00,
2013-02-10 20:15:00,36.9,32.8,29.76,SSE,161,2.0,4.0,85,0.02,,,0.06,VWS V14.01,2013-02-11 01:15:00,
2013-02-10 20:16:00,36.9,32.8,29.76,South,180,4.0,4.0,85,0.02,,,0.06,VWS V14.01,2013-02-11 01:16:00,
2013-02-10 20:17:00,36.9,32.8,29.76,SSE,164,3.0,5.0,85,0.02,,,0.06,VWS V14.01,2013-02-11 01:17:00,
2013-02-10 20:18:00,36.9,33.1,29.76,SSE,156,1.0,5.0,86,0.02,,,0.06,VWS V14.01,2013-02-11 01:18:00,
2013-02-10 20:19:00,37.0,33.2,29.76,SSE,157,4.0,5.0,86,0.02,,,0.06,VWS V14.01,2013-02-11 01:19:00,
2013-02-10 20:20:00,37.0,33.2,29.76,SSE,157,4.0,5.0,86,0.02,,,0.06,VWS V14.01,2013-02-11 01:20:00,
2013-02-10 20:21:00,37.0,33.2,29.76,South,171,1.0,5.0,86,0.02,,,0.06,VWS V14.01,2013-02-11 01:21:00,
2013-02-10 20:22:00,37.0,33.2,29.76,SE,135,4.0,5.0,86,0.02,,,0.06,VWS V14.01,2013-02-11 01:22:00,
2013-02-10 20:23:00,37.0,33.2,29.76,SSE,149,1.0,5.0,86,0.02,,,0.06,VWS V14.01,2013-02-11 01:23:00,
2013-02-10 20:24:00,37.0,33.2,29.76,SSE,157,1.0,5.0,86,0.02,,,0.06,VWS V14.01,2013-02-11 01:24:00,
2013-02-10 20:25:00,37.0,33.2,29.75,SSE,157,1.0,5.0,86,0.02,,,0.06,VWS V14.01,2013-02-11 01:25:00,
2013-02-10 20:26:00,37.0,33.2,29.75,SSE,159,3.0,5.0,86,0.02,,,0.06,VWS V14.01,2013-02-11 01:26:00,
2013-02-10 20:27:00,37.0,33.2,29.75,SE,139,0.0,5.0,86,0.02,,,0.06,VWS V14.01,2013-02-11 01:27:00,
2013-02-10 20:28:00,37.0,33.2,29.75,SE,135,3.0,5.0,86,0.02,,,0.06,VWS V14.01,2013-02-11 01:28:00,
2013-02-10 20:29:00,37.0,33.2,29.75,SE,146,1.0,5.0,86,0.02,,,0.06,VWS V14.01,2013-02-11 01:29:00,
2013-02-10 20:30:00,37.0,33.2,29.75,SE,145,1.0,5.0,86,0.02,,,0.06,VWS V14.01,2013-02-11 01:30:00,
2013-02-10 20:31:00,37.0,33.2,29.74,SE,135,3.0,3.0,86,0.02,,,0.06,VWS V14.01,2013-02-11 01:31:00,
2013-02-10 20:32:00,37.0,33.2,29.75,SE,128,1.0,4.0,86,0.02,,,0.06,VWS V14.01,2013-02-11 01:32:00,
2013-02-10 20:33:00,37.0,33.2,29.75,South,169,2.0,4.0,86,0.02,,,0.06,VWS V14.01,2013-02-11 01:33:00,
2013-02-10 20:34:00,37.0,33.2,29.75,SE,142,3.0,4.0,86,0.02,,,0.06,VWS V14.01,2013-02-11 01:34:00,
2013-02-10 20:35:00,37.0,33.2,29.74,SSE,150,2.0,4.0,86,0.02,,,0.06,VWS V14.01,2013-02-11 01:35:00,
2013-02-10 20:36:00,37.0,33.2,29.75,ESE,105,1.0,4.0,86,0.02,,,0.06,VWS V14.01,2013-02-11 01:36:00,
2013-02-10 20:37:00,37.0,33.2,29.74,ESE,122,1.0,4.0,86,0.02,,,0.06,VWS V14.01,2013-02-11 01:37:00,
2013-02-10 20:38:00,37.0,33.2,29.74,SE,146,4.0,4.0,86,0.02,,,0.06,VWS V14.01,2013-02-11 01:38:00,
2013-02-10 20:39:00,37.1,33.3,29.75,SSE,152,3.0,4.0,86,0.02,,,0.06,VWS V14.01,2013-02-11 01:39:00,
2013-02-10 20:40:00,37.1,33.3,29.75,SSE,163,3.0,4.0,86,0.02,,,0.06,VWS V14.01,2013-02-11 01:40:00,
2013-02-10 20:41:00,37.1,33.3,29.74,SSE,160,1.0,4.0,86,0.02,,,0.06,VWS V14.01,2013-02-11 01:41:00,
2013-02-10 20:42:00,37.1,33.3,29.74,South,179,5.0,6.0,86,0.02,,,0.06,VWS V14.01,2013-02-11 01:42:00,
2013-02-10 20:43:00,37.1,33.3,29.74,SSE,167,3.0,6.0,86,0.02,,,0.06,VWS V14.01,2013-02-11 01:43:00,
2013-02-10 20:44:00,37.1,33.3,29.74,SE,145,6.0,6.0,86,0.02,,,0.06,VWS V14.01,2013-02-11 01:44:00,
2013-02-10 20:45:00,37.2,33.4,29.74,SSE,148,0.0,6.0,86,0.02,,,0.06,VWS V14.01,2013-02-11 01:45:00,
2013-02-10 20:46:00,37.2,33.4,29.74,SSE,165,1.0,6.0,86,0.02,,,0.06,VWS V14.01,2013-02-11 01:46:00,
2013-02-10 20:47:00,37.2,33.4,29.74,SSE,167,3.0,6.0,86,0.02,,,0.06,VWS V14.01,2013-02-11 01:47:00,
2013-02-10 20:48:00,37.3,33.5,29.74,SSE,167,3.0,6.0,86,0.02,,,0.06,VWS V14.01,2013-02-11 01:48:00,
2013-02-10 20:49:00,37.3,33.5,29.74,SSE,166,3.0,6.0,86,0.02,,,0.06,VWS V14.01,2013-02-11 01:49:00,
2013-02-10 20:50:00,37.4,33.6,29.74,SSE,161,2.0,6.0,86,0.02,,,0.06,VWS V14.01,2013-02-11 01:50:00,
2013-02-10 20:51:00,37.4,33.6,29.74,South,173,5.0,6.0,86,0.02,,,0.06,VWS V14.01,2013-02-11 01:51:00,
2013-02-10 20:52:00,37.4,33.6,29.74,South,170,3.0,6.0,86,0.02,,,0.06,VWS V14.01,2013-02-11 01:52:00,
2013-02-10 20:53:00,37.5,33.7,29.74,SSE,157,3.0,6.0,86,0.02,,,0.06,VWS V14.01,2013-02-11 01:53:00,
2013-02-10 20:54:00,37.6,33.8,29.74,SSE,157,1.0,6.0,86,0.02,,,0.06,VWS V14.01,2013-02-11 01:54:00,
2013-02-10 20:55:00,37.6,33.8,29.74,SSE,161,3.0,6.0,86,0.02,,,0.06,VWS V14.01,2013-02-11 01:55:00,
2013-02-10 20:56:00,37.6,33.8,29.74,SSE,167,1.0,6.0,86,0.02,,,0.06,VWS V14.01,2013-02-11 01:56:00,
2013-02-10 20:57:00,37.7,33.9,29.74,SE,142,2.0,6.0,86,0.02,,,0.06,VWS V14.01,2013-02-11 01:57:00,
2013-02-10 20:58:00,37.7,33.9,29.75,SSE,153,2.0,6.0,86,0.02,,,0.06,VWS V14.01,2013-02-11 01:58:00,
2013-02-10 20:59:00,37.8,34.0,29.74,SSE,160,5.0,7.0,86,0.02,,,0.06,VWS V14.01,2013-02-11 01:59:00,
2013-02-10 21:00:00,37.8,34.0,29.74,SSE,167,3.0,7.0,86,0.02,,,0.06,VWS V14.01,2013-02-11 02:00:00,
2013-02-10 21:01:00,37.9,34.1,29.74,SSE,155,2.0,5.0,86,0.00,,,0.06,VWS V14.01,2013-02-11 02:01:00,
2013-02-10 21:02:00,37.9,33.8,29.74,South,181,3.0,5.0,85,0.00,,,0.06,VWS V14.01,2013-02-11 02:02:00,
2013-02-10 21:03:00,37.9,33.8,29.74,SSE,162,1.0,5.0,85,0.00,,,0.06,VWS V14.01,2013-02-11 02:03:00,
2013-02-10 21:04:00,37.9,33.8,29.74,SSE,165,4.0,5.0,85,0.00,,,0.06,VWS V14.01,2013-02-11 02:04:00,
2013-02-10 21:05:00,37.9,33.8,29.74,SSE,157,2.0,5.0,85,0.00,,,0.06,VWS V14.01,2013-02-11 02:05:00,
2013-02-10 21:06:00,37.9,33.8,29.73,South,171,1.0,5.0,85,0.00,,,0.06,VWS V14.01,2013-02-11 02:06:00,
2013-02-10 21:07:00,37.9,33.8,29.73,South,171,1.0,5.0,85,0.00,,,0.06,VWS V14.01,2013-02-11 02:07:00,
2013-02-10 21:08:00,37.9,33.8,29.73,South,171,1.0,5.0,85,0.00,,,0.06,VWS V14.01,2013-02-11 02:08:00,
2013-02-10 21:09:00,37.9,33.8,29.73,SSE,158,2.0,5.0,85,0.00,,,0.06,VWS V14.01,2013-02-11 02:09:00,
2013-02-10 21:10:00,37.9,33.8,29.73,SSE,166,5.0,5.0,85,0.00,,,0.06,VWS V14.01,2013-02-11 02:10:00,
2013-02-10 21:11:00,37.9,34.1,29.73,South,170,3.0,5.0,86,0.00,,,0.06,VWS V14.01,2013-02-11 02:11:00,
2013-02-10 21:12:00,37.9,34.1,29.73,SSE,165,3.0,7.0,86,0.00,,,0.06,VWS V14.01,2013-02-11 02:12:00,
2013-02-10 21:13:00,37.9,34.1,29.73,SSE,161,3.0,7.0,86,0.00,,,0.06,VWS V14.01,2013-02-11 02:13:00,
2013-02-10 21:14:00,38.0,34.2,29.73,SSE,159,5.0,7.0,86,0.00,,,0.06,VWS V14.01,2013-02-11 02:14:00,
2013-02-10 21:15:00,38.0,34.2,29.73,SSE,150,2.0,7.0,86,0.00,,,0.06,VWS V14.01,2013-02-11 02:15:00,
2013-02-10 21:16:00,38.0,34.2,29.73,SSE,156,2.0,7.0,86,0.01,,,0.07,VWS V14.01,2013-02-11 02:16:00,
2013-02-10 21:17:00,38.0,34.2,29.73,SSE,155,5.0,7.0,86,0.01,,,0.07,VWS V14.01,2013-02-11 02:17:00,
2013-02-10 21:18:00,38.0,34.2,29.73,SSE,155,3.0,7.0,86,0.01,,,0.07,VWS V14.01,2013-02-11 02:18:00,
2013-02-10 21:19:00,38.0,34.2,29.73,SSE,157,3.0,7.0,86,0.01,,,0.07,VWS V14.01,2013-02-11 02:19:00,
2013-02-10 21:20:00,38.0,34.2,29.73,SSE,165,2.0,7.0,86,0.02,,,0.08,VWS V14.01,2013-02-11 02:20:00,
2013-02-10 21:21:00,38.0,34.2,29.73,SSE,151,3.0,7.0,86,0.02,,,0.08,VWS V14.01,2013-02-11 02:21:00,
2013-02-10 21:22:00,38.0,34.2,29.73,SSE,159,3.0,7.0,86,0.02,,,0.08,VWS V14.01,2013-02-11 02:22:00,
2013-02-10 21:23:00,38.0,34.2,29.73,SSE,165,3.0,7.0,86,0.02,,,0.08,VWS V14.01,2013-02-11 02:23:00,
2013-02-10 21:24:00,38.1,34.3,29.73,SSE,162,3.0,7.0,86,0.02,,,0.08,VWS V14.01,2013-02-11 02:24:00,
2013-02-10 21:25:00,38.1,34.3,29.73,SSE,160,3.0,7.0,86,0.02,,,0.08,VWS V14.01,2013-02-11 02:25:00,
2013-02-10 21:26:00,38.1,34.3,29.73,SSE,163,3.0,7.0,86,0.02,,,0.08,VWS V14.01,2013-02-11 02:26:00,
2013-02-10 21:27:00,38.2,34.4,29.72,South,171,3.0,7.0,86,0.02,,,0.08,VWS V14.01,2013-02-11 02:27:00,
2013-02-10 21:28:00,38.2,34.4,29.72,SSE,163,2.0,7.0,86,0.02,,,0.08,VWS V14.01,2013-02-11 02:28:00,
2013-02-10 21:29:00,38.2,34.4,29.72,SSE,158,4.0,7.0,86,0.02,,,0.08,VWS V14.01,2013-02-11 02:29:00,
2013-02-10 21:30:00,38.2,34.4,29.72,SSE,165,2.0,7.0,86,0.02,,,0.08,VWS V14.01,2013-02-11 02:30:00,
2013-02-10 21:31:00,38.2,34.4,29.73,SSE,153,3.0,4.0,86,0.02,,,0.08,VWS V14.01,2013-02-11 02:31:00,
2013-02-10 21:32:00,38.2,34.4,29.72,SSE,167,3.0,5.0,86,0.02,,,0.08,VWS V14.01,2013-02-11 02:32:00,
2013-02-10 21:33:00,38.2,34.4,29.72,SSE,161,4.0,6.0,86,0.02,,,0.08,VWS V14.01,2013-02-11 02:33:00,
2013-02-10 21:34:00,38.3,34.5,29.72,SSE,160,3.0,6.0,86,0.02,,,0.08,VWS V14.01,2013-02-11 02:34:00,
2013-02-10 21:35:00,38.3,34.5,29.72,South,169,2.0,6.0,86,0.02,,,0.08,VWS V14.01,2013-02-11 02:35:00,
2013-02-10 21:36:00,38.3,34.5,29.72,SSE,158,3.0,6.0,86,0.02,,,0.08,VWS V14.01,2013-02-11 02:36:00,
2013-02-10 21:37:00,38.2,34.4,29.72,SSE,159,2.0,6.0,86,0.02,,,0.08,VWS V14.01,2013-02-11 02:37:00,
2013-02-10 21:38:00,38.2,34.4,29.72,SSE,150,0.0,6.0,86,0.02,,,0.08,VWS V14.01,2013-02-11 02:38:00,
2013-02-10 21:39:00,38.2,34.4,29.72,SSE,161,3.0,6.0,86,0.02,,,0.08,VWS V14.01,2013-02-11 02:39:00,
2013-02-10 21:40:00,38.2,34.4,29.72,SSE,168,4.0,6.0,86,0.02,,,0.08,VWS V14.01,2013-02-11 02:40:00,
2013-02-10 21:41:00,38.2,34.4,29.72,SSE,167,3.0,6.0,86,0.02,,,0.08,VWS V14.01,2013-02-11 02:41:00,
2013-02-10 21:42:00,38.1,34.3,29.72,SSE,165,2.0,6.0,86,0.02,,,0.08,VWS V14.01,2013-02-11 02:42:00,
2013-02-10 21:43:00,38.1,34.3,29.72,SSE,166,3.0,6.0,86,0.02,,,0.08,VWS V14.01,2013-02-11 02:43:00,
2013-02-10 21:44:00,38.1,34.3,29.72,SSE,157,4.0,6.0,86,0.02,,,0.08,VWS V14.01,2013-02-11 02:44:00,
2013-02-10 21:45:00,38.2,34.4,29.72,SSE,167,3.0,6.0,86,0.02,,,0.08,VWS V14.01,2013-02-11 02:45:00,
2013-02-10 21:46:00,38.2,34.4,29.72,SSE,161,3.0,6.0,86,0.02,,,0.08,VWS V14.01,2013-02-11 02:46:00,
2013-02-10 21:47:00,38.1,34.3,29.72,SSE,159,3.0,6.0,86,0.02,,,0.08,VWS V14.01,2013-02-11 02:47:00,
2013-02-10 21:48:00,38.1,34.3,29.72,SSE,157,2.0,6.0,86,0.02,,,0.08,VWS V14.01,2013-02-11 02:48:00,
2013-02-10 21:49:00,38.1,34.3,29.72,SSE,160,2.0,6.0,86,0.02,,,0.08,VWS V14.01,2013-02-11 02:49:00,
2013-02-10 21:50:00,38.1,34.3,29.72,SSE,162,3.0,6.0,86,0.02,,,0.08,VWS V14.01,2013-02-11 02:50:00,
2013-02-10 21:51:00,38.1,34.3,29.72,SSE,167,2.0,6.0,86,0.02,,,0.08,VWS V14.01,2013-02-11 02:51:00,
2013-02-10 21:52:00,38.1,34.3,29.72,SSE,164,3.0,6.0,86,0.02,,,0.08,VWS V14.01,2013-02-11 02:52:00,
2013-02-10 21:53:00,38.1,34.3,29.71,SSE,163,3.0,6.0,86,0.02,,,0.08,VWS V14.01,2013-02-11 02:53:00,
2013-02-10 21:54:00,38.1,34.3,29.72,SSE,163,3.0,6.0,86,0.02,,,0.08,VWS V14.01,2013-02-11 02:54:00,
2013-02-10 21:55:00,38.1,34.3,29.71,SSE,162,3.0,6.0,86,0.02,,,0.08,VWS V14.01,2013-02-11 02:55:00,
2013-02-10 21:56:00,38.1,34.3,29.71,SSE,151,3.0,6.0,86,0.02,,,0.08,VWS V14.01,2013-02-11 02:56:00,
2013-02-10 21:57:00,38.1,34.3,29.71,SSE,159,2.0,6.0,86,0.02,,,0.08,VWS V14.01,2013-02-11 02:57:00,
2013-02-10 21:58:00,38.1,34.3,29.71,SSE,159,2.0,6.0,86,0.02,,,0.08,VWS V14.01,2013-02-11 02:58:00,
2013-02-10 21:59:00,38.1,34.3,29.71,SSE,159,2.0,6.0,86,0.02,,,0.08,VWS V14.01,2013-02-11 02:59:00,
2013-02-10 22:00:00,38.1,34.3,29.71,SSE,157,2.0,6.0,86,0.02,,,0.08,VWS V14.01,2013-02-11 03:00:00,
2013-02-10 22:01:00,38.0,34.2,29.71,SSE,157,2.0,3.0,86,0.02,,,0.08,VWS V14.01,2013-02-11 03:01:00,
2013-02-10 22:02:00,38.0,34.2,29.71,SSE,150,3.0,3.0,86,0.02,,,0.08,VWS V14.01,2013-02-11 03:02:00,
2013-02-10 22:03:00,38.0,34.5,29.71,SSE,152,4.0,5.0,87,0.02,,,0.08,VWS V14.01,2013-02-11 03:03:00,
2013-02-10 22:04:00,38.0,34.5,29.71,South,169,3.0,5.0,87,0.02,,,0.08,VWS V14.01,2013-02-11 03:04:00,
2013-02-10 22:05:00,38.0,34.5,29.71,SSE,165,5.0,5.0,87,0.02,,,0.08,VWS V14.01,2013-02-11 03:05:00,
2013-02-10 22:06:00,38.0,34.5,29.71,SSE,167,3.0,5.0,87,0.02,,,0.08,VWS V14.01,2013-02-11 03:06:00,
2013-02-10 22:07:00,38.0,34.5,29.71,SSE,167,3.0,5.0,87,0.02,,,0.08,VWS V14.01,2013-02-11 03:07:00,
2013-02-10 22:08:00,38.0,34.5,29.70,SSE,153,4.0,5.0,87,0.02,,,0.08,VWS V14.01,2013-02-11 03:08:00,
2013-02-10 22:09:00,38.0,34.5,29.70,SSE,153,3.0,5.0,87,0.02,,,0.08,VWS V14.01,2013-02-11 03:09:00,
2013-02-10 22:10:00,38.0,34.5,29.70,SSE,153,3.0,5.0,87,0.02,,,0.08,VWS V14.01,2013-02-11 03:10:00,
2013-02-10 22:11:00,38.0,34.5,29.70,SSE,157,2.0,5.0,87,0.02,,,0.08,VWS V14.01,2013-02-11 03:11:00,
2013-02-10 22:12:00,38.0,34.5,29.70,SSE,162,2.0,6.0,87,0.02,,,0.08,VWS V14.01,2013-02-11 03:12:00,
2013-02-10 22:13:00,38.0,34.5,29.70,SSE,165,3.0,6.0,87,0.02,,,0.08,VWS V14.01,2013-02-11 03:13:00,
2013-02-10 22:14:00,38.0,34.5,29.70,SSE,163,1.0,6.0,87,0.02,,,0.08,VWS V14.01,2013-02-11 03:14:00,
2013-02-10 22:15:00,38.0,34.5,29.70,South,169,3.0,6.0,87,0.02,,,0.08,VWS V14.01,2013-02-11 03:15:00,
2013-02-10 22:16:00,38.0,34.5,29.70,South,169,2.0,6.0,87,0.02,,,0.08,VWS V14.01,2013-02-11 03:16:00,
2013-02-10 22:17:00,38.0,34.5,29.70,South,169,2.0,6.0,87,0.02,,,0.08,VWS V14.01,2013-02-11 03:17:00,
2013-02-10 22:18:00,38.0,34.5,29.70,South,169,3.0,6.0,87,0.02,,,0.08,VWS V14.01,2013-02-11 03:18:00,
2013-02-10 22:19:00,38.0,34.5,29.70,South,169,2.0,6.0,87,0.02,,,0.08,VWS V14.01,2013-02-11 03:19:00,
2013-02-10 22:20:00,38.0,34.5,29.70,South,169,2.0,6.0,87,0.02,,,0.08,VWS V14.01,2013-02-11 03:20:00,
2013-02-10 22:21:00,38.0,34.5,29.70,SSE,168,1.0,6.0,87,0.02,,,0.08,VWS V14.01,2013-02-11 03:21:00,
2013-02-10 22:22:00,38.0,34.8,29.70,South,169,3.0,6.0,88,0.02,,,0.08,VWS V14.01,2013-02-11 03:22:00,
2013-02-10 22:23:00,38.0,34.8,29.70,SSE,156,3.0,6.0,88,0.02,,,0.08,VWS V14.01,2013-02-11 03:23:00,
2013-02-10 22:24:00,38.0,34.8,29.70,SSE,161,1.0,6.0,88,0.02,,,0.08,VWS V14.01,2013-02-11 03:24:00,
2013-02-10 22:25:00,38.0,34.8,29.70,SSE,160,2.0,6.0,88,0.02,,,0.08,VWS V14.01,2013-02-11 03:25:00,
2013-02-10 22:26:00,38.0,34.8,29.70,SSE,160,2.0,6.0,88,0.02,,,0.08,VWS V14.01,2013-02-11 03:26:00,
2013-02-10 22:27:00,38.0,34.8,29.70,SSE,160,0.0,6.0,88,0.02,,,0.08,VWS V14.01,2013-02-11 03:27:00,
2013-02-10 22:28:00,38.0,34.8,29.70,SSE,157,3.0,6.0,88,0.02,,,0.08,VWS V14.01,2013-02-11 03:28:00,
2013-02-10 22:29:00,38.0,34.8,29.70,SSE,162,3.0,6.0,88,0.02,,,0.08,VWS V14.01,2013-02-11 03:29:00,
2013-02-10 22:30:00,38.0,34.8,29.70,SSE,165,3.0,6.0,88,0.02,,,0.08,VWS V14.01,2013-02-11 03:30:00,
2013-02-10 22:31:00,38.0,34.8,29.69,SSE,166,4.0,4.0,88,0.00,,,0.08,VWS V14.01,2013-02-11 03:31:00,
2013-02-10 22:32:00,38.0,34.8,29.69,SSE,149,2.0,4.0,88,0.00,,,0.08,VWS V14.01,2013-02-11 03:32:00,
2013-02-10 22:33:00,38.0,34.8,29.69,SSE,161,2.0,4.0,88,0.00,,,0.08,VWS V14.01,2013-02-11 03:33:00,
2013-02-10 22:34:00,38.0,34.8,29.70,SSE,161,2.0,4.0,88,0.00,,,0.08,VWS V14.01,2013-02-11 03:34:00,
2013-02-10 22:35:00,38.1,34.9,29.69,SSE,157,3.0,4.0,88,0.00,,,0.08,VWS V14.01,2013-02-11 03:35:00,
2013-02-10 22:36:00,38.1,34.9,29.69,SSE,168,3.0,4.0,88,0.00,,,0.08,VWS V14.01,2013-02-11 03:36:00,
2013-02-10 22:37:00,38.1,34.9,29.69,SSE,165,3.0,4.0,88,0.00,,,0.08,VWS V14.01,2013-02-11 03:37:00,
2013-02-10 22:38:00,38.1,34.9,29.69,SSE,153,5.0,5.0,88,0.00,,,0.08,VWS V14.01,2013-02-11 03:38:00,
2013-02-10 22:39:00,38.2,35.0,29.69,SSE,157,3.0,5.0,88,0.00,,,0.08,VWS V14.01,2013-02-11 03:39:00,
2013-02-10 22:40:00,38.2,35.0,29.69,SSE,156,2.0,5.0,88,0.00,,,0.08,VWS V14.01,2013-02-11 03:40:00,
2013-02-10 22:41:00,38.2,35.0,29.69,SSE,156,3.0,5.0,88,0.00,,,0.08,VWS V14.01,2013-02-11 03:41:00,
2013-02-10 22:42:00,38.2,35.0,29.69,SSE,147,3.0,5.0,88,0.00,,,0.08,VWS V14.01,2013-02-11 03:42:00,
2013-02-10 22:43:00,38.2,35.0,29.69,SE,138,2.0,5.0,88,0.00,,,0.08,VWS V14.01,2013-02-11 03:43:00,
2013-02-10 22:44:00,38.2,35.0,29.69,SE,142,2.0,5.0,88,0.00,,,0.08,VWS V14.01,2013-02-11 03:44:00,
2013-02-10 22:45:00,38.2,35.0,29.69,SSE,165,3.0,5.0,88,0.00,,,0.08,VWS V14.01,2013-02-11 03:45:00,
2013-02-10 22:46:00,38.2,35.0,29.69,SSE,150,3.0,5.0,88,0.00,,,0.08,VWS V14.01,2013-02-11 03:46:00,
2013-02-10 22:47:00,38.2,35.0,29.69,SSE,163,2.0,5.0,88,0.00,,,0.08,VWS V14.01,2013-02-11 03:47:00,
2013-02-10 22:48:00,38.2,35.0,29.69,SSE,163,2.0,5.0,88,0.00,,,0.08,VWS V14.01,2013-02-11 03:48:00,
2013-02-10 22:49:00,38.2,35.0,29.69,SSE,162,0.0,5.0,88,0.00,,,0.08,VWS V14.01,2013-02-11 03:49:00,
2013-02-10 22:50:00,38.2,35.2,29.69,SSE,161,2.0,5.0,89,0.00,,,0.08,VWS V14.01,2013-02-11 03:50:00,
2013-02-10 22:51:00,38.3,35.1,29.68,South,177,2.0,5.0,88,0.00,,,0.08,VWS V14.01,2013-02-11 03:51:00,
2013-02-10 22:52:00,38.3,35.3,29.68,South,173,1.0,5.0,89,0.00,,,0.08,VWS V14.01,2013-02-11 03:52:00,
2013-02-10 22:53:00,38.3,35.3,29.68,SSE,166,3.0,5.0,89,0.00,,,0.08,VWS V14.01,2013-02-11 03:53:00,
2013-02-10 22:54:00,38.3,35.3,29.68,SSE,165,2.0,5.0,89,0.00,,,0.08,VWS V14.01,2013-02-11 03:54:00,
2013-02-10 22:55:00,38.3,35.3,29.68,SSE,165,2.0,5.0,89,0.00,,,0.08,VWS V14.01,2013-02-11 03:55:00,
2013-02-10 22:56:00,38.4,35.5,29.68,SSE,165,1.0,5.0,89,0.00,,,0.08,VWS V14.01,2013-02-11 03:56:00,
2013-02-10 22:57:00,38.3,35.3,29.68,SSE,165,1.0,5.0,89,0.00,,,0.08,VWS V14.01,2013-02-11 03:57:00,
2013-02-10 22:58:00,38.4,35.5,29.68,SSE,165,2.0,5.0,89,0.00,,,0.08,VWS V14.01,2013-02-11 03:58:00,
2013-02-10 22:59:00,38.4,35.5,29.68,SSE,164,2.0,5.0,89,0.00,,,0.08,VWS V14.01,2013-02-11 03:59:00,
2013-02-10 23:00:00,38.4,35.5,29.68,SSE,159,2.0,5.0,89,0.00,,,0.08,VWS V14.01,2013-02-11 04:00:00,
2013-02-10 23:01:00,38.4,35.5,29.68,SSE,161,2.0,3.0,89,0.00,,,0.08,VWS V14.01,2013-02-11 04:01:00,
2013-02-10 23:02:00,38.5,35.5,29.68,SSE,165,3.0,3.0,89,0.00,,,0.08,VWS V14.01,2013-02-11 04:02:00,
2013-02-10 23:03:00,38.6,35.6,29.68,SSE,166,3.0,4.0,89,0.00,,,0.08,VWS V14.01,2013-02-11 04:03:00,
2013-02-10 23:04:00,38.6,35.6,29.68,South,175,3.0,5.0,89,0.00,,,0.08,VWS V14.01,2013-02-11 04:04:00,
2013-02-10 23:05:00,38.6,35.4,29.68,SSE,168,3.0,5.0,88,0.00,,,0.08,VWS V14.01,2013-02-11 04:05:00,
2013-02-10 23:06:00,38.7,35.5,29.68,SSE,148,4.0,6.0,88,0.00,,,0.08,VWS V14.01,2013-02-11 04:06:00,
2013-02-10 23:07:00,38.7,35.5,29.68,SSE,155,2.0,6.0,88,0.00,,,0.08,VWS V14.01,2013-02-11 04:07:00,
2013-02-10 23:08:00,38.8,35.6,29.68,SSE,163,3.0,6.0,88,0.00,,,0.08,VWS V14.01,2013-02-11 04:08:00,
2013-02-10 23:09:00,38.8,35.6,29.68,SSE,163,2.0,6.0,88,0.00,,,0.08,VWS V14.01,2013-02-11 04:09:00,
2013-02-10 23:10:00,38.8,35.6,29.68,SSE,163,2.0,6.0,88,0.00,,,0.08,VWS V14.01,2013-02-11 04:10:00,
2013-02-10 23:11:00,38.9,35.7,29.68,SSE,163,1.0,6.0,88,0.00,,,0.08,VWS V14.01,2013-02-11 04:11:00,
2013-02-10 23:12:00,38.9,35.7,29.68,SSE,163,2.0,6.0,88,0.00,,,0.08,VWS V14.01,2013-02-11 04:12:00,
2013-02-10 23:13:00,38.8,35.6,29.68,SSE,165,3.0,6.0,88,0.00,,,0.08,VWS V14.01,2013-02-11 04:13:00,
2013-02-10 23:14:00,38.9,35.7,29.68,South,180,3.0,6.0,88,0.00,,,0.08,VWS V14.01,2013-02-11 04:14:00,
2013-02-10 23:15:00,38.9,35.7,29.68,SSE,167,2.0,6.0,88,0.00,,,0.08,VWS V14.01,2013-02-11 04:15:00,
2013-02-10 23:16:00,38.9,35.7,29.68,SSE,167,3.0,6.0,88,0.00,,,0.08,VWS V14.01,2013-02-11 04:16:00,
2013-02-10 23:17:00,38.9,35.7,29.68,SSE,165,2.0,6.0,88,0.00,,,0.08,VWS V14.01,2013-02-11 04:17:00,
2013-02-10 23:18:00,39.0,35.8,29.68,SSE,163,3.0,6.0,88,0.00,,,0.08,VWS V14.01,2013-02-11 04:18:00,
2013-02-10 23:19:00,39.1,35.8,29.68,SSE,168,2.0,6.0,88,0.00,,,0.08,VWS V14.01,2013-02-11 04:19:00,
2013-02-10 23:20:00,39.1,35.8,29.68,South,186,2.0,6.0,88,0.00,,,0.08,VWS V14.01,2013-02-11 04:20:00,
2013-02-10 23:21:00,39.1,35.8,29.68,SSE,148,4.0,6.0,88,0.00,,,0.08,VWS V14.01,2013-02-11 04:21:00,
2013-02-10 23:22:00,39.1,35.8,29.68,South,177,4.0,6.0,88,0.00,,,0.08,VWS V14.01,2013-02-11 04:22:00,
2013-02-10 23:23:00,39.2,36.0,29.68,South,176,3.0,6.0,88,0.00,,,0.08,VWS V14.01,2013-02-11 04:23:00,
2013-02-10 23:24:00,39.2,36.0,29.68,South,176,3.0,6.0,88,0.00,,,0.08,VWS V14.01,2013-02-11 04:24:00,
2013-02-10 23:25:00,39.2,36.0,29.68,South,175,4.0,6.0,88,0.00,,,0.08,VWS V14.01,2013-02-11 04:25:00,
2013-02-10 23:26:00,39.3,36.0,29.68,South,179,3.0,6.0,88,0.00,,,0.08,VWS V14.01,2013-02-11 04:26:00,
2013-02-10 23:27:00,39.3,36.0,29.68,South,176,4.0,6.0,88,0.00,,,0.08,VWS V14.01,2013-02-11 04:27:00,
2013-02-10 23:28:00,39.3,36.0,29.68,South,175,2.0,6.0,88,0.00,,,0.08,VWS V14.01,2013-02-11 04:28:00,
2013-02-10 23:29:00,39.3,36.0,29.68,South,175,2.0,6.0,88,0.00,,,0.08,VWS V14.01,2013-02-11 04:29:00,
2013-02-10 23:30:00,39.3,36.0,29.68,South,173,4.0,6.0,88,0.00,,,0.08,VWS V14.01,2013-02-11 04:30:00,
2013-02-10 23:31:00,39.4,36.2,29.68,SSE,168,3.0,4.0,88,0.00,,,0.08,VWS V14.01,2013-02-11 04:31:00,
2013-02-10 23:32:00,39.4,36.2,29.68,SSE,168,3.0,4.0,88,0.00,,,0.08,VWS V14.01,2013-02-11 04:32:00,
2013-02-10 23:33:00,39.5,36.2,29.68,South,169,3.0,4.0,88,0.00,,,0.08,VWS V14.01,2013-02-11 04:33:00,
2013-02-10 23:34:00,39.5,36.2,29.67,SSE,163,4.0,5.0,88,0.00,,,0.08,VWS V14.01,2013-02-11 04:34:00,
2013-02-10 23:35:00,39.5,36.2,29.67,SSE,157,3.0,5.0,88,0.00,,,0.08,VWS V14.01,2013-02-11 04:35:00,
2013-02-10 23:36:00,39.5,36.2,29.67,South,180,3.0,5.0,88,0.00,,,0.08,VWS V14.01,2013-02-11 04:36:00,
2013-02-10 23:37:00,39.6,36.3,29.67,SSE,165,3.0,5.0,88,0.00,,,0.08,VWS V14.01,2013-02-11 04:37:00,
2013-02-10 23:38:00,39.6,36.3,29.67,SSE,153,3.0,5.0,88,0.00,,,0.08,VWS V14.01,2013-02-11 04:38:00,
2013-02-10 23:39:00,39.7,36.4,29.67,SSE,157,3.0,5.0,88,0.00,,,0.08,VWS V14.01,2013-02-11 04:39:00,
2013-02-10 23:40:00,39.7,36.4,29.67,SSE,163,2.0,5.0,88,0.00,,,0.08,VWS V14.01,2013-02-11 04:40:00,
2013-02-10 23:41:00,39.7,36.4,29.67,SSE,163,2.0,5.0,88,0.00,,,0.08,VWS V14.01,2013-02-11 04:41:00,
2013-02-10 23:42:00,39.7,36.4,29.67,SSE,168,4.0,6.0,88,0.00,,,0.08,VWS V14.01,2013-02-11 04:42:00,
2013-02-10 23:43:00,39.7,36.4,29.67,SSE,168,4.0,6.0,88,0.00,,,0.08,VWS V14.01,2013-02-11 04:43:00,
2013-02-10 23:44:00,39.8,36.5,29.67,SSE,160,4.0,6.0,88,0.00,,,0.08,VWS V14.01,2013-02-11 04:44:00,
2013-02-10 23:45:00,39.8,36.5,29.67,SSE,156,4.0,6.0,88,0.00,,,0.08,VWS V14.01,2013-02-11 04:45:00,
2013-02-10 23:46:00,39.9,36.6,29.67,SSE,157,3.0,6.0,88,0.00,,,0.08,VWS V14.01,2013-02-11 04:46:00,
2013-02-10 23:47:00,40.0,36.7,29.67,South,178,3.0,6.0,88,0.00,,,0.08,VWS V14.01,2013-02-11 04:47:00,
2013-02-10 23:48:00,40.0,36.7,29.67,SSE,155,3.0,6.0,88,0.00,,,0.08,VWS V14.01,2013-02-11 04:48:00,
2013-02-10 23:49:00,40.0,36.7,29.67,SSE,167,4.0,6.0,88,0.00,,,0.08,VWS V14.01,2013-02-11 04:49:00,
2013-02-10 23:50:00,40.0,36.7,29.67,SSE,165,3.0,6.0,88,0.00,,,0.08,VWS V14.01,2013-02-11 04:50:00,
2013-02-10 23:51:00,40.1,36.8,29.67,South,172,3.0,6.0,88,0.00,,,0.08,VWS V14.01,2013-02-11 04:51:00,
2013-02-10 23:52:00,40.1,36.8,29.67,SSE,165,4.0,6.0,88,0.00,,,0.08,VWS V14.01,2013-02-11 04:52:00,
2013-02-10 23:53:00,40.1,36.8,29.67,SSE,168,3.0,6.0,88,0.00,,,0.08,VWS V14.01,2013-02-11 04:53:00,
2013-02-10 23:54:00,40.1,36.8,29.67,SSE,168,2.0,6.0,88,0.00,,,0.08,VWS V14.01,2013-02-11 04:54:00,
2013-02-10 23:55:00,40.1,36.8,29.67,South,169,2.0,6.0,88,0.00,,,0.08,VWS V14.01,2013-02-11 04:55:00,
2013-02-10 23:56:00,40.1,36.8,29.67,South,169,4.0,6.0,88,0.00,,,0.08,VWS V14.01,2013-02-11 04:56:00,
2013-02-10 23:57:00,40.2,36.9,29.67,South,173,2.0,6.0,88,0.00,,,0.08,VWS V14.01,2013-02-11 04:57:00,
2013-02-10 23:58:00,40.1,36.8,29.67,South,171,3.0,6.0,88,0.00,,,0.08,VWS V14.01,2013-02-11 04:58:00,
2013-02-10 23:59:00,40.1,36.8,29.67,South,184,6.0,6.0,88,0.00,,,0.08,VWS V14.01,2013-02-11 04:59:00,